GFSGL_500_spd_000.txt.gz
Wind_Speed
4 2 5 7 8 9 10 14 17 15 18 18 19 22 24 26 23 20 24 27 29 21 30 33 27 20 25 24 25 25 21 19 17 15 12 13 14 14 12 11 9 10 11
5 2 4 5 4 7 10 13 18 19 22 21 25 24 20 16 17 14 21 19 27 27 18 16 16 26 27 25 23 20 18 18 16 16 16 15 14 14 10 11 12 12 13
6 6 6 8 7 8 15 12 16 19 23 26 30 25 24 25 31 22 24 23 16 26 27 24 21 22 25 24 20 18 17 17 16 16 15 13 14 15 14 11 11 13 14
10 7 7 10 10 11 14 15 16 18 18 22 24 25 26 27 25 22 17 19 18 13 17 21 16 23 21 17 19 19 18 16 14 13 13 16 16 14 15 14 14 16 18
8 10 8 8 11 11 11 12 14 15 19 19 19 22 21 21 26 30 27 24 23 21 20 20 20 21 21 22 19 18 16 15 14 16 15 12 13 13 14 14 16 18 22
7 9 8 7 9 11 13 14 13 14 15 19 20 21 22 21 21 20 20 22 22 22 22 21 20 20 19 17 14 13 12 10 10 7 8 11 14 15 15 17 21 24 27
7 9 9 8 8 11 12 13 14 15 17 18 20 21 21 20 20 20 20 20 19 18 16 15 15 14 13 12 10 9 8 9 10 11 12 12 14 17 20 24 27 28 29
7 9 11 10 10 11 13 15 16 17 17 16 16 15 15 15 13 13 15 16 16 15 16 16 15 15 13 10 9 10 11 11 12 12 14 17 20 23 26 27 29 30 35
7 8 10 11 11 11 12 14 15 14 13 12 11 10 9 9 9 8 8 8 8 8 9 9 8 8 10 12 12 12 11 11 15 17 19 23 25 27 28 31 35 38 41
10 10 10 11 11 11 10 9 9 9 8 8 7 6 5 4 4 5 6 8 9 10 9 9 8 9 9 9 10 11 14 17 20 21 23 25 27 29 33 37 42 44 47
11 11 10 10 10 10 10 8 6 5 4 3 3 2 2 3 5 6 7 8 10 11 11 9 10 10 11 12 14 17 21 23 23 25 27 29 31 35 38 41 45 47 49
13 12 12 12 10 10 9 7 6 6 6 5 4 3 3 2 3 5 6 8 11 14 16 17 16 15 16 19 21 23 24 25 26 29 31 34 36 39 42 46 47 49 52
18 16 15 14 13 11 9 8 7 6 6 6 6 6 8 8 9 9 10 11 13 15 18 19 18 19 21 22 23 24 27 29 32 34 37 39 40 43 47 50 51 54 56
23 22 19 17 16 14 11 10 10 11 11 11 9 9 9 11 13 14 16 17 16 17 18 18 20 23 26 28 29 30 32 34 37 40 42 45 48 50 51 52 55 59 63
26 28 25 23 21 20 18 17 16 16 17 17 16 14 14 15 16 17 17 18 19 20 22 23 25 27 28 29 31 33 36 38 41 44 47 50 52 54 54 58 60 59 65
23 25 29 30 28 28 27 26 25 23 23 23 23 22 22 20 21 21 21 23 24 26 27 29 30 31 31 33 35 37 38 41 45 50 54 55 55 59 60 61 64 69 73
27 26 27 26 27 30 31 31 30 29 28 27 27 26 26 24 24 24 24 24 25 26 27 28 29 30 31 35 39 42 48 49 47 51 49 56 58 59 65 62 70 73 76
27 29 30 28 28 27 29 31 32 32 31 30 30 29 27 27 28 28 28 28 28 28 28 29 31 34 37 41 42 47 51 46 54 51 55 61 63 69 74 75 71 68 62
29 28 26 26 24 26 30 32 32 31 32 34 30 31 30 29 29 29 29 29 31 31 33 35 36 39 43 45 47 51 53 53 63 56 55 60 60 55 59 62 62 65 67
35 32 33 33 35 34 33 33 33 33 32 34 31 30 31 30 30 31 31 32 34 35 37 39 41 43 45 48 50 53 53 49 55 59 62 66 71 67 62 61 64 66 71
39 38 42 41 45 42 31 33 33 35 36 36 33 30 33 32 33 33 34 35 35 36 39 41 44 47 49 51 55 51 51 52 56 50 55 61 57 56 58 60 65 69 73
43 42 42 41 39 35 36 37 39 34 37 36 37 37 37 38 38 37 37 38 40 42 42 42 42 40 45 53 54 58 60 52 59 55 53 51 52 55 59 62 65 69 72
44 43 42 46 42 42 42 37 41 41 40 37 38 38 38 39 40 41 43 46 44 43 40 45 52 53 55 59 55 48 48 47 47 46 47 51 55 57 59 62 66 71 73
45 49 47 45 48 40 42 37 35 37 39 38 38 37 38 42 43 46 46 47 48 46 47 53 59 50 52 52 46 46 44 43 43 46 51 51 55 57 60 64 68 70 71
44 46 49 50 48 49 44 38 39 41 40 38 38 40 40 41 46 49 49 51 44 47 54 60 53 51 42 43 41 40 39 39 45 46 49 51 54 58 62 64 65 66 70
41 47 55 54 50 52 54 45 43 42 44 45 40 42 44 47 52 57 55 56 50 60 63 53 47 43 42 39 36 34 37 42 43 46 47 52 54 56 57 58 63 68 73

GFSGL_500_spd_003.txt.gz
Wind_Speed
1 5 8 8 10 12 12 12 14 12 13 14 15 18 17 21 20 24 25 31 28 36 30 18 29 29 32 35 23 23 18 16 18 17 15 14 10 9 9 9 7 8 7
4 7 9 9 10 10 14 14 18 16 14 15 19 18 23 19 23 20 21 19 30 21 24 20 29 29 33 27 22 23 17 14 13 13 12 9 10 11 9 8 9 12 11
6 10 10 10 10 11 14 12 18 16 17 13 12 13 18 18 20 16 20 18 24 6 13 21 27 29 28 26 22 22 14 11 10 11 11 11 10 9 10 12 12 11 14
6 8 9 11 11 13 14 11 13 17 19 16 15 15 15 18 22 21 16 14 13 12 11 13 21 21 20 20 20 17 15 14 12 11 9 10 10 11 10 11 14 17 20
7 8 8 9 10 10 11 12 13 14 15 20 17 19 26 17 16 18 17 13 20 17 12 18 22 23 22 16 13 12 11 11 11 11 11 10 9 12 16 19 22 23 23
6 7 6 6 10 9 10 10 10 12 13 16 22 23 21 18 18 19 18 16 15 19 18 18 19 16 15 14 15 15 13 11 10 10 12 14 16 17 19 20 20 20 24
4 6 8 8 8 10 8 9 11 17 18 18 19 21 21 21 22 20 21 21 21 18 18 19 19 17 17 15 13 11 9 10 11 12 13 14 16 16 17 19 22 26 28
5 6 9 9 8 8 11 13 14 15 16 17 19 19 19 17 16 16 16 16 16 17 16 16 16 14 13 12 10 11 11 12 13 14 14 14 17 19 21 23 27 29 31
3 5 8 11 11 11 13 14 14 13 13 12 13 14 15 16 15 12 10 9 10 11 12 11 11 10 9 10 11 12 12 14 14 15 18 20 21 22 24 27 31 33 37
4 6 8 10 12 13 12 12 11 11 11 11 11 10 10 9 9 10 11 11 11 10 10 11 11 12 12 13 14 14 14 16 19 21 21 22 24 26 29 31 36 40 43
8 8 8 7 8 11 11 9 7 5 5 5 6 6 6 5 4 4 4 5 7 11 14 15 14 13 13 13 15 18 18 18 21 22 23 25 28 31 34 38 41 45 49
9 9 9 9 8 8 8 7 6 5 5 4 3 3 3 3 3 2 3 4 5 8 11 14 14 13 15 16 17 18 19 20 22 24 27 31 35 38 40 43 46 50 54
12 12 12 10 9 8 6 5 5 5 5 4 3 2 3 4 4 5 5 5 5 7 10 12 15 15 16 18 19 20 22 24 27 30 33 36 39 43 46 50 54 55 58
17 16 14 13 12 11 9 7 6 5 6 7 7 6 5 6 6 8 9 11 12 13 14 14 15 16 18 20 22 23 26 27 31 34 37 40 44 47 49 52 54 55 59
24 22 20 19 17 16 14 13 12 10 10 11 12 13 13 13 12 12 13 14 15 17 18 19 20 21 22 24 26 27 28 30 33 36 38 44 48 51 52 55 53 56 59
22 27 28 25 23 23 22 22 21 21 21 21 21 21 20 20 19 20 20 19 21 22 22 23 23 24 26 27 27 28 27 31 37 40 44 48 52 49 55 59 59 60 64
22 22 26 31 32 32 30 30 30 29 29 29 28 27 25 25 25 25 23 22 23 23 23 24 25 25 26 27 29 34 36 39 42 46 49 50 54 50 48 54 57 64 69
26 28 30 30 28 30 30 30 30 30 29 29 30 28 27 28 28 28 27 27 27 26 26 27 25 26 29 32 35 39 43 45 46 52 55 55 56 57 59 61 62 59 64
28 30 31 30 32 33 33 33 32 30 30 30 30 30 30 29 29 29 29 30 29 28 27 26 29 31 34 38 41 44 47 49 51 54 56 56 53 57 60 56 61 63 61
31 32 33 31 29 31 29 30 31 31 32 32 31 32 30 28 29 29 29 30 31 30 29 32 35 38 39 41 40 43 44 42 47 57 61 58 64 61 60 57 57 59 62
39 37 34 35 35 32 33 35 38 42 37 33 32 29 29 32 30 29 30 31 33 34 35 38 37 38 40 43 46 46 48 51 58 61 65 63 68 59 46 52 57 61 63
45 44 43 39 41 41 42 41 43 47 46 34 37 28 28 36 30 32 33 35 36 36 37 38 41 42 43 45 46 52 58 66 67 64 57 47 47 46 50 54 58 62 63
49 51 54 47 45 45 47 46 45 45 41 45 42 43 30 37 34 33 32 34 35 37 40 43 45 47 49 51 51 54 60 53 53 49 45 45 46 50 52 56 59 60 63
36 35 40 43 43 47 44 43 41 48 55 47 37 34 41 36 31 33 35 36 39 40 43 47 47 48 47 51 54 55 55 51 45 40 40 44 49 51 53 54 58 60 63
37 39 39 37 39 42 42 43 44 52 46 43 44 40 38 36 36 38 38 39 42 46 48 54 56 52 54 56 53 45 41 41 38 38 43 46 48 49 51 56 57 59 62
46 40 36 34 36 41 47 46 46 46 45 48 50 39 38 41 44 42 38 37 39 50 54 50 52 57 60 53 45 39 36 34 36 40 42 46 47 48 51 51 53 57 61

GFSGL_500_spd_006.txt.gz
Wind_Speed
3 10 11 10 11 13 19 22 12 12 13 12 13 14 17 17 15 16 17 19 21 23 21 22 25 30 30 26 26 27 28 25 26 22 20 17 9 8 7 5 5 7 6
9 8 10 10 12 12 18 21 15 12 16 15 15 16 19 20 19 18 17 17 18 21 21 15 21 24 22 34 24 28 28 21 17 15 15 12 11 6 4 6 6 6 5
12 11 12 12 13 13 14 20 13 12 13 18 19 20 22 20 21 20 21 14 18 17 25 15 23 19 24 29 24 21 17 16 13 11 10 5 4 5 7 6 6 8 8
11 11 12 13 14 15 12 16 22 17 13 12 11 16 21 20 17 17 24 21 19 19 22 16 21 28 27 20 21 19 10 13 11 10 7 7 8 7 5 7 8 10 13
10 9 9 9 10 13 12 13 16 18 13 11 16 17 19 18 15 16 19 16 16 19 29 29 20 20 20 20 21 16 10 9 10 9 9 7 6 6 6 9 13 18 22
8 8 7 9 10 11 11 8 10 16 17 14 17 16 14 12 14 13 16 18 12 13 18 23 20 22 23 18 15 15 15 14 12 9 7 5 4 6 12 18 22 25 27
6 7 8 8 9 10 11 11 11 16 19 19 13 12 12 13 15 15 16 16 14 17 16 18 17 18 18 17 14 11 9 7 5 4 6 10 12 17 19 23 26 28 29
6 6 8 9 9 10 13 15 16 17 17 19 19 17 19 21 19 19 19 18 19 18 17 18 19 17 14 13 13 11 9 8 9 10 12 16 19 19 21 24 24 25 28
4 5 8 11 13 13 13 13 13 14 16 14 13 14 15 16 16 15 15 15 16 17 17 16 15 15 13 11 10 7 6 8 10 13 16 18 20 21 22 23 26 29 32
3 5 7 11 13 14 14 12 10 10 13 13 14 15 13 11 10 11 11 10 10 11 11 11 10 9 8 7 6 7 9 12 14 15 16 19 19 20 23 27 32 35 39
3 6 7 8 11 12 12 12 11 9 8 7 8 8 7 10 11 8 5 3 3 4 5 6 5 6 7 7 9 10 13 14 16 16 17 19 22 24 27 33 37 41 45
3 6 7 6 7 9 9 7 6 6 7 6 6 6 7 6 6 5 5 5 5 5 6 8 10 9 8 9 10 11 13 14 15 18 20 24 26 28 31 36 39 44 48
8 7 7 7 6 6 6 4 4 5 6 6 4 4 4 4 5 5 5 4 4 3 2 2 7 10 11 11 12 13 15 17 20 23 26 28 31 34 37 40 46 49 50
11 10 9 9 9 7 7 6 4 3 2 1 1 2 3 5 6 5 4 4 4 4 5 7 9 11 13 15 16 18 20 22 25 27 29 31 34 39 44 46 51 53 53
14 15 13 12 11 11 10 9 7 5 3 2 3 5 7 9 9 11 11 11 11 12 13 14 15 16 17 18 19 20 21 25 26 28 32 36 40 44 49 54 57 60 58
17 18 19 18 17 17 16 15 14 13 12 13 14 15 15 15 16 17 17 17 18 17 17 17 17 18 19 20 21 19 20 26 30 33 37 42 46 50 50 50 54 57 59
20 20 20 23 24 22 22 22 22 23 22 22 23 23 22 22 20 21 20 20 21 20 20 21 21 22 23 24 22 22 26 31 35 38 42 44 45 42 50 58 63 63 67
22 22 21 21 22 26 28 30 31 31 30 28 28 26 24 23 22 24 24 24 23 23 24 25 25 23 25 23 27 32 34 36 38 41 43 44 45 53 61 67 71 72 71
31 25 23 24 25 26 27 27 28 28 27 26 26 27 26 24 25 25 26 26 25 24 25 25 26 24 27 30 33 35 36 39 41 45 45 48 52 60 64 71 76 71 58
35 32 28 27 26 27 27 28 30 31 29 27 26 26 27 28 27 27 27 26 27 28 27 24 26 28 30 34 36 37 40 42 44 47 52 56 58 66 75 64 53 50 53
30 35 32 30 30 26 27 30 29 29 30 28 30 33 40 35 31 28 30 30 29 30 28 29 31 34 36 37 39 42 46 46 47 49 52 53 60 67 61 47 51 51 53
33 34 35 34 35 35 34 33 33 33 35 35 40 37 38 42 38 32 34 33 31 31 31 33 32 34 37 40 43 47 50 51 49 52 56 65 68 59 51 49 50 54 58
36 41 41 40 41 42 46 41 32 39 42 44 45 41 41 39 41 37 40 24 30 33 32 33 35 38 41 43 46 53 53 54 52 55 59 54 49 50 49 49 52 55 56
31 33 38 41 38 37 42 40 43 47 48 45 45 44 44 41 41 44 27 28 31 34 34 36 38 37 35 41 50 59 55 56 58 58 51 47 45 46 47 49 52 54 55
31 33 32 34 33 29 31 32 38 42 45 45 43 45 42 39 48 28 27 31 34 32 37 36 36 38 43 46 45 46 55 59 59 44 41 43 42 43 45 49 52 51 52
36 40 43 40 36 31 33 34 34 36 42 43 45 45 46 42 40 41 39 37 35 38 44 48 40 40 50 42 46 54 53 44 39 40 41 38 39 42 46 48 49 50 52

GFSGL_500_spd_009.txt.gz
Wind_Speed
7 9 10 11 14 22 19 16 18 18 14 15 17 19 17 16 15 15 20 19 20 21 21 22 23 18 22 19 24 28 20 21 19 24 19 19 18 16 15 14 12 14 13
12 11 11 11 12 19 21 18 18 19 20 15 18 19 19 19 19 18 19 19 20 22 21 19 20 17 17 23 16 24 19 20 20 22 22 19 14 15 16 12 12 10 8
12 11 13 14 14 18 22 19 18 18 20 19 21 20 20 19 19 18 20 19 17 19 17 14 22 21 21 25 28 32 23 23 28 23 19 19 17 15 12 11 11 8 9
10 11 11 14 15 18 18 18 13 15 14 20 18 20 20 20 20 16 13 14 12 13 21 14 15 24 23 21 22 27 28 24 22 21 18 15 14 14 13 10 9 9 11
8 9 10 10 14 13 16 17 16 14 16 15 21 19 22 20 20 17 17 19 15 16 19 15 12 21 23 30 23 24 25 22 21 17 15 13 12 11 9 8 9 11 14
7 9 10 11 12 12 14 17 19 22 23 18 17 17 19 22 20 15 16 19 24 27 26 28 20 23 17 23 22 20 18 18 16 14 12 8 8 7 8 8 9 14 20
8 8 8 9 11 14 15 18 21 20 16 14 13 16 18 19 23 20 12 17 17 20 18 16 18 22 21 19 18 16 15 13 13 12 10 9 7 7 8 9 15 19 25
8 8 8 9 14 17 17 18 21 22 23 24 23 23 22 19 18 17 13 17 15 17 21 22 26 24 20 19 18 17 14 12 10 7 5 4 6 10 14 15 18 23 29
7 6 8 11 14 16 16 15 15 16 19 20 20 20 20 20 19 18 18 20 18 18 18 20 19 18 16 15 14 12 10 7 5 3 5 8 11 13 17 19 22 24 28
9 7 7 9 12 14 15 17 17 16 15 17 17 17 16 16 16 16 15 15 15 16 14 14 15 14 13 12 8 7 5 6 7 8 10 10 12 17 20 20 23 28 32
11 10 8 9 9 9 11 13 13 13 14 15 14 12 12 13 13 13 12 11 12 11 11 10 8 6 5 4 3 6 7 7 9 11 13 14 17 19 22 25 28 33 39
11 11 10 10 10 9 7 6 6 8 10 11 13 13 13 11 9 9 9 9 7 6 5 3 2 1 2 2 4 7 7 9 13 15 15 17 20 23 27 31 33 36 39
10 11 11 10 10 10 8 5 5 7 10 10 10 11 11 11 11 11 10 9 9 7 4 1 3 6 8 8 8 10 13 15 17 18 21 23 26 28 30 33 38 42 46
12 11 12 12 11 10 9 9 9 8 7 7 7 8 8 8 8 7 6 5 3 2 3 4 6 8 10 11 12 15 17 18 20 23 25 26 28 31 36 40 43 46 46
12 14 13 13 13 12 10 9 9 9 8 6 5 4 4 5 4 4 4 4 4 5 6 7 9 10 12 12 13 15 15 19 23 24 24 27 31 35 38 40 45 47 44
14 14 16 16 15 15 14 13 12 11 9 6 4 6 7 9 10 10 10 10 9 9 11 12 13 14 14 15 15 16 21 22 22 24 27 31 35 39 43 44 47 48 52
20 18 17 19 18 17 16 16 16 15 14 13 13 14 16 18 17 15 14 14 13 14 16 16 17 18 18 17 19 21 23 22 25 28 31 34 39 41 45 47 52 57 57
21 20 20 20 19 21 22 21 21 19 19 21 21 19 16 15 19 20 20 18 18 19 20 20 21 20 19 23 25 24 24 26 28 31 35 39 43 45 47 49 51 57 62
23 23 22 18 19 20 19 20 19 20 19 20 19 19 18 19 20 21 23 24 24 23 23 24 20 20 23 25 26 26 28 31 32 34 39 43 45 48 51 52 56 62 56
24 25 28 27 26 23 22 21 21 21 21 21 20 20 21 22 20 20 23 25 27 28 28 23 23 26 28 28 29 31 33 34 36 40 43 43 48 52 54 57 58 57 49
26 26 30 33 32 30 24 22 21 23 21 22 23 23 24 26 27 24 25 30 34 35 31 23 29 30 30 30 31 32 34 35 38 41 48 52 50 53 55 56 54 48 48
28 27 27 32 34 35 34 29 28 29 31 30 26 27 31 33 28 28 28 33 35 33 33 36 36 34 31 30 32 32 30 31 37 43 48 49 51 54 56 49 45 44 47
25 26 27 28 30 32 34 34 34 34 35 33 37 34 33 36 39 33 29 34 38 40 39 31 33 35 35 34 32 32 30 37 44 43 45 46 53 53 40 41 43 44 45
27 27 26 26 28 31 34 37 39 38 37 37 36 34 37 38 41 37 31 32 35 37 28 24 30 38 34 33 33 36 36 38 41 39 46 52 46 36 42 41 40 42 44
31 31 30 30 31 30 29 27 27 30 32 32 29 29 31 33 32 31 31 33 36 34 33 33 35 38 42 43 42 38 41 40 40 43 45 39 37 40 39 37 39 40 43
37 37 37 35 33 32 31 32 31 32 33 30 27 27 28 30 31 32 35 37 38 42 42 36 40 42 44 45 44 38 35 38 41 42 36 38 42 40 36 36 37 40 44

GFSGL_500_spd_012.txt.gz
Wind_Speed
7 9 9 10 14 14 14 15 15 14 13 14 16 15 15 16 17 18 19 21 25 27 25 22 21 20 21 23 14 14 25 21 19 23 28 27 26 24 24 20 17 18 16
8 10 11 10 13 16 12 14 14 15 15 16 17 17 17 16 16 20 20 21 22 23 24 23 21 19 16 19 17 17 17 14 24 23 19 24 26 24 20 19 20 18 15
8 12 13 13 12 16 13 12 14 17 17 18 19 17 17 17 19 20 20 21 20 19 21 20 21 17 20 12 19 23 19 13 23 23 23 27 24 21 20 19 16 12 12
9 9 10 11 12 16 15 10 11 14 16 18 18 17 17 17 17 17 18 18 20 20 17 19 21 19 13 17 16 17 18 16 21 21 25 26 26 25 17 13 14 13 13
7 9 9 10 12 14 13 12 16 16 16 20 15 16 17 15 16 17 17 14 16 18 19 17 17 16 16 14 15 19 15 18 21 27 26 25 21 18 16 16 14 14 12
7 9 10 8 10 15 16 21 20 19 20 20 17 21 18 13 13 15 13 14 14 15 18 14 19 20 12 17 21 24 24 29 26 24 19 18 18 18 15 13 13 11 11
6 8 9 9 12 16 17 17 15 14 17 19 20 19 19 12 12 16 18 21 26 18 20 21 24 32 28 28 29 28 26 21 16 18 18 17 14 13 11 9 9 10 13
8 10 12 13 14 17 19 20 21 25 23 21 19 20 19 18 18 17 18 16 23 23 19 22 27 27 26 26 26 23 21 20 19 16 14 11 10 8 6 9 12 17 19
7 10 13 14 13 13 14 17 19 21 22 24 24 24 23 23 22 23 22 19 21 20 22 24 23 23 21 19 18 17 16 14 11 9 8 6 6 8 11 14 16 21 24
6 8 11 12 13 13 13 15 17 18 19 19 20 21 19 19 19 21 24 21 21 20 20 18 19 16 17 16 14 12 9 6 5 3 4 6 9 11 15 18 20 24 27
6 7 10 10 12 13 13 14 14 14 16 17 18 17 17 15 16 16 18 17 17 16 16 15 14 12 10 8 5 4 4 5 5 7 10 11 13 14 18 21 24 28 30
8 8 8 8 10 12 12 10 11 11 11 14 16 16 15 14 13 12 12 11 10 10 9 8 7 6 5 4 3 4 6 7 9 12 13 14 16 19 24 28 29 32 34
12 10 9 9 8 8 10 11 11 13 15 15 15 15 15 15 14 15 14 12 10 8 7 6 4 3 4 5 8 10 10 10 12 15 17 19 21 25 28 29 30 34 37
13 13 12 11 10 10 9 10 12 12 12 12 13 13 13 12 11 10 9 8 6 4 2 1 1 3 6 8 11 12 13 15 18 21 22 22 23 26 28 31 35 38 41
12 14 14 13 13 12 11 11 12 12 11 9 10 9 7 6 5 4 2 1 2 3 4 6 7 9 10 12 13 13 17 20 22 23 23 23 25 27 30 34 37 40 43
14 13 15 16 15 14 13 13 13 13 12 10 6 3 1 3 5 6 6 6 7 8 10 11 11 12 13 13 15 19 22 22 23 24 22 25 29 31 33 36 39 43 45
19 16 15 18 19 17 17 16 16 15 14 12 11 9 10 11 11 11 11 11 12 13 15 16 16 17 17 18 22 23 24 24 23 23 26 29 31 33 36 39 40 46 46
20 20 20 20 19 21 21 21 20 18 18 17 17 17 18 17 14 13 12 12 14 16 18 19 19 18 19 22 26 26 25 24 25 27 29 31 32 35 37 41 44 45 45
21 21 22 22 21 20 20 20 20 20 21 21 20 18 18 18 18 19 18 15 15 18 18 19 19 19 23 27 27 27 25 26 28 29 31 33 34 37 37 43 45 45 49
21 21 22 23 24 21 20 20 19 19 19 19 18 19 20 20 21 23 21 21 20 19 21 22 22 22 26 30 31 30 30 31 32 32 31 33 34 37 41 42 43 50 49
21 23 24 24 24 26 26 26 26 21 20 19 19 18 20 22 23 24 25 23 27 26 24 25 28 26 33 35 36 36 37 35 32 32 30 34 37 42 41 39 44 47 42
22 23 25 29 28 28 30 32 31 29 26 24 23 23 25 26 28 29 29 25 28 29 31 32 31 28 30 41 45 43 40 39 38 35 35 35 39 44 40 40 45 45 43
23 23 23 26 29 27 24 27 31 33 33 30 29 30 32 33 35 30 34 31 33 36 32 31 30 32 34 35 35 35 34 35 39 41 37 38 36 39 40 46 46 40 43
23 22 23 23 25 27 28 30 30 30 32 34 36 36 35 36 39 38 35 37 37 37 28 30 35 32 30 26 31 31 41 45 46 47 46 35 38 38 41 47 41 44 40
28 27 25 24 22 22 25 27 29 29 29 31 33 32 31 32 32 30 32 36 35 36 36 35 36 37 38 37 33 36 40 41 47 46 38 37 42 42 44 40 42 41 39
33 35 35 33 32 32 32 31 31 31 32 32 32 32 30 30 30 29 29 30 31 33 34 35 36 37 41 43 42 45 48 51 51 41 38 37 39 42 39 40 40 38 38

GFSGL_500_spd_015.txt.gz
Wind_Speed
8 7 10 10 16 9 11 12 9 9 12 11 12 15 16 20 17 20 21 22 22 22 20 18 18 9 14 7 20 24 25 22 25 25 22 26 28 27 27 20 17 18 19
6 9 10 9 15 10 12 15 12 10 11 12 14 13 14 18 18 20 20 17 22 26 24 21 18 17 17 14 13 18 27 14 18 25 31 28 24 24 26 21 20 21 20
5 7 9 11 12 9 12 12 14 12 12 14 14 13 12 14 16 17 20 20 21 26 25 22 20 15 13 16 11 13 17 10 12 25 28 24 24 24 28 23 22 19 17
6 4 8 9 11 12 10 10 11 11 10 12 15 14 13 14 17 16 19 20 21 21 20 19 17 17 13 14 12 8 13 14 23 23 21 23 25 25 22 20 18 15 14
5 5 6 9 11 12 10 10 14 13 12 12 14 15 14 14 17 17 17 18 19 20 20 17 15 15 15 13 10 5 11 13 22 19 24 26 25 22 19 18 17 15 11
6 6 6 9 12 15 15 16 13 13 13 15 15 14 14 12 14 14 18 18 19 16 15 18 19 18 14 15 15 15 11 16 23 27 26 25 24 23 17 15 13 11 9
6 4 8 11 11 12 9 8 12 12 11 16 13 12 9 9 11 6 10 14 16 16 20 17 18 18 14 15 14 20 13 15 24 26 28 27 21 17 15 13 10 9 11
6 6 12 14 13 15 16 15 13 14 14 12 14 11 16 18 21 19 23 22 21 19 24 23 23 19 13 18 19 17 25 24 21 19 16 13 13 16 14 11 11 9 11
6 7 10 12 11 13 15 17 18 18 17 17 21 19 15 20 19 18 22 22 21 23 22 32 28 28 25 27 26 26 21 15 15 16 15 13 12 10 10 9 9 12 15
4 7 7 9 9 11 13 14 16 16 18 20 18 20 23 24 24 22 20 16 22 25 25 23 23 22 21 19 18 17 16 14 13 11 9 9 8 5 8 10 12 16 20
3 6 8 9 10 11 13 14 14 15 15 16 17 16 19 19 21 19 20 21 22 22 22 20 18 17 16 15 13 11 7 6 5 5 5 6 7 8 11 14 18 22 25
5 5 7 9 10 10 10 10 11 11 10 12 13 15 16 16 16 16 15 15 16 16 17 15 12 11 9 7 7 5 2 1 3 5 7 9 10 12 16 20 23 24 26
8 6 6 8 9 8 8 10 11 13 14 14 14 15 14 13 13 12 11 10 11 11 10 8 6 5 4 2 0 1 3 5 6 10 12 14 15 18 20 22 23 26 29
6 9 8 6 8 10 10 9 13 14 14 15 15 15 15 15 14 13 12 11 10 9 7 6 4 2 1 2 4 6 8 12 14 15 17 19 20 22 23 23 27 30 33
8 9 10 9 8 9 9 11 13 13 13 12 13 12 11 10 9 7 6 4 3 2 2 2 3 5 6 7 8 11 15 17 17 19 21 22 24 25 24 27 30 33 35
11 10 12 11 11 11 11 13 13 13 11 13 12 9 5 3 2 2 3 4 5 6 7 8 9 10 10 11 14 18 20 20 21 23 24 26 26 27 29 31 33 35 37
17 14 14 13 14 14 14 13 13 12 12 13 13 9 6 6 7 8 8 8 8 10 11 11 11 13 14 15 19 23 24 24 25 25 27 28 29 31 32 34 36 39 42
20 19 17 16 17 18 18 18 17 16 16 15 15 15 15 16 16 16 13 11 11 12 14 14 14 15 16 19 23 25 26 26 27 28 30 32 33 34 35 35 36 38 38
18 19 20 21 20 20 21 22 21 21 20 21 20 21 22 22 19 15 13 17 18 16 14 13 12 15 19 25 26 27 28 29 30 32 33 34 36 36 34 37 37 40 43
18 19 21 24 24 25 22 21 22 23 23 23 22 22 21 21 18 17 17 18 18 20 19 18 22 22 20 19 22 27 29 34 35 38 37 38 39 38 38 37 40 41 42
19 21 22 23 23 24 26 23 22 23 22 21 22 23 21 20 17 15 17 19 21 23 25 25 25 26 27 27 27 25 27 33 41 43 41 39 40 39 40 41 46 42 46
23 23 24 24 25 24 24 25 27 26 26 26 26 25 24 23 24 22 21 23 29 30 29 32 31 33 35 33 30 30 31 30 33 39 48 48 43 42 40 44 42 43 44
28 27 26 26 26 28 29 29 27 26 28 29 30 29 30 29 30 30 29 30 35 34 32 36 36 37 42 44 39 31 31 31 34 34 38 45 52 55 50 47 45 47 42
31 29 29 26 26 27 28 29 30 28 26 27 29 31 32 34 33 33 36 37 38 38 37 38 39 42 45 36 35 41 40 40 39 42 43 46 48 51 56 45 42 40 46
35 31 28 25 24 24 24 24 26 27 27 27 27 28 32 35 36 36 36 36 35 35 33 34 35 37 38 41 41 41 41 43 40 46 48 49 56 48 39 34 42 49 48
34 32 28 26 26 27 25 25 25 25 26 28 30 32 34 36 35 35 34 35 37 39 38 38 38 38 41 43 44 43 43 47 48 49 52 56 46 35 38 42 48 51 50

GFSGL_500_spd_021.txt.gz
Wind_Speed
12 12 14 15 15 13 13 8 8 10 8 10 11 12 13 15 17 20 18 15 15 15 13 15 17 16 18 18 20 22 27 23 20 16 14 21 19 21 21 21 20 22 20
13 12 13 15 13 9 10 8 9 11 9 9 13 10 11 10 13 16 15 17 17 15 16 11 11 9 10 15 23 25 28 19 22 17 18 18 17 18 20 21 22 18 18
12 11 12 14 11 7 8 8 10 11 10 7 9 10 7 9 11 11 18 15 17 18 11 14 16 12 19 18 22 22 24 17 17 13 9 18 18 21 22 27 18 17 21
10 10 11 11 8 10 11 9 8 10 9 7 6 8 9 9 14 16 17 19 17 17 15 14 9 10 21 21 24 22 20 14 18 16 21 18 22 22 20 23 17 18 21
8 9 9 10 13 11 14 10 9 10 10 9 7 4 8 12 15 16 17 17 15 13 11 13 12 12 17 20 18 14 15 15 16 17 22 25 25 22 17 19 20 18 18
8 8 8 7 10 8 10 12 13 14 13 9 7 6 8 9 12 15 15 16 16 12 10 10 12 13 12 15 20 11 10 14 17 22 27 23 23 19 14 20 21 21 9
10 9 11 10 9 8 11 10 12 11 9 9 5 6 9 11 12 14 14 14 15 14 13 12 13 12 14 14 11 9 11 19 26 19 19 22 21 18 22 21 18 7 5
9 11 12 13 14 14 13 13 11 10 10 14 14 10 9 9 10 12 14 14 15 15 13 13 12 10 11 12 13 12 15 18 17 16 18 21 21 18 15 10 7 4 3
7 10 11 11 13 16 18 17 16 15 12 16 18 21 17 10 9 12 17 17 14 12 13 16 11 11 11 13 15 14 17 17 18 21 22 22 20 15 9 7 5 7 10
6 9 10 10 11 13 17 17 16 16 19 17 18 17 19 22 19 15 13 17 17 13 11 17 13 12 11 16 18 17 18 18 20 20 17 10 9 6 5 7 10 12 14
5 7 9 9 11 12 13 13 13 13 16 20 23 21 18 18 19 20 18 21 18 14 15 15 13 12 15 17 17 16 15 14 14 10 9 8 7 8 9 11 13 13 14
5 5 7 8 8 9 10 10 11 12 13 16 18 22 26 27 27 27 25 19 20 23 26 26 24 23 20 18 18 17 14 12 9 8 8 8 8 9 10 12 13 15 18
5 4 5 6 5 6 8 8 9 10 11 13 15 17 19 21 22 22 23 23 21 21 21 20 19 18 16 15 14 12 11 10 9 6 5 5 5 7 10 14 16 18 21
4 6 6 6 5 5 8 11 11 13 15 16 18 20 21 20 19 19 18 17 16 16 15 14 13 11 9 8 7 6 5 3 2 3 4 5 7 10 14 17 20 23 25
5 6 6 7 8 7 8 11 11 13 14 15 17 18 19 19 19 18 16 15 13 12 11 9 7 6 4 3 2 2 3 3 4 5 7 10 12 15 18 21 23 25 27
7 7 7 7 8 10 8 11 12 12 11 11 13 13 13 13 13 12 11 8 6 5 4 3 2 1 2 4 6 7 8 9 9 10 12 14 16 19 22 25 27 28 29
13 10 9 8 9 10 11 10 13 12 10 10 9 7 6 5 5 5 5 6 5 0 2 2 2 5 7 8 8 9 10 13 14 15 16 18 20 22 24 25 27 28 31
13 15 13 11 11 11 12 11 11 12 12 11 11 10 8 6 4 5 7 9 8 4 4 6 8 10 12 12 11 11 15 14 16 17 19 23 24 24 26 27 28 29 35
17 16 17 17 15 14 13 12 13 14 14 13 13 13 13 12 11 11 12 11 8 8 8 9 10 11 13 13 15 17 19 20 21 22 24 26 29 32 33 35 37 38 42
22 22 20 20 20 18 17 15 14 15 17 17 18 18 17 16 16 15 13 11 12 13 12 12 12 11 11 14 19 23 24 26 28 29 32 34 35 41 41 36 36 41 43
25 25 23 22 21 21 22 20 20 19 19 19 21 21 20 20 19 16 15 16 17 17 14 14 15 15 16 22 25 21 26 28 30 31 29 32 39 44 38 34 38 44 45
27 27 28 26 24 23 23 24 25 23 23 22 23 23 22 20 19 18 18 19 21 23 24 23 23 23 24 24 26 27 28 29 29 33 33 35 33 34 36 38 39 45 40
35 31 31 31 28 26 26 26 25 24 24 25 26 25 24 24 24 26 26 26 26 27 28 28 29 28 29 29 30 29 27 27 28 30 31 34 37 41 43 42 46 50 50
37 34 32 33 34 34 31 28 28 28 27 26 26 26 27 27 29 31 33 34 33 33 33 33 33 32 31 31 29 28 27 28 31 34 36 38 43 43 42 45 49 49 53
34 36 37 36 34 36 35 32 30 28 29 29 29 30 31 32 31 31 32 32 32 33 34 34 32 32 31 31 30 31 32 34 35 36 37 41 43 45 42 46 46 50 52
39 40 41 45 42 36 39 35 34 33 30 30 31 31 31 32 33 34 34 33 31 30 32 33 32 32 31 31 33 36 37 38 39 40 44 44 43 43 45 44 47 48 46

GFSGL_500_spd_024.txt.gz
Wind_Speed
11 10 11 13 15 9 11 6 7 8 9 10 8 8 10 15 16 14 8 5 11 11 11 12 15 16 17 19 20 21 21 16 15 18 20 21 32 26 30 24 27 25 21
11 11 9 13 10 8 7 6 6 8 10 14 9 8 8 14 14 13 9 11 9 13 11 19 15 16 17 18 13 18 17 18 14 14 21 24 22 22 21 23 22 24 21
10 6 9 8 8 8 5 6 7 7 9 11 11 9 9 9 11 12 12 13 13 13 11 14 13 16 10 13 16 19 15 11 14 14 15 18 22 27 24 19 25 24 24
7 7 7 6 12 8 7 7 7 7 8 9 7 5 6 9 9 13 12 15 12 13 13 13 13 13 11 16 16 23 10 14 12 15 15 19 17 19 23 24 25 23 24
5 5 5 9 9 10 10 8 8 8 8 7 7 7 6 10 11 14 16 13 10 9 9 8 13 16 13 18 18 15 15 11 13 8 15 19 19 17 21 22 18 20 18
5 4 4 5 7 8 9 11 10 8 8 7 5 8 10 10 13 15 15 13 12 9 9 11 16 15 17 17 16 10 14 12 17 13 14 17 22 18 21 17 16 14 14
6 8 8 7 8 9 8 8 7 7 5 4 7 9 12 11 13 12 13 13 13 11 9 11 8 12 13 15 13 6 9 13 16 21 19 26 22 18 16 18 18 16 8
5 8 11 12 11 10 10 9 8 9 10 9 10 12 11 13 14 13 13 13 15 12 12 13 12 14 13 13 12 9 11 18 19 27 20 28 19 19 18 19 18 12 9
6 8 10 12 14 13 13 14 14 12 15 18 12 9 10 11 13 13 13 13 14 13 13 13 11 10 14 12 12 16 18 19 15 22 22 29 23 22 20 12 9 6 8
5 9 10 10 13 15 15 17 18 14 13 15 17 18 8 7 15 16 16 16 15 13 14 12 11 10 11 12 11 14 13 15 20 21 27 25 22 13 10 8 9 7 8
4 6 10 11 12 12 13 14 17 18 18 14 13 15 17 18 17 17 17 17 13 13 13 14 12 10 15 16 15 12 14 18 21 21 13 10 9 8 6 6 8 10 12
6 5 8 9 10 11 11 11 14 16 17 21 25 25 27 28 24 19 19 18 15 13 16 15 13 21 24 25 23 21 18 17 15 12 10 7 5 5 6 9 11 13 15
7 5 6 8 7 8 9 9 11 14 16 16 19 20 22 24 28 32 32 30 28 28 29 27 25 25 23 21 20 16 15 13 10 7 5 4 4 6 8 11 13 15 17
8 7 6 6 7 10 12 14 13 14 15 17 17 18 20 20 21 21 21 21 21 20 20 20 19 17 15 14 12 11 9 7 6 5 5 5 6 8 10 13 16 19 21
10 8 7 6 6 9 12 14 15 16 17 18 21 22 22 22 21 20 19 18 17 17 16 14 12 11 10 8 6 4 3 2 2 4 5 7 9 11 14 16 19 21 23
10 12 10 8 8 8 10 11 13 15 14 16 19 19 18 18 16 15 13 11 10 9 8 8 7 5 4 2 2 2 1 3 5 7 9 11 13 15 17 20 22 24 26
12 10 12 11 10 10 10 11 12 11 12 13 12 11 11 10 8 8 8 7 5 3 3 2 1 1 2 3 3 3 3 6 6 8 10 12 15 17 21 23 26 29 30
16 14 13 13 13 11 11 11 12 12 11 10 8 7 7 4 1 2 3 4 2 3 4 3 4 5 7 7 5 5 5 9 11 11 13 15 16 18 20 22 28 31 32
17 17 17 15 14 14 14 13 14 13 12 12 11 10 10 9 8 7 8 8 5 5 7 8 7 7 6 6 7 8 11 14 16 18 20 21 22 24 23 31 33 32 31
19 20 19 20 18 16 16 17 17 16 16 16 16 15 14 14 13 13 13 13 11 10 10 10 10 9 8 8 9 12 16 14 17 22 24 26 27 30 31 30 29 31 34
19 20 22 23 20 20 20 20 21 20 19 19 20 18 17 18 18 18 18 17 15 14 13 13 12 11 12 15 17 19 19 21 23 25 25 25 25 25 27 28 32 36 38
21 21 21 20 23 24 23 24 25 24 23 23 23 21 21 19 20 20 20 18 17 16 16 16 18 20 21 22 23 23 24 24 25 24 24 24 25 28 32 35 36 36 36
25 24 24 24 21 23 26 26 27 28 28 27 27 26 25 25 24 24 24 23 23 23 24 23 24 26 27 27 27 27 26 27 26 25 26 28 30 32 34 36 41 39 39
29 29 29 29 27 25 26 27 27 29 30 31 31 30 29 29 28 28 27 27 27 28 27 26 27 27 28 27 27 27 27 27 27 29 30 32 32 34 36 38 40 40 41
31 29 30 29 29 29 27 30 31 31 33 34 35 34 33 32 33 32 32 31 31 29 27 26 26 27 26 26 27 27 30 32 32 31 31 34 36 40 41 42 42 42 43
34 32 31 31 32 28 28 29 31 35 36 37 39 38 38 37 35 37 36 35 34 33 32 30 28 29 28 28 29 32 34 34 36 36 38 36 38 41 42 42 43 46 46

GFSGL_500_spd_027.txt.gz
Wind_Speed
11 12 11 13 14 6 5 4 3 3 7 3 4 5 7 8 5 1 4 3 5 3 8 11 11 11 10 10 13 16 17 20 24 22 23 20 23 20 25 23 20 25 25
11 11 8 11 4 2 3 4 2 4 8 5 2 5 7 8 7 5 5 3 8 9 8 8 12 13 14 19 20 17 10 17 11 12 17 24 22 21 23 23 27 23 25
11 7 8 3 2 2 3 3 3 4 7 7 6 6 5 5 5 2 4 10 13 14 14 14 10 9 13 13 7 15 13 11 15 20 21 26 23 19 23 18 21 19 19
7 5 4 2 3 3 3 4 5 5 6 8 6 4 5 4 6 8 9 13 13 16 16 12 13 7 8 12 14 13 9 16 19 20 22 22 22 22 20 17 18 22 18
3 4 2 3 3 5 6 6 5 5 5 7 7 5 4 4 10 10 11 11 10 8 9 9 12 9 14 14 13 11 14 16 17 17 18 20 20 21 14 18 22 22 20
2 6 5 2 2 4 5 6 7 5 4 5 5 8 8 8 13 13 12 7 7 11 12 13 15 11 14 13 10 11 10 11 13 16 18 18 16 16 19 20 19 17 16
4 6 5 2 3 4 4 3 3 2 2 5 6 10 9 11 15 12 11 9 8 10 12 11 12 14 16 15 12 10 9 14 13 17 18 20 17 19 17 16 14 14 14
5 6 8 5 5 5 4 3 3 4 3 7 10 10 10 10 15 9 8 8 10 10 10 10 10 11 12 8 5 11 12 13 17 16 21 20 19 18 18 14 13 14 14
5 5 8 9 10 10 8 7 6 9 10 7 8 9 9 12 14 11 11 12 11 11 10 9 11 12 9 8 7 11 14 17 23 21 25 22 22 12 15 15 14 7 8
7 5 8 11 10 13 13 11 8 8 10 11 8 7 15 13 14 16 15 13 11 11 11 9 10 12 12 9 15 16 15 13 21 17 22 21 20 15 13 9 6 4 4
7 7 8 10 10 11 11 12 14 10 6 7 7 8 12 20 17 16 17 16 13 11 11 10 9 11 12 14 12 10 11 17 19 18 19 17 12 7 7 4 0 4 7
8 7 7 9 10 10 11 10 13 17 16 16 14 15 18 18 19 19 17 15 13 13 12 11 16 18 18 16 14 13 14 16 18 15 12 11 8 5 2 2 5 9 12
8 8 7 6 7 6 9 10 11 14 18 20 21 26 21 18 19 18 15 12 9 14 12 19 22 24 25 23 22 20 18 16 14 11 9 6 2 2 4 6 8 11 13
9 9 9 8 8 9 10 11 11 11 13 16 18 20 24 27 28 30 30 27 25 27 28 27 26 24 19 15 13 11 9 7 5 3 2 1 3 5 7 9 10 12 14
9 9 9 9 10 12 12 13 14 15 16 19 21 22 23 23 24 23 23 21 21 22 22 20 19 17 14 12 10 9 8 7 5 3 3 4 5 7 9 11 12 14 16
8 10 10 10 11 11 13 12 12 14 16 18 19 19 19 19 18 17 16 15 15 15 14 14 13 12 10 9 8 7 6 4 2 1 3 4 6 7 8 9 11 14 18
9 9 9 10 12 13 13 13 12 10 11 13 13 12 11 11 12 11 10 9 7 7 7 7 7 7 6 6 5 5 6 4 5 4 4 5 6 9 10 13 15 19 24
13 11 10 10 10 11 12 13 13 12 10 8 7 5 5 4 4 4 5 5 3 2 3 4 4 5 4 1 1 2 2 2 5 6 8 10 13 15 17 17 19 25 24
14 13 14 13 12 11 11 12 14 14 13 11 9 8 8 6 4 4 2 3 3 0 2 1 2 3 3 4 3 1 2 7 9 11 13 16 18 19 18 20 22 23 26
16 15 14 16 15 14 13 14 15 15 16 15 15 14 12 10 10 9 8 8 5 3 4 5 4 4 1 1 4 6 9 10 14 17 20 22 20 21 21 23 26 26 30
19 18 18 17 15 17 16 16 17 18 19 19 20 19 18 17 15 13 12 12 11 8 8 6 6 7 8 9 11 12 14 16 18 19 20 21 21 21 24 27 28 30 30
20 19 19 19 19 19 19 19 20 20 20 21 22 21 22 23 20 17 17 16 14 12 10 10 11 13 15 16 18 19 19 20 20 20 22 23 23 24 27 30 33 34 36
25 23 21 20 20 20 19 18 20 21 22 24 25 24 22 24 23 24 23 22 19 17 17 17 17 18 20 20 21 22 22 22 22 23 25 27 28 27 29 32 35 39 39
28 26 26 24 23 21 20 19 19 21 23 24 25 27 26 28 28 26 28 30 27 24 23 22 22 21 19 20 22 23 24 23 25 26 26 28 29 31 31 34 38 40 42
31 29 28 27 27 25 23 23 24 25 26 27 27 27 28 27 30 32 32 32 31 32 30 28 27 24 25 25 26 25 25 26 29 32 31 30 31 33 35 36 39 40 39
34 34 31 31 31 32 30 28 27 27 27 27 28 29 31 33 33 32 34 35 34 34 35 35 35 33 32 30 30 29 29 30 32 34 35 34 32 33 38 39 40 38 41

GFSGL_500_spd_030.txt.gz
Wind_Speed
14 15 17 18 15 17 10 8 6 3 2 2 1 0 1 3 7 13 13 8 6 3 5 10 9 9 6 5 6 9 13 15 19 23 25 25 24 22 20 21 30 29 20
14 15 16 13 13 12 7 6 4 3 4 2 1 2 3 2 4 13 16 5 6 3 2 3 5 12 10 11 9 5 14 19 18 18 20 20 23 24 23 22 19 21 19
14 15 14 11 11 9 5 4 3 3 5 3 2 1 1 1 5 7 12 9 10 10 8 8 7 9 7 7 13 11 8 11 20 18 24 21 15 17 20 19 20 21 18
13 11 9 6 6 4 4 3 2 3 6 6 6 5 2 1 5 7 13 12 14 11 10 9 8 7 8 10 11 12 10 9 16 19 23 23 23 25 22 17 19 15 19
8 7 6 8 7 4 3 3 1 1 4 6 6 2 3 4 6 7 10 8 8 9 12 14 11 14 16 16 13 15 18 18 19 23 28 24 24 23 19 21 22 22 20
4 7 7 8 5 2 1 1 1 2 3 4 6 5 4 7 9 8 6 7 10 16 12 13 13 17 16 15 16 18 17 21 23 27 27 25 24 22 19 17 20 15 13
4 6 7 2 3 3 3 3 5 6 4 6 4 7 7 9 10 11 7 7 7 14 14 11 14 16 17 13 10 17 19 25 25 23 21 19 16 16 17 17 19 12 9
3 6 5 4 3 2 2 3 5 5 4 4 6 9 8 11 13 10 7 6 6 10 15 13 13 12 13 11 13 13 17 21 24 25 22 19 24 22 20 14 12 10 9
2 6 6 7 7 7 4 0 2 8 7 6 7 7 8 12 12 10 7 9 7 8 12 13 12 9 8 9 14 17 16 21 23 23 20 21 21 18 15 10 3 5 12
4 5 7 7 8 10 9 3 2 3 7 3 4 8 9 12 12 13 12 11 9 8 9 10 11 12 11 13 17 18 17 19 19 21 21 19 17 13 10 8 11 11 7
5 5 5 5 7 8 11 11 6 3 5 5 5 4 15 14 16 15 15 11 9 8 8 10 10 11 15 18 15 14 19 19 18 21 18 12 9 16 18 12 7 5 2
6 6 5 5 6 7 10 12 13 14 15 9 8 8 17 15 14 13 13 11 8 8 7 9 12 13 16 19 18 17 20 20 18 14 16 19 18 12 9 6 3 3 6
6 6 5 3 4 6 8 10 12 13 18 20 11 13 16 16 14 12 11 11 10 9 9 13 15 13 15 18 19 18 18 22 20 19 18 14 10 7 5 5 5 5 6
6 6 5 5 6 7 8 8 9 11 14 19 25 27 18 16 12 6 6 12 14 9 14 17 21 22 21 22 21 19 19 18 16 13 11 9 7 5 4 3 4 5 6
7 8 6 7 7 9 10 10 10 12 14 19 22 24 26 25 23 21 24 27 26 28 25 23 21 16 16 15 13 14 13 11 9 7 6 4 4 3 1 1 3 6 9
8 8 8 8 9 9 11 12 13 14 16 19 21 22 23 22 21 21 22 21 19 18 16 15 14 12 11 11 10 9 9 9 7 6 5 4 2 0 2 4 7 10 13
6 8 9 9 10 11 10 10 12 12 12 13 14 13 14 14 14 14 14 14 13 13 12 12 12 10 9 9 9 10 10 10 8 7 6 4 2 4 7 9 11 14 16
8 7 9 9 10 11 12 10 9 9 9 8 7 6 7 8 9 10 9 8 9 9 11 10 9 8 6 7 8 8 7 3 3 2 3 6 9 10 12 13 14 17 19
10 10 9 9 10 11 11 12 12 10 9 6 5 3 2 1 1 3 4 5 4 5 6 5 5 6 7 8 7 6 4 2 3 5 8 11 12 12 13 16 16 20 24
13 13 11 11 10 11 12 12 12 13 12 11 11 10 9 6 5 2 2 3 3 2 2 1 3 5 6 5 3 0 3 6 8 10 12 13 14 14 15 16 20 21 22
15 14 14 14 11 14 13 12 13 13 13 14 14 14 13 12 11 8 6 6 4 3 3 4 4 6 7 8 8 9 8 10 10 11 13 15 15 17 20 21 22 24 27
20 18 17 16 15 15 15 15 15 14 15 17 18 17 17 14 13 13 14 14 11 7 7 7 7 8 9 11 13 14 15 16 16 17 18 18 20 20 21 23 28 30 31
23 22 20 19 18 18 18 18 18 17 16 16 16 16 20 20 18 17 17 17 17 17 14 14 15 15 16 16 17 18 18 20 21 22 21 23 25 24 22 24 28 32 36
26 25 22 22 22 21 21 20 20 19 19 18 18 15 18 21 21 21 21 22 23 22 21 21 21 21 22 21 20 20 22 23 24 24 24 26 27 28 29 29 30 33 36
28 27 26 23 23 23 23 22 23 23 22 21 20 20 19 19 20 22 22 23 23 23 25 26 25 27 27 27 28 27 26 27 28 30 31 30 29 30 32 34 35 37 38
32 31 31 30 26 25 26 23 24 26 25 25 25 25 24 23 23 23 25 26 25 26 27 27 28 29 30 32 31 32 31 30 32 34 36 39 38 37 36 37 40 39 41

GFSGL_500_spd_033.txt.gz
Wind_Speed
14 16 16 19 19 17 16 12 12 10 7 2 3 2 2 5 9 11 7 2 6 2 4 3 7 7 3 13 12 14 15 16 17 20 22 23 24 24 22 22 21 19 18
15 15 15 18 17 15 12 11 10 8 6 3 1 2 0 4 7 12 10 8 6 5 1 4 4 10 10 12 13 13 15 16 19 20 21 22 23 23 23 22 22 20 20
14 15 14 13 12 11 11 8 8 5 5 3 2 0 1 3 6 9 9 9 8 9 4 3 11 10 8 12 12 13 16 19 19 21 20 23 23 26 24 20 18 17 21
14 11 10 9 7 10 8 6 6 4 5 3 3 3 2 3 6 8 9 9 10 9 7 5 6 4 3 6 6 10 12 16 25 28 26 25 21 19 17 16 23 22 25
10 6 8 7 7 9 7 6 0 2 3 5 5 2 2 3 6 8 8 7 8 9 12 10 14 11 11 10 8 7 11 15 17 18 22 20 19 26 25 25 25 18 19
6 6 7 5 5 7 6 4 5 5 5 4 8 7 3 4 8 5 9 10 11 11 13 15 15 19 18 18 16 18 21 22 27 26 30 34 29 28 27 22 21 22 18
6 6 3 3 2 6 6 4 6 7 5 7 6 7 6 5 9 8 9 10 12 10 12 15 14 13 16 19 18 26 30 32 31 27 28 29 26 26 25 27 23 19 18
4 5 4 5 4 3 2 1 5 6 4 3 5 7 6 7 11 9 8 7 12 10 14 18 17 14 14 16 19 27 30 32 31 30 29 25 27 25 28 24 18 13 10
4 4 6 7 7 6 4 2 4 8 6 2 6 7 7 10 11 8 7 8 10 10 12 10 8 10 13 15 18 20 22 26 26 27 30 31 28 27 23 17 12 14 18
3 3 4 7 8 10 8 3 3 6 7 3 2 7 9 13 12 9 9 9 9 9 9 10 10 10 12 15 20 19 17 24 26 28 29 29 26 21 16 16 22 18 14
3 3 5 7 8 11 11 11 7 6 5 4 1 10 11 13 12 9 11 8 8 8 10 11 12 15 20 17 16 23 21 23 25 27 25 21 18 21 22 19 15 12 9
3 4 4 7 7 10 11 14 15 14 8 9 7 15 15 14 13 11 11 9 8 7 9 11 12 17 18 19 22 24 22 25 22 19 22 28 26 21 17 15 13 9 6
4 2 3 3 5 6 9 12 13 18 16 11 12 18 16 13 10 9 10 9 10 10 11 11 11 13 16 20 23 22 23 22 24 26 25 22 19 16 13 11 9 7 4
4 4 4 4 6 7 7 8 10 15 22 17 16 16 16 13 11 11 10 11 14 15 16 16 20 20 23 23 22 27 28 29 27 22 18 17 15 13 10 8 6 4 3
5 3 4 6 7 7 8 9 10 13 19 25 27 25 23 22 14 16 19 15 19 20 22 22 22 23 23 23 22 21 20 18 18 16 15 13 11 9 7 5 3 3 5
7 5 4 6 8 8 10 13 14 16 20 21 24 24 25 25 27 30 27 29 26 20 15 15 16 15 15 16 16 15 14 14 14 13 12 9 8 6 5 3 3 5 7
7 6 6 5 7 10 11 13 14 15 15 16 17 18 17 19 18 19 18 17 16 15 14 12 12 13 12 11 13 13 13 13 12 11 11 8 5 2 1 2 4 6 9
8 9 8 7 7 8 9 11 13 11 10 10 11 13 14 14 14 14 12 12 11 11 11 10 8 7 9 10 11 11 10 8 7 3 2 2 2 3 2 2 4 6 7
9 10 10 9 9 9 9 9 10 11 9 7 6 6 7 8 10 12 12 11 10 10 10 8 7 9 9 9 9 9 7 5 3 3 3 4 3 3 5 7 9 10 12
10 10 11 10 10 10 10 9 10 10 9 8 6 4 2 1 3 5 6 7 8 8 7 6 6 6 7 7 5 2 1 2 4 4 6 7 8 8 10 11 13 16 18
11 12 12 11 11 12 13 13 12 10 11 12 11 10 7 3 2 1 2 1 3 5 6 6 7 9 9 9 7 6 6 8 10 11 13 12 13 15 16 16 18 19 21
16 13 13 13 14 14 13 14 13 13 13 13 13 12 11 11 10 8 6 5 5 5 5 7 9 11 11 12 11 11 11 13 14 15 16 17 18 18 17 18 21 24 24
22 20 17 15 16 15 15 15 15 16 16 16 16 17 14 14 12 11 12 11 10 8 8 8 12 14 15 15 16 16 16 18 19 19 18 19 20 21 21 21 22 25 26
25 24 22 20 18 19 18 19 19 18 17 17 18 19 19 16 16 16 16 16 14 14 13 12 13 15 17 18 20 22 22 23 23 23 24 25 25 27 28 28 28 29 30
28 26 25 25 25 23 23 22 22 22 21 20 18 19 21 21 19 19 19 19 18 18 19 18 17 17 18 19 19 22 25 27 29 30 32 33 33 30 30 32 32 34 35
31 31 30 30 29 28 26 24 24 25 23 24 24 22 22 22 23 23 23 22 21 21 21 22 23 24 23 23 23 24 25 27 29 32 35 37 38 39 36 34 35 31 31

GFSGL_500_spd_036.txt.gz
Wind_Speed
14 14 16 18 19 19 15 10 9 9 8 7 4 6 1 4 8 12 5 6 6 5 2 4 6 8 9 12 13 18 18 20 20 21 22 19 24 23 23 23 20 17 17
12 14 17 18 16 14 10 8 7 8 6 7 3 3 1 5 9 7 5 6 8 7 3 6 8 6 11 10 12 17 19 19 20 19 21 21 22 24 23 20 18 20 15
12 15 15 13 10 8 8 6 6 6 4 7 6 3 3 3 5 6 7 9 10 7 5 4 6 8 7 14 13 15 17 18 20 19 21 23 23 24 24 25 28 30 24
12 14 10 8 6 8 9 5 6 5 6 6 5 2 2 2 2 3 7 8 9 8 7 6 7 8 8 9 13 14 17 19 20 20 23 25 28 27 30 27 30 22 20
11 8 8 9 5 4 6 4 3 4 2 7 6 2 1 2 1 6 6 5 6 6 12 8 8 6 6 8 12 16 16 18 21 23 27 29 29 29 27 26 20 23 24
8 8 8 6 4 3 5 4 4 4 3 4 8 7 4 3 5 4 6 8 8 14 13 15 9 10 10 9 11 12 16 16 21 26 27 25 27 23 21 25 25 25 23
8 6 3 2 2 3 4 5 6 7 4 5 6 4 5 5 8 2 7 8 8 9 11 12 13 11 11 11 15 20 23 24 23 20 21 25 29 25 22 20 25 26 24
5 4 5 5 4 4 1 2 4 9 4 4 6 4 6 8 10 5 7 8 9 10 13 14 12 12 12 14 20 28 27 33 38 37 34 34 36 30 30 28 27 24 18
3 4 6 6 8 5 2 2 2 4 7 2 6 9 9 11 10 7 7 8 9 9 7 7 11 14 16 18 21 24 24 30 34 35 36 36 36 34 27 25 20 16 15
0 4 5 5 9 7 4 2 3 3 3 3 7 9 10 13 8 7 8 7 7 7 7 8 8 11 15 19 21 23 24 26 25 34 37 36 33 28 25 23 24 25 21
1 4 6 5 7 7 9 8 7 5 3 4 10 11 13 14 10 8 8 7 7 7 7 8 10 15 18 18 22 25 23 23 27 32 30 29 25 24 24 24 24 20 16
2 4 6 5 5 7 12 13 14 7 7 4 13 17 15 14 10 10 9 7 9 9 9 10 16 16 18 18 23 23 29 30 31 27 24 21 26 27 24 21 18 16 13
3 3 4 3 4 6 10 12 16 13 12 12 18 17 16 15 12 12 11 9 9 11 12 12 11 12 19 23 21 25 26 26 22 24 29 30 25 22 19 17 14 12 10
4 5 5 5 5 6 9 12 16 16 18 20 18 14 14 15 14 13 13 12 15 16 15 15 14 16 21 23 20 25 21 22 29 27 25 23 20 18 15 12 10 8 7
6 6 8 9 7 8 10 12 16 21 20 20 19 12 9 15 16 12 14 13 16 18 17 16 17 22 22 20 22 25 25 25 21 19 19 17 16 13 11 10 9 6 2
7 8 8 10 10 12 14 16 19 21 22 22 22 24 21 17 19 18 23 23 20 20 20 21 20 23 25 26 25 22 21 19 18 16 14 13 12 11 9 6 5 3 5
9 9 9 9 11 13 16 17 18 19 19 18 20 23 25 28 24 26 22 18 17 16 15 15 15 15 15 15 14 15 14 13 14 13 12 12 9 5 3 2 4 6 9
11 10 10 10 10 12 13 15 15 13 12 14 16 18 19 19 19 18 17 16 15 14 12 12 12 12 13 15 15 15 15 14 11 9 6 4 4 2 3 7 8 7 9
10 11 11 10 11 11 12 11 11 11 10 10 10 12 14 16 16 15 15 13 14 13 12 11 10 9 9 9 8 8 8 7 6 4 3 2 4 5 7 8 8 8 10
14 12 12 12 11 11 12 13 13 11 8 7 6 7 8 10 11 12 12 12 11 10 8 9 9 9 10 11 10 8 6 4 3 3 4 5 6 7 8 8 10 11 13
15 14 13 13 13 13 12 12 13 13 12 10 7 4 3 6 8 8 7 7 9 10 8 8 8 10 11 11 10 9 8 7 7 10 10 11 10 11 12 13 15 17 18
14 16 16 14 14 14 14 13 13 13 13 13 12 10 8 6 6 5 5 6 6 6 7 7 9 9 10 11 11 10 10 11 14 16 17 18 18 18 18 19 19 19 20
17 17 16 17 17 17 16 16 16 16 16 15 14 13 13 13 11 10 9 7 7 7 7 7 7 8 10 11 12 14 15 17 18 18 16 17 18 20 21 21 22 24 25
25 23 20 18 18 20 20 20 20 20 19 19 18 17 17 17 17 16 16 15 15 15 14 13 13 13 14 15 16 17 18 20 22 23 22 22 23 24 26 26 27 29 30
26 27 28 25 25 24 24 23 23 22 22 22 22 23 22 21 21 21 22 21 21 21 21 21 21 20 21 22 21 22 23 23 24 25 27 27 27 28 30 31 33 33 32
30 31 30 31 30 29 29 27 27 27 25 23 23 23 24 23 24 24 23 23 23 22 22 21 21 21 22 21 21 22 24 26 28 30 31 32 32 33 35 36 35 36 37

GFSGL_500_spd_039.txt.gz
Wind_Speed
14 13 12 14 17 20 18 16 12 10 10 7 5 3 6 8 11 14 8 7 7 8 6 7 5 6 12 13 11 12 16 19 19 20 21 22 20 21 22 22 22 21 18
13 12 13 16 17 15 13 11 9 8 8 5 4 5 5 9 11 8 6 8 9 7 5 8 11 10 11 12 15 16 17 18 20 21 20 23 23 21 25 25 23 23 16
11 13 14 14 11 9 9 7 7 7 6 5 5 6 7 7 7 6 9 9 9 7 6 3 5 6 5 6 10 13 19 18 19 19 19 21 23 22 24 25 26 24 24
11 12 13 9 10 9 7 7 5 6 3 5 6 4 3 4 3 6 8 6 9 7 4 5 4 5 5 9 11 13 18 19 22 22 21 24 24 22 26 30 31 27 24
10 11 10 11 12 9 7 7 4 3 4 6 6 5 4 3 2 8 4 3 6 6 7 4 4 5 4 9 12 16 15 18 21 22 21 23 24 26 24 26 23 26 20
9 10 11 13 11 10 7 6 4 5 4 6 9 9 7 3 2 7 1 4 7 9 12 6 5 5 8 7 10 13 16 19 20 22 22 23 25 26 30 24 24 21 19
8 9 10 6 6 7 8 7 3 3 2 7 7 8 9 4 4 4 3 2 3 6 8 8 6 7 7 7 14 20 17 19 23 28 26 26 26 28 23 23 22 18 21
6 8 5 2 4 5 6 4 3 3 1 6 8 8 7 5 6 1 5 5 4 7 9 8 8 7 6 9 12 16 21 25 23 27 32 31 29 22 22 21 21 24 26
4 5 2 2 2 2 2 4 4 2 2 3 7 9 8 8 8 2 6 6 4 7 9 10 11 11 13 17 16 17 21 28 29 29 29 29 28 26 26 29 29 26 21
3 3 2 3 3 3 2 1 4 4 3 6 8 10 10 11 8 5 5 5 6 5 6 9 12 14 18 20 22 28 26 28 34 37 35 33 33 32 34 32 26 21 18
3 1 0 3 4 3 5 5 3 3 6 8 12 13 14 13 8 9 7 6 4 5 5 6 12 15 16 18 22 26 22 25 30 32 31 32 33 32 30 23 20 21 22
2 2 1 2 2 3 6 10 4 3 5 10 15 15 18 15 9 9 8 7 7 6 8 12 16 16 18 19 18 21 21 27 29 31 30 27 25 24 21 22 21 19 17
3 2 1 2 3 5 8 12 4 2 5 14 18 17 17 12 9 10 8 7 9 9 11 12 14 20 21 19 21 24 31 31 29 28 25 26 26 25 25 21 17 15 15
5 3 3 5 6 7 9 13 9 11 16 15 16 17 16 13 12 9 7 8 11 12 10 10 10 17 22 23 23 23 27 24 23 20 22 23 21 19 18 15 14 13 10
6 6 7 9 10 10 12 17 14 15 12 12 12 14 17 15 13 11 8 10 12 13 14 14 16 20 19 20 22 22 17 14 16 22 22 18 16 15 15 15 13 9 5
9 8 9 11 13 15 16 19 20 20 20 17 7 17 19 17 14 15 15 18 18 16 13 15 20 20 18 20 20 20 21 19 17 16 14 13 13 13 12 10 7 7 7
11 11 10 12 16 18 18 18 17 18 19 21 22 23 19 18 22 22 21 19 18 17 17 17 17 18 20 21 22 20 16 13 12 12 13 13 12 10 7 5 5 4 4
12 11 13 12 15 17 17 15 13 14 17 18 21 23 22 21 22 21 20 19 18 17 16 15 17 17 16 15 15 15 14 14 14 14 13 9 7 7 6 5 3 4 7
17 15 13 15 14 15 15 13 11 10 12 13 15 17 16 16 16 15 14 14 14 15 15 15 15 15 16 16 15 16 15 13 10 9 7 6 4 4 4 5 6 8 10
16 18 17 15 15 15 15 14 11 9 9 8 9 10 11 12 12 13 12 13 12 11 11 12 12 14 16 16 14 12 10 8 6 5 4 4 4 6 8 9 11 13 15
17 19 19 19 17 17 15 14 13 12 8 6 6 7 7 7 7 8 8 7 7 7 7 6 8 10 11 12 10 7 6 5 4 4 6 8 9 11 10 10 12 14 17
14 17 20 20 19 18 18 17 16 15 13 12 10 8 7 8 7 6 5 5 5 5 6 6 5 6 7 7 7 7 7 7 8 9 9 10 10 11 12 14 15 18 20
16 14 16 18 19 19 17 17 18 18 17 16 14 13 13 13 13 13 12 11 10 9 9 9 10 11 12 13 13 13 13 14 15 16 17 17 17 17 18 19 21 22 23
21 20 19 17 18 19 19 18 19 19 19 19 18 18 17 17 17 17 17 16 16 16 16 16 16 16 17 17 18 18 20 21 23 23 24 24 24 24 24 25 27 28 29
27 26 24 23 20 18 18 18 19 20 20 20 21 22 21 21 20 21 22 21 21 21 21 22 22 22 22 23 23 24 25 27 27 28 28 28 28 30 30 30 29 29 31
31 30 29 28 27 26 24 23 21 22 23 25 26 25 24 24 25 26 26 25 25 26 27 26 26 26 27 28 28 28 28 28 29 28 29 30 32 32 31 29 32 30 29

GFSGL_500_spd_042.txt.gz
Wind_Speed
11 14 15 12 12 17 20 19 17 16 13 14 14 11 9 8 10 14 9 9 10 11 9 10 7 4 8 8 9 8 13 18 23 21 25 25 24 23 22 23 23 21 22
12 13 12 11 15 17 16 12 12 11 12 13 9 8 7 8 9 10 8 12 10 9 6 6 13 9 9 11 12 8 12 20 22 23 21 24 24 24 24 24 23 18 21
12 11 11 12 16 14 11 9 8 10 10 7 6 5 6 7 7 9 10 12 9 7 7 7 7 6 6 5 13 14 15 17 19 19 21 23 22 23 24 24 26 25 20
10 11 11 13 12 12 10 6 6 7 7 6 5 3 3 5 6 7 12 8 10 8 5 1 3 2 4 7 11 16 17 20 20 21 20 23 24 22 25 25 26 26 28
10 9 11 12 13 13 12 6 6 7 8 6 8 4 3 5 7 8 8 7 6 6 4 0 3 6 5 8 12 17 20 19 19 21 21 21 22 22 25 27 26 27 28
8 9 10 13 14 11 11 9 6 7 9 8 7 8 6 7 5 6 6 5 4 6 7 3 1 4 6 7 9 14 18 22 22 21 22 23 22 23 25 27 30 28 26
7 8 10 11 10 8 8 9 9 6 9 9 8 7 8 7 4 5 3 4 4 3 6 8 6 5 9 9 10 15 19 21 24 27 25 24 24 25 27 28 33 27 22
6 6 8 8 7 6 6 7 8 5 7 8 8 8 6 4 3 4 3 3 3 5 3 6 7 6 6 12 13 16 16 21 23 24 25 26 26 23 25 20 23 22 19
6 5 5 7 6 5 4 5 8 8 6 5 6 9 8 7 5 2 2 3 5 7 9 6 6 6 9 11 12 20 20 18 21 25 26 24 26 26 19 24 21 17 17
5 3 3 3 3 3 3 5 8 9 7 5 7 9 10 10 6 3 3 5 5 7 8 8 10 13 12 10 16 20 23 21 22 22 27 27 28 22 22 21 21 24 24
5 2 1 2 1 3 4 6 8 8 8 6 8 11 13 11 7 5 4 4 5 7 8 12 13 15 13 16 16 18 20 25 28 27 25 24 24 25 26 28 29 25 21
6 4 2 1 0 2 6 8 4 7 8 8 11 13 15 11 7 5 4 4 6 6 10 13 14 16 17 20 17 18 20 22 26 25 23 22 25 28 28 21 17 17 21
8 6 3 2 1 3 6 5 1 5 6 10 13 13 15 12 10 7 6 6 8 12 12 13 13 17 16 18 15 19 26 28 28 26 25 26 28 26 21 24 21 19 18
9 7 4 4 3 2 5 7 7 9 8 13 15 17 15 9 11 7 6 9 10 11 10 10 12 13 15 17 19 26 29 31 28 24 21 20 18 18 21 19 17 18 17
9 8 7 6 6 7 9 10 11 13 12 12 11 14 13 12 9 6 7 10 8 8 11 12 17 16 19 22 24 24 20 21 21 18 19 20 21 20 18 17 17 15 10
12 12 10 8 9 11 15 16 17 14 9 12 13 15 14 12 11 9 9 11 10 11 12 15 18 17 19 22 24 17 10 12 14 20 18 17 16 16 16 16 14 10 7
15 15 13 13 15 17 15 14 14 15 11 16 18 15 13 14 13 15 16 19 17 16 15 14 15 16 19 19 16 19 18 17 15 14 12 13 14 15 15 13 10 6 5
17 17 16 17 17 16 15 14 14 17 24 25 20 18 19 19 17 17 16 16 17 18 19 17 16 16 18 18 20 20 19 17 16 15 15 15 15 12 9 6 6 7 7
20 19 19 18 17 15 13 12 14 16 19 20 19 20 19 17 16 14 13 11 12 13 15 16 16 15 16 15 15 15 15 17 16 16 14 11 10 9 8 8 9 8 8
19 19 19 19 18 15 13 11 12 14 16 17 15 12 12 11 12 12 14 13 13 11 11 12 14 17 17 17 18 18 17 15 14 12 11 9 8 6 4 5 7 8 11
16 18 19 19 18 18 16 13 11 10 11 12 12 11 10 11 10 9 9 8 9 9 9 10 12 15 16 16 15 14 11 10 8 6 4 3 3 4 5 8 8 9 11
13 15 19 20 20 19 19 18 15 13 11 10 9 8 7 8 8 8 8 7 7 7 7 7 7 10 12 12 11 9 8 9 9 9 8 7 6 8 9 11 13 14 16
15 14 15 18 20 20 20 19 18 17 15 14 13 13 11 10 9 8 8 7 7 7 8 9 9 10 11 12 11 10 10 11 12 11 12 13 13 14 15 16 17 19 22
22 18 15 14 16 19 20 20 20 20 19 19 18 17 17 17 16 15 14 13 12 11 11 10 11 12 13 14 15 15 17 18 18 19 19 20 20 21 22 23 24 26 27
26 24 22 21 18 18 20 21 21 21 21 22 22 22 22 21 21 21 21 20 20 19 19 20 19 19 19 19 20 21 22 23 24 24 25 25 25 25 24 25 28 30 30
32 29 28 27 25 24 21 19 18 18 19 19 20 21 23 24 24 24 24 24 25 25 26 26 27 27 28 27 27 27 27 28 29 30 31 30 28 25 26 27 30 31 28

GFSGL_500_spd_045.txt.gz
Wind_Speed
14 14 13 14 14 15 17 19 20 20 19 18 16 15 12 13 14 10 14 10 13 11 10 7 9 6 10 12 12 12 18 21 23 21 22 26 26 25 25 26 26 26 26
13 12 13 13 14 16 17 16 15 17 15 13 13 11 10 12 12 11 11 12 14 13 8 7 7 9 9 12 9 10 16 23 20 21 24 27 28 25 24 26 26 25 24
10 11 12 13 15 16 14 12 15 15 11 11 8 7 9 9 8 7 9 13 11 14 8 8 6 5 7 10 12 10 15 20 24 25 24 25 26 26 24 25 26 27 25
9 12 12 14 15 12 12 13 14 10 8 6 7 8 8 4 6 6 12 8 10 8 6 3 4 5 7 5 11 17 15 19 21 23 24 26 25 26 23 24 24 21 26
11 12 12 14 14 14 15 14 15 11 8 7 7 10 7 2 5 6 10 8 6 7 2 4 5 6 7 8 13 19 21 20 22 21 23 25 23 25 24 25 25 22 23
11 10 12 13 13 13 13 14 15 10 10 10 8 9 10 5 4 6 9 5 6 7 10 5 4 8 7 9 12 20 23 23 25 24 20 27 22 20 25 22 23 25 27
9 10 12 11 11 10 11 11 12 10 9 10 9 10 10 7 4 4 5 7 8 6 4 4 3 9 11 11 16 22 21 22 24 27 25 26 25 24 24 24 24 24 24
9 10 10 9 8 8 8 7 9 9 8 9 8 10 5 7 5 1 3 4 3 7 2 4 8 8 11 13 16 19 22 24 24 22 26 28 24 26 25 30 30 29 25
10 9 7 6 6 5 4 5 7 9 8 9 8 9 6 8 6 3 3 3 5 5 3 3 6 8 7 11 16 19 20 22 22 24 23 25 25 25 28 28 27 28 15
9 7 6 5 3 3 2 4 8 9 9 9 8 9 9 9 6 3 4 3 4 6 4 5 7 10 12 15 17 20 22 20 24 22 22 25 25 29 23 21 24 26 19
9 7 6 4 2 4 4 6 7 9 10 10 8 10 11 11 6 4 3 3 4 5 6 9 13 11 11 14 22 25 24 24 23 23 23 23 28 20 18 23 20 21 23
10 8 6 4 4 5 6 8 9 8 11 10 10 12 12 10 7 4 3 4 3 6 8 9 9 13 15 15 17 21 24 22 22 24 26 24 16 16 16 19 20 24 19
11 9 7 3 3 4 6 7 6 6 9 10 12 13 14 8 7 4 3 4 8 10 10 10 12 15 14 15 19 25 25 25 22 20 20 19 18 19 22 27 24 21 21
12 10 8 5 3 2 2 3 1 4 9 13 13 13 12 8 8 5 4 6 8 9 9 10 11 12 11 11 14 21 29 28 24 21 19 20 22 24 20 21 23 23 20
12 11 10 7 4 3 4 4 4 6 13 16 14 16 12 10 7 5 6 8 8 9 10 12 11 11 12 14 17 22 22 20 21 21 22 25 22 20 21 22 21 19 18
14 13 11 10 9 10 10 8 6 6 11 13 16 16 12 10 7 9 8 8 6 9 11 15 14 17 22 24 23 20 21 19 17 18 19 22 22 20 18 18 18 18 15
15 15 13 14 14 13 10 6 5 5 15 18 17 15 14 12 10 10 11 11 11 12 14 17 16 18 26 24 20 18 17 14 22 22 19 19 17 16 18 19 17 14 11
17 16 16 18 16 13 10 9 12 14 21 17 18 17 16 16 16 15 15 14 15 19 18 15 16 20 21 18 16 23 28 24 21 18 17 16 17 17 17 16 14 13 11
20 18 19 19 16 13 11 11 15 18 17 18 17 18 17 16 16 15 14 14 15 18 20 19 18 17 17 18 21 19 19 20 19 18 17 16 16 16 15 12 10 11 10
22 21 22 21 16 13 12 13 14 16 16 17 18 14 12 11 11 11 11 11 11 13 14 16 19 19 17 15 13 13 14 15 15 15 14 13 13 12 11 10 9 8 9
23 23 22 20 19 15 12 12 14 14 15 15 14 14 13 13 13 13 13 12 11 9 10 11 13 14 15 16 17 17 17 16 14 13 11 9 9 9 9 9 7 9 11
22 23 23 22 20 18 15 13 12 13 13 12 13 14 14 14 13 12 11 10 10 10 9 9 10 11 12 13 13 12 11 11 11 12 11 11 10 9 10 11 12 13 15
23 23 24 24 22 21 20 17 15 13 12 12 11 11 11 12 12 12 11 11 10 9 9 9 10 11 12 13 14 13 12 13 13 13 13 13 13 13 13 13 14 16 18
27 25 24 25 25 24 23 21 19 17 15 15 15 14 14 13 12 12 12 11 11 11 11 12 13 13 15 17 18 19 19 19 18 18 18 17 18 18 18 17 18 19 21
34 29 25 24 22 22 22 21 21 20 20 19 19 18 17 17 16 14 13 13 14 14 14 14 15 16 17 17 18 19 20 20 20 21 22 23 23 22 21 21 22 23 24
31 34 29 28 26 24 23 23 21 20 20 20 20 20 21 21 21 20 20 20 20 21 21 21 22 22 22 22 22 23 23 25 26 27 27 26 26 26 26 26 27 28 28

GFSGL_500_spd_048.txt.gz
Wind_Speed
24 22 20 19 19 20 22 23 22 23 23 21 20 19 18 17 15 16 15 15 17 18 18 13 11 8 10 14 11 8 13 16 18 19 21 22 23 26 27 26 26 28 27
19 19 19 18 19 21 22 21 22 20 18 19 18 16 16 13 13 14 13 14 17 18 13 13 12 11 10 13 14 13 14 17 20 22 22 24 24 26 26 24 27 27 27
19 20 18 18 19 20 19 20 17 15 16 17 15 12 11 10 10 11 11 14 16 14 16 15 11 10 12 16 15 13 12 19 21 24 22 25 25 24 25 25 25 25 24
19 19 18 18 19 17 17 17 16 15 15 14 12 11 8 8 9 9 12 14 14 14 14 8 11 10 13 16 18 13 14 23 22 22 22 25 26 23 22 24 25 25 24
18 17 17 17 16 17 17 17 17 16 15 16 12 11 10 8 8 9 10 12 12 12 12 7 9 9 12 11 16 18 18 20 22 23 19 22 22 24 22 23 25 26 26
17 17 16 15 15 16 17 16 16 16 16 16 13 11 11 11 11 10 9 9 11 10 7 4 10 10 10 11 14 20 20 23 27 24 22 24 23 23 22 24 24 25 23
16 16 16 14 13 14 14 12 13 15 15 16 11 9 10 13 12 10 8 7 8 4 8 3 8 12 10 15 22 21 21 22 24 25 26 26 24 23 22 20 17 15 19
17 16 15 12 12 11 10 10 11 13 14 12 9 8 9 9 10 7 6 5 6 6 2 4 11 15 12 14 20 23 21 22 23 21 23 27 25 24 22 18 19 17 25
16 16 13 11 10 9 8 9 11 11 12 12 8 7 9 8 8 5 4 3 6 2 4 2 9 15 15 12 18 23 21 19 19 19 20 24 23 22 23 23 21 20 22
15 14 13 11 9 7 7 6 8 11 12 10 7 7 9 8 8 5 2 3 5 3 3 4 6 9 13 15 18 20 23 22 21 20 20 19 20 24 24 25 27 25 16
14 14 12 9 8 8 5 5 7 8 12 10 7 7 9 9 7 4 2 3 5 3 3 6 9 10 16 19 20 23 26 25 23 21 20 21 25 24 25 27 26 28 13
14 14 11 9 9 7 6 8 7 8 9 10 8 9 9 9 7 4 2 2 3 3 6 7 7 11 15 19 22 24 24 27 24 22 25 21 23 21 20 20 19 25 19
15 12 10 9 9 6 7 9 8 6 8 9 10 10 12 8 7 4 2 1 3 6 6 7 10 11 13 20 25 24 23 23 25 25 25 26 22 17 16 20 17 19 21
14 11 10 10 8 4 5 4 2 5 9 10 13 12 14 8 7 5 4 4 4 7 8 10 13 14 14 18 26 28 28 24 25 26 27 22 17 17 20 22 24 25 25
13 10 10 8 6 3 3 2 1 3 9 15 16 16 15 10 7 5 6 7 5 6 7 9 8 7 12 17 23 28 28 26 24 23 23 22 18 18 23 24 24 24 21
12 10 9 7 5 4 3 1 2 4 12 17 17 17 11 9 5 6 9 8 6 6 10 9 10 13 15 22 25 24 24 23 21 20 21 22 24 22 19 21 22 21 20
12 12 10 9 8 6 3 1 1 9 11 15 18 14 10 7 6 8 8 7 8 8 13 11 15 22 22 23 24 24 22 20 19 19 22 22 22 21 20 19 21 21 18
14 12 11 12 10 5 0 2 4 16 15 16 16 14 12 10 9 9 10 8 11 14 17 15 16 22 20 18 20 20 17 19 21 21 22 22 20 18 18 19 18 16 13
16 15 15 16 11 7 3 8 16 18 17 15 15 15 14 13 12 12 11 11 15 17 17 17 18 19 15 9 13 18 24 26 24 22 20 18 16 15 15 15 14 12 12
19 18 20 19 14 9 7 10 13 15 16 16 16 15 12 11 10 11 13 12 12 13 15 16 18 18 15 17 18 20 20 18 16 15 15 14 14 13 13 12 11 12 12
21 21 22 20 17 13 10 11 14 16 16 15 15 16 16 13 12 12 12 12 12 13 14 17 19 19 19 18 16 15 14 13 13 13 13 13 12 12 12 13 13 11 12
23 23 24 22 19 17 15 13 12 13 13 13 13 12 13 14 15 14 14 14 13 13 13 14 14 13 13 13 13 14 15 14 14 14 13 12 12 12 12 12 13 14 15
26 25 24 24 23 20 17 16 15 13 11 11 10 10 11 11 12 12 11 11 10 10 10 12 13 13 13 15 15 15 14 14 14 14 14 14 13 14 15 15 15 15 17
31 30 28 27 25 24 22 19 17 16 14 11 9 8 7 7 8 7 7 6 7 8 8 8 9 10 12 14 15 17 17 16 16 17 18 20 20 19 19 18 19 20 21
34 32 32 31 30 28 25 23 21 19 18 16 15 14 13 12 11 10 10 10 9 9 9 9 10 11 13 15 17 18 18 19 19 20 20 20 20 21 22 23 23 23 25
40 37 35 34 33 31 30 27 25 23 22 21 20 19 18 18 17 17 18 18 18 18 18 19 18 17 17 16 18 20 21 22 22 22 22 22 22 23 25 26 28 29 30

GFSGL_500_spd_051.txt.gz
Wind_Speed
26 26 26 27 26 27 23 23 24 25 23 25 26 24 24 21 20 19 17 19 20 21 22 20 14 16 14 13 10 6 7 9 11 20 17 15 15 19 21 21 20 22 26
25 25 26 25 24 22 22 23 23 22 23 24 22 22 21 19 17 15 16 19 19 19 21 20 20 17 17 15 16 13 9 11 13 17 17 18 18 19 20 22 22 22 25
25 24 23 23 23 21 23 22 21 21 21 19 18 19 17 14 14 14 16 16 19 22 18 22 20 17 17 16 15 14 14 14 16 20 19 18 20 20 22 23 22 22 23
24 23 24 23 21 22 21 21 21 19 18 17 18 18 15 13 13 14 15 18 18 19 19 21 12 13 17 17 18 14 13 15 17 19 18 19 20 20 22 22 21 21 21
23 23 22 21 21 21 20 20 18 18 19 18 17 17 16 15 14 12 15 16 19 18 19 13 10 15 15 18 18 17 14 17 17 23 18 20 20 20 20 21 20 22 22
21 21 21 21 21 19 19 17 18 18 18 18 18 17 15 15 16 14 16 16 17 19 11 15 8 12 15 16 15 18 16 19 22 22 18 20 22 20 19 20 21 21 22
20 20 20 19 18 17 16 16 16 15 15 16 17 16 14 14 15 14 15 14 16 12 15 9 8 13 12 14 16 19 17 19 23 23 21 22 21 20 19 17 19 21 22
20 19 18 17 16 14 15 14 14 14 12 13 14 13 14 12 11 12 12 12 13 13 12 9 8 14 10 14 17 19 19 18 21 22 18 20 20 21 20 17 18 18 25
18 17 16 15 15 13 12 13 11 11 12 12 12 13 12 10 9 9 10 10 11 15 8 5 7 14 10 16 19 18 17 18 18 17 15 18 18 18 18 16 12 15 21
15 16 15 14 14 11 12 9 9 10 10 12 12 11 10 8 8 7 8 8 9 7 6 3 10 14 11 16 22 20 20 21 19 16 15 19 18 18 18 16 16 12 17
16 14 14 13 12 11 11 10 9 7 10 14 11 11 7 8 7 7 8 8 9 6 4 1 6 14 13 15 20 21 18 20 20 19 20 20 18 19 17 17 17 17 19
15 13 13 12 12 11 11 12 10 8 8 12 12 9 7 7 8 6 7 6 7 3 2 1 5 9 15 14 18 20 22 23 23 22 21 20 21 20 19 20 22 12 7
15 12 11 12 11 10 11 12 10 10 10 11 11 10 9 9 8 6 5 3 2 1 2 2 6 10 15 15 19 22 23 22 22 21 22 21 20 19 18 17 18 18 13
14 11 11 11 9 10 10 8 7 8 11 11 10 11 12 11 9 6 4 1 3 3 4 10 8 9 14 20 22 23 24 23 22 24 22 25 24 19 18 19 17 14 18
13 11 10 8 8 8 7 5 5 6 8 11 11 12 14 9 8 6 5 3 2 3 6 7 8 9 14 21 23 24 23 21 22 22 25 27 21 19 19 22 21 17 20
13 10 9 6 8 7 5 4 6 5 9 14 14 12 12 9 7 6 6 5 3 3 5 4 6 9 15 20 22 24 21 21 21 22 21 16 15 16 17 20 20 19 19
12 10 7 6 6 5 3 3 2 3 8 12 13 13 9 8 6 7 8 7 5 6 8 5 8 12 14 20 22 21 21 21 22 22 20 19 17 17 19 18 23 23 18
13 10 8 8 7 6 4 6 7 9 9 13 15 10 7 5 5 7 7 5 8 12 10 14 16 19 20 20 21 21 18 17 17 17 18 18 16 15 16 16 18 18 18
14 12 11 10 9 4 4 5 8 13 13 15 14 11 9 6 5 6 7 7 11 14 15 19 18 20 18 18 19 19 18 19 18 20 20 20 18 16 15 15 15 17 17
16 14 13 13 10 4 3 6 9 11 14 14 14 13 11 9 8 8 8 10 11 11 13 18 18 16 12 13 13 12 17 19 19 20 19 19 17 16 15 14 15 14 14
17 16 15 15 12 7 6 7 9 12 14 16 15 15 14 12 11 9 10 11 9 9 10 12 13 11 10 12 12 15 17 15 15 16 15 15 14 13 12 13 14 13 13
19 18 19 18 14 10 9 10 11 12 13 14 13 11 10 9 9 9 9 9 10 11 11 12 12 13 14 14 14 15 15 14 15 14 14 12 11 11 11 13 14 14 14
22 22 22 22 18 13 11 11 11 11 11 11 11 10 10 11 11 10 10 9 9 9 10 10 10 10 10 10 10 10 10 10 10 10 10 10 10 10 12 13 15 16 16
26 25 25 25 23 20 17 14 13 12 11 10 11 11 11 11 9 8 7 7 6 6 7 9 11 10 10 10 11 11 11 11 11 12 12 13 14 15 16 17 18 18 19
30 30 29 28 26 26 24 23 19 17 16 14 13 12 11 10 9 9 8 8 8 9 11 9 7 6 4 6 9 11 12 13 14 13 14 16 16 18 19 21 22 23 24
30 32 30 28 26 25 24 24 24 23 20 19 16 17 15 15 14 13 14 16 15 12 10 10 10 11 12 14 17 18 19 20 22 23 23 24 25 26 27 28 29 31 32

GFSGL_500_spd_057.txt.gz
Wind_Speed
36 36 34 31 29 27 27 27 25 25 23 20 18 19 19 20 21 21 23 21 19 17 18 20 20 19 19 18 16 13 11 8 7 8 12 12 13 13 15 14 14 14 17
35 35 30 28 26 27 27 25 25 23 20 17 18 18 18 19 19 20 21 20 19 17 18 19 19 22 21 20 17 16 13 7 8 11 14 12 11 12 19 20 18 15 16
33 30 26 26 26 24 24 23 22 19 18 16 18 17 18 18 18 19 20 19 19 19 18 19 19 22 23 21 19 16 16 9 8 11 15 16 14 22 22 18 15 13 19
28 28 26 24 23 22 24 20 19 18 17 16 16 17 18 19 19 18 19 19 19 18 17 20 22 22 20 18 13 12 15 15 11 12 16 16 14 18 17 17 15 14 18
28 26 23 22 21 21 20 19 18 16 15 14 17 18 20 21 20 18 19 20 19 18 19 20 22 19 18 13 13 13 17 16 15 17 19 16 16 17 20 22 19 17 17
27 25 23 21 21 19 17 16 16 15 15 17 19 19 21 20 19 19 18 20 17 17 20 21 20 19 14 12 15 15 22 16 15 18 19 19 18 20 20 23 22 17 15
25 22 21 21 18 16 16 16 14 15 15 18 17 17 17 16 16 16 17 16 14 17 19 19 16 14 9 12 15 13 17 16 12 17 19 19 19 19 19 19 19 20 20
23 22 21 16 15 16 15 14 13 13 14 14 13 15 12 12 12 15 14 13 13 14 15 16 12 8 8 9 10 11 11 14 13 19 18 17 17 17 17 20 21 20 19
24 21 17 15 15 14 13 13 12 12 9 9 11 12 11 10 12 13 11 12 11 12 15 13 10 7 9 8 9 11 13 11 16 19 18 15 18 19 19 19 18 18 18
22 16 14 14 13 14 13 12 11 9 9 7 10 11 9 10 11 12 10 10 9 11 14 8 3 7 8 9 11 12 13 14 22 21 19 20 20 19 17 17 19 20 19
18 12 14 13 13 13 12 12 8 8 10 9 8 10 11 10 11 10 10 9 9 11 9 5 3 10 8 13 15 14 13 17 22 22 21 22 21 19 18 16 16 17 19
14 15 13 12 12 12 11 8 5 7 10 10 10 9 10 11 10 9 8 7 9 9 6 3 4 11 11 18 16 14 14 16 19 21 22 23 23 22 19 15 14 18 20
16 14 13 12 12 11 8 5 7 10 11 11 12 11 10 10 8 8 5 6 8 6 3 0 8 13 12 16 17 15 18 18 18 19 21 23 22 22 19 15 15 16 17
16 12 11 9 9 7 6 6 8 10 11 12 11 9 9 8 7 6 3 3 5 6 3 5 10 13 12 16 17 15 13 15 14 14 18 18 18 19 20 18 22 23 20
12 12 8 8 9 7 6 7 7 7 9 9 10 8 7 7 7 5 3 3 3 0 6 6 9 12 14 14 15 16 14 14 14 14 16 14 17 22 24 25 21 17 17
13 11 9 9 8 7 6 7 6 6 8 8 9 7 6 8 7 5 3 3 3 3 3 2 4 10 14 16 15 16 16 15 15 16 16 17 19 23 23 21 19 17 16
13 10 10 8 7 7 6 4 4 5 8 8 10 9 8 9 6 4 4 4 3 3 5 4 6 8 15 15 17 18 17 16 15 17 16 17 17 15 15 16 14 14 17
13 11 10 8 8 8 7 6 5 6 5 8 11 10 9 8 7 6 7 6 4 3 4 4 7 10 16 17 18 16 16 16 17 15 19 20 15 15 15 15 15 15 15
12 11 10 11 10 8 4 6 7 8 8 9 11 10 8 7 7 7 6 4 4 4 5 6 8 12 16 18 15 14 12 14 15 16 20 16 12 10 12 17 17 18 20
10 11 11 11 8 4 1 1 5 11 10 11 10 7 6 6 8 9 7 8 8 8 9 10 10 14 17 18 14 14 14 13 14 16 18 15 13 14 13 15 19 23 21
9 11 12 10 9 5 4 5 8 11 12 12 10 9 8 8 9 10 11 13 12 11 11 12 12 10 12 15 15 13 12 12 11 14 16 16 16 14 13 15 17 19 20
7 12 12 12 9 6 6 7 9 9 11 12 10 9 9 9 9 9 10 10 10 12 13 12 10 8 9 9 8 9 10 10 10 11 13 14 14 12 11 13 15 17 17
13 13 12 14 12 9 8 9 10 12 11 12 10 9 8 7 9 8 7 8 7 8 9 9 7 7 7 8 9 9 10 10 10 11 12 13 13 12 13 14 16 17 18
16 17 15 16 14 10 9 10 10 10 12 10 8 7 6 7 8 10 8 7 8 10 11 11 11 12 12 11 11 11 10 9 10 11 12 13 13 13 13 15 16 18 21
17 15 17 18 17 12 12 10 9 9 8 8 9 10 10 7 6 7 7 7 8 8 8 8 8 9 9 9 9 10 10 12 12 13 13 13 15 16 17 18 18 20 22
11 16 18 16 16 18 15 14 12 12 13 13 13 13 14 13 12 10 10 10 9 9 9 9 9 9 9 9 10 11 12 12 13 15 15 16 18 19 20 22 24 26 30

GFSGL_500_spd_060.txt.gz
Wind_Speed
37 37 37 35 38 36 28 29 32 33 30 28 28 28 22 19 18 20 19 20 22 19 18 17 19 20 18 19 16 17 12 10 10 9 6 8 12 9 23 22 21 22 21
37 40 39 38 39 33 29 32 33 31 29 28 26 24 19 18 19 20 19 21 20 19 17 18 19 18 19 20 18 14 14 12 11 11 11 10 14 13 17 19 19 19 21
36 39 39 37 35 30 32 32 34 30 26 24 24 19 19 19 21 20 19 20 19 18 19 18 19 17 20 20 20 17 16 12 13 12 13 14 14 16 19 20 20 20 20
39 38 37 35 32 31 32 32 31 27 24 24 20 19 20 21 22 21 20 21 20 18 19 19 20 21 23 19 18 16 17 17 14 15 15 18 14 18 19 26 20 17 20
35 33 34 33 32 31 31 30 27 25 22 22 19 21 21 22 22 21 22 22 20 19 19 20 22 22 21 21 17 14 17 21 17 15 18 20 17 19 24 23 21 19 23
34 33 32 32 30 29 28 26 25 23 22 21 20 20 21 21 21 21 21 19 19 19 18 19 21 22 23 17 13 16 17 17 19 18 20 19 18 16 18 21 21 19 22
35 33 31 28 27 28 27 23 23 21 19 17 18 18 17 18 18 17 17 17 17 16 17 17 19 19 17 13 16 17 15 21 20 18 21 20 19 20 18 19 21 23 24
32 31 30 28 27 25 22 22 20 18 16 15 16 15 16 17 15 14 14 16 14 14 15 15 18 15 8 8 14 14 14 18 18 19 21 18 17 18 19 21 24 25 23
36 30 28 27 25 23 21 19 17 13 13 15 14 15 15 14 13 11 13 13 12 12 14 15 15 13 10 11 14 14 13 13 19 16 19 18 17 19 22 23 22 21 21
33 30 30 25 21 20 18 17 15 14 14 14 14 12 12 13 11 11 12 11 10 11 14 15 9 7 12 11 12 13 15 15 17 22 23 22 21 21 20 22 23 23 25
33 30 24 22 20 19 17 15 15 14 15 15 13 8 10 11 10 10 11 9 9 11 13 9 7 8 11 11 15 14 15 15 19 24 23 23 25 23 20 20 23 23 23
29 26 23 21 18 16 15 15 15 14 14 14 13 10 9 11 11 10 8 7 8 11 10 7 6 12 9 13 15 14 15 18 21 20 19 22 25 25 24 22 21 22 22
28 24 22 17 17 16 16 15 14 14 13 12 12 13 10 10 9 7 6 6 8 9 7 4 7 10 10 17 15 14 15 18 20 19 17 19 22 23 24 22 20 22 23
26 22 18 18 16 16 15 14 13 13 13 13 13 12 10 9 7 6 5 5 7 6 1 4 9 10 11 17 15 15 15 15 16 16 17 20 18 19 21 19 19 20 21
25 22 21 17 16 15 13 11 11 10 10 9 10 9 8 8 8 7 6 5 4 2 3 4 10 12 15 17 16 13 13 15 13 13 15 16 18 19 20 18 21 23 22
24 23 19 16 15 13 10 9 9 8 7 8 8 9 9 8 10 8 8 6 5 3 3 3 7 11 14 18 19 15 12 14 13 14 17 17 14 16 17 19 20 20 19
24 20 16 15 12 9 8 7 7 6 8 8 8 10 9 8 11 8 8 7 6 4 5 4 6 11 15 16 18 20 16 14 13 14 15 13 14 17 17 18 13 12 15
22 17 15 13 10 7 6 8 7 6 6 7 12 12 9 10 10 9 8 8 6 5 5 4 7 12 16 17 16 17 17 17 15 16 15 15 15 17 18 18 18 17 18
19 15 13 11 9 6 5 8 9 9 7 6 10 11 10 9 8 8 7 6 5 4 3 4 8 14 17 15 16 17 15 15 15 15 16 19 18 15 15 17 18 19 17
17 15 13 11 9 7 6 5 6 8 9 10 11 9 7 7 8 9 8 7 7 7 6 7 10 15 19 16 13 13 14 15 15 16 18 20 15 14 15 17 21 21 19
18 15 13 12 10 6 4 4 7 11 12 14 11 9 6 7 9 9 9 10 10 9 8 9 10 14 19 18 17 15 14 14 14 15 18 20 16 15 15 13 15 19 22
16 15 14 13 10 7 6 8 9 12 14 13 11 9 8 8 8 9 10 9 9 10 11 11 11 11 12 13 12 12 11 11 12 13 15 16 16 13 10 11 14 17 20
16 14 13 14 12 9 10 10 12 14 15 13 10 8 9 8 9 9 9 10 10 12 12 10 7 7 9 9 9 8 9 8 8 9 11 11 12 14 13 13 14 16 19
13 14 15 15 12 9 9 11 12 14 14 13 11 10 10 9 11 11 10 10 10 10 10 10 10 11 10 11 12 13 12 12 13 13 14 14 14 13 13 14 15 17 18
15 9 14 16 15 10 9 11 15 16 15 15 14 13 13 14 13 11 11 11 11 10 9 9 9 9 10 11 11 11 11 12 13 13 14 15 15 16 17 19 20 20 21
13 16 17 17 16 15 13 13 14 15 15 14 14 15 14 11 10 11 10 9 8 6 6 5 6 6 7 8 9 10 10 11 13 14 15 16 17 19 21 23 24 25 26

GFSGL_500_spd_063.txt.gz
Wind_Speed
54 53 53 47 45 46 48 45 39 34 35 35 33 31 30 31 32 29 27 25 22 20 21 22 21 20 21 21 20 19 19 15 14 15 10 7 8 9 8 13 24 25 25
52 51 47 45 41 45 48 42 37 33 34 35 31 32 30 30 29 27 26 24 21 21 20 20 21 21 20 20 20 19 19 15 14 15 10 9 9 8 13 17 23 24 24
51 47 45 47 44 42 41 37 33 33 34 33 30 32 30 29 27 27 26 23 23 22 22 21 23 23 21 22 20 21 18 19 17 18 12 13 14 12 18 20 21 23 23
49 46 43 46 43 40 38 33 32 34 34 31 31 30 29 28 29 26 25 25 24 24 24 24 24 23 22 24 22 18 21 18 17 19 16 16 16 15 19 22 21 22 22
50 50 48 44 39 38 33 31 34 34 32 32 30 28 29 30 28 26 26 24 25 25 25 25 24 21 22 24 23 23 21 20 20 19 19 18 17 16 17 23 22 22 23
49 50 49 42 39 34 32 34 35 31 31 30 29 31 31 28 25 27 25 24 25 24 23 24 21 20 22 23 22 19 17 19 22 20 19 20 21 14 16 28 26 21 21
43 48 44 40 36 34 35 35 31 30 28 27 27 29 27 26 26 24 23 22 21 20 22 19 18 19 21 20 21 18 17 22 20 22 18 20 20 16 22 25 23 20 24
43 44 40 37 35 34 34 31 28 28 27 27 28 25 26 26 23 22 20 17 17 18 16 17 18 19 20 17 14 13 18 19 20 24 21 21 18 16 17 18 20 20 21
42 40 40 36 35 37 32 29 27 26 28 26 25 26 24 22 21 20 17 15 15 14 15 16 18 20 19 14 14 18 16 18 20 21 22 20 17 16 19 21 20 19 20
45 42 42 38 34 30 28 27 28 28 26 25 24 21 18 18 19 16 15 14 13 12 14 16 17 16 11 11 15 17 17 13 19 21 22 24 23 21 20 21 22 22 23
48 45 44 36 33 29 27 27 25 24 24 22 19 15 14 16 16 14 13 12 11 11 15 16 14 12 10 13 14 16 16 16 15 20 22 25 25 24 23 23 23 22 21
52 41 34 32 28 27 25 25 25 23 20 18 16 16 16 12 14 15 11 10 9 13 14 13 12 9 10 11 13 15 16 17 17 19 23 23 25 24 25 25 24 22 22
35 38 33 31 29 25 24 24 22 20 19 18 18 18 17 13 11 12 11 9 10 12 12 12 10 8 9 10 12 12 13 15 17 18 21 17 20 21 22 22 21 22 22
42 38 33 29 26 25 23 21 20 19 19 19 18 17 16 14 12 12 11 9 10 6 7 7 7 8 9 12 14 12 12 15 18 16 15 15 17 19 20 20 18 20 22
38 34 29 29 26 23 22 20 18 17 18 18 17 15 14 13 14 13 11 10 9 4 3 3 6 10 12 17 14 13 12 13 15 15 14 15 16 17 18 18 20 20 23
34 31 30 25 22 21 19 18 17 16 15 13 13 13 13 13 13 13 11 10 8 5 3 2 7 8 12 17 15 16 16 14 14 15 15 17 17 16 18 21 22 22 21
33 27 24 23 21 20 18 17 15 14 13 12 10 12 13 12 13 13 9 9 7 5 4 4 5 10 12 17 17 15 14 17 15 15 16 17 16 16 18 18 21 19 17
30 28 24 21 19 17 15 14 13 11 10 10 11 14 13 12 14 11 9 8 8 7 5 6 7 9 13 16 19 19 16 16 16 15 17 16 15 15 12 18 17 13 12
31 25 22 20 18 16 14 14 13 10 7 8 10 14 13 12 13 11 9 8 9 8 7 7 9 10 14 15 15 19 18 15 14 12 14 14 15 14 12 12 12 14 15
26 24 23 20 17 14 12 11 9 10 9 8 12 13 12 12 11 10 8 8 7 6 6 7 9 12 15 15 14 14 15 14 13 14 14 16 16 14 13 14 15 17 19
26 23 20 17 13 9 6 6 9 12 13 12 12 10 9 9 9 8 6 6 8 7 5 3 8 12 14 14 15 14 13 12 12 12 12 14 16 13 10 12 11 13 18
25 21 18 16 12 9 8 9 11 12 13 13 10 8 8 9 8 8 9 9 10 10 8 8 10 12 16 14 13 11 10 9 10 10 11 12 16 15 15 14 15 15 17
23 21 19 16 11 8 8 10 12 15 16 14 12 12 13 13 13 12 12 11 11 11 11 11 11 13 12 10 10 10 9 8 9 10 12 16 17 17 12 9 9 10 13
23 21 19 16 11 10 12 14 16 18 17 16 15 12 10 9 9 10 11 11 11 10 9 7 5 6 8 9 9 10 10 9 9 7 8 11 11 12 10 13 14 16 17
19 19 19 17 14 13 12 17 18 19 18 16 14 12 10 8 9 9 10 9 9 8 6 5 5 6 6 6 7 8 9 12 14 13 13 14 15 16 17 19 19 19 20
18 17 18 19 17 16 16 16 18 18 17 16 14 11 9 8 7 7 7 7 7 6 5 4 4 5 6 6 6 7 8 9 11 12 13 14 15 17 18 20 21 24 25

GFSGL_500_spd_069.txt.gz
Wind_Speed
73 71 69 66 61 59 58 55 55 48 48 52 51 44 43 39 37 38 36 31 33 30 28 30 26 25 27 29 29 27 25 23 23 25 24 23 21 20 18 18 16 20 20
71 72 70 68 63 60 57 57 55 51 49 52 49 47 41 36 36 37 35 33 31 29 30 29 25 27 29 31 30 29 27 25 24 25 26 23 21 18 13 15 15 14 18
72 68 69 69 65 61 58 57 54 52 49 45 47 44 38 37 37 35 34 33 31 29 30 28 26 29 31 32 32 31 29 27 27 26 26 22 21 18 14 16 17 20 22
75 70 66 67 65 61 58 56 56 54 49 45 44 38 37 39 39 35 35 33 32 30 29 28 28 31 32 33 33 32 30 27 27 28 27 24 20 19 16 15 12 17 23
78 70 65 66 66 63 61 57 57 52 46 43 42 39 37 40 36 37 36 32 31 29 29 27 29 32 33 34 32 31 30 27 28 28 25 24 20 20 18 15 12 17 19
72 71 66 66 64 62 62 60 58 53 47 41 38 37 38 35 37 37 32 30 31 29 28 28 30 32 32 31 30 29 28 28 28 29 27 23 21 21 19 18 15 17 18
58 57 62 63 62 61 63 62 57 50 46 37 37 37 36 36 35 32 30 29 29 27 27 28 29 28 28 27 27 27 27 28 29 27 25 23 21 21 20 17 18 20 20
41 53 56 61 62 61 62 58 54 49 44 39 38 36 35 35 31 30 29 27 26 26 27 27 27 26 26 25 25 26 27 29 26 22 20 19 20 18 18 18 17 22 23
35 48 54 58 58 61 59 56 52 48 40 38 36 35 36 32 30 27 25 25 25 26 26 26 26 25 25 25 24 26 27 23 19 16 16 19 19 21 20 19 17 20 22
43 48 48 52 57 56 55 53 50 42 39 37 35 36 34 28 27 26 25 24 24 25 26 26 24 25 24 23 24 24 19 15 13 13 19 22 19 20 20 16 16 19 25
40 42 49 46 47 52 53 52 47 41 39 37 36 34 29 27 27 25 23 23 23 24 24 23 24 22 22 24 23 19 13 13 14 13 19 22 20 21 18 19 19 23 23
34 33 43 39 39 45 50 48 44 41 36 37 33 30 29 28 26 22 21 22 23 22 21 22 21 21 23 23 17 14 13 14 13 12 16 20 21 19 19 19 21 22 20
32 32 39 42 39 40 41 41 40 40 36 34 30 30 28 25 21 20 21 20 21 21 20 20 19 20 19 15 13 13 12 12 12 13 12 19 17 18 20 19 19 20 20
34 38 41 42 38 38 38 39 38 42 38 32 30 27 24 22 21 20 21 20 18 19 19 18 16 15 13 11 12 11 10 10 10 10 10 12 14 17 18 17 17 17 18
31 38 40 41 39 38 34 35 38 34 35 33 29 25 22 19 18 20 21 19 17 17 17 15 12 11 11 12 10 10 9 8 9 9 12 14 12 14 16 16 15 16 16
32 40 41 42 39 39 38 32 29 30 27 23 19 17 16 18 20 20 20 18 17 16 15 14 11 9 8 9 11 8 6 8 11 11 12 14 11 13 15 17 16 15 14
39 41 38 46 42 38 36 32 27 24 21 19 19 20 19 20 21 19 18 17 16 15 14 13 10 8 7 10 12 9 8 8 10 12 12 11 11 12 12 13 14 15 15
38 35 39 42 36 37 33 29 25 23 21 20 19 19 18 17 17 16 16 15 15 14 14 12 10 10 9 11 13 11 12 11 10 11 12 13 12 12 12 12 13 15 15
33 38 33 38 38 34 29 24 22 20 18 18 17 17 17 16 16 15 15 15 15 13 13 12 11 10 12 12 14 12 10 10 10 10 10 11 12 12 12 12 13 15 16
36 42 37 35 32 27 25 23 20 17 17 17 17 18 15 15 14 13 16 15 14 13 12 11 12 11 12 14 15 16 14 10 8 8 8 9 10 10 11 11 10 9 8
34 34 33 29 27 25 21 17 17 17 16 15 15 15 15 16 14 15 16 13 11 10 11 12 12 12 13 14 13 14 14 14 12 11 10 10 9 9 10 11 10 9 10
33 30 28 26 21 18 17 19 19 17 16 15 16 15 16 16 15 14 12 10 9 8 8 8 10 13 13 14 14 13 14 13 12 12 12 11 10 11 13 14 11 11 13
27 25 22 21 19 18 16 16 17 17 17 17 15 16 15 14 13 13 12 11 10 8 6 6 12 13 14 13 13 12 12 11 11 10 10 9 9 10 12 16 16 16 15
25 25 23 20 17 16 16 19 19 20 19 17 14 13 13 14 15 14 13 12 11 9 7 8 12 15 12 11 10 10 10 9 9 10 9 8 7 8 10 13 16 18 15
26 25 22 20 18 18 17 18 19 19 17 15 14 14 12 12 13 14 13 13 12 10 8 9 11 11 9 9 8 7 7 6 7 9 9 8 8 9 11 11 11 12 13
26 25 21 19 18 19 20 21 22 20 17 15 13 12 11 10 10 11 11 12 11 10 11 12 11 10 11 10 9 8 9 9 9 8 9 11 11 15 16 17 16 17 18

GFSGL_500_spd_072.txt.gz
Wind_Speed
63 63 66 65 64 64 62 61 60 57 55 54 54 52 48 50 50 48 46 38 36 33 33 35 33 31 30 29 28 27 26 27 29 30 30 28 26 25 24 22 23 20 17
69 67 64 64 64 63 61 58 56 53 51 51 49 46 45 46 45 42 44 37 35 32 33 35 33 33 30 29 28 27 27 29 31 33 30 29 27 24 23 21 21 15 17
76 74 70 68 66 65 62 57 52 51 48 48 46 45 46 44 43 44 40 39 35 32 34 35 34 32 31 29 28 28 29 30 32 34 30 27 28 25 25 20 19 17 18
80 80 77 72 71 67 62 61 56 53 51 46 41 42 43 41 42 38 36 39 35 35 36 35 35 30 31 29 28 29 30 31 32 33 29 26 27 25 24 20 20 20 23
63 80 83 80 73 69 64 63 59 55 51 45 44 43 41 39 38 37 40 40 36 36 36 35 33 31 31 29 28 30 31 31 32 33 28 27 28 26 23 20 19 16 15
56 54 72 85 80 70 67 63 61 57 53 50 47 44 40 38 35 39 39 36 36 37 35 32 31 30 30 28 29 30 30 30 32 29 28 28 28 26 22 18 18 13 14
48 55 57 68 82 74 67 63 60 57 56 52 48 44 39 36 36 37 35 34 35 35 31 29 30 29 28 27 28 29 28 30 29 28 29 29 27 24 20 20 19 16 18
42 48 50 57 73 75 70 64 61 59 58 53 52 44 39 36 35 35 34 35 34 31 28 28 28 27 26 26 28 28 28 28 27 29 30 27 22 19 21 21 20 18 18
39 39 40 45 54 68 68 64 61 59 58 56 50 44 38 35 35 34 34 34 29 27 25 26 27 25 25 27 27 28 27 27 28 28 27 21 21 20 23 23 22 19 20
32 35 41 43 46 61 64 61 58 57 57 53 49 42 37 36 34 34 33 29 27 25 24 26 25 26 27 26 28 27 26 27 26 21 16 12 17 22 24 22 23 22 20
23 48 32 37 48 57 59 58 58 58 53 50 44 39 37 35 35 31 28 28 25 23 25 25 25 25 24 27 27 27 29 27 15 14 12 16 16 26 21 21 22 22 19
30 28 32 22 49 54 57 58 56 54 50 45 38 37 37 35 29 30 28 24 22 23 24 23 22 22 25 25 26 29 20 13 13 14 15 17 21 23 20 19 18 15 19
27 31 35 46 51 52 54 55 52 49 47 39 37 36 34 30 29 28 25 22 23 23 20 20 21 22 22 23 24 15 12 11 12 13 14 16 16 24 21 18 17 18 18
33 27 44 44 44 45 46 48 48 47 42 38 36 35 33 32 31 26 23 23 23 20 19 20 21 21 21 19 15 11 10 12 11 11 12 13 15 20 17 17 16 15 17
34 24 44 41 42 39 43 44 42 39 35 34 37 35 39 33 26 24 22 21 21 20 19 18 18 18 16 12 11 11 11 10 10 10 11 11 11 13 15 16 16 14 14
33 34 38 42 38 37 37 37 37 37 39 44 39 32 26 23 22 21 21 22 20 19 18 17 14 16 12 10 10 11 10 9 10 9 8 11 11 12 13 14 15 12 13
33 34 37 37 37 36 38 38 37 36 34 32 29 23 21 21 21 21 19 19 19 18 17 14 14 14 10 11 12 12 10 9 11 11 10 12 10 10 11 13 14 14 14
32 34 34 37 35 41 39 38 32 27 21 24 27 24 21 20 20 20 20 19 18 16 15 14 13 11 11 12 15 14 11 10 11 12 11 11 10 10 11 12 12 13 14
31 32 32 32 30 32 36 36 32 29 27 25 23 22 20 19 19 18 18 17 16 15 15 14 12 12 12 13 16 13 12 12 10 9 9 10 11 11 12 12 11 13 14
30 25 21 29 26 28 31 28 24 22 22 21 19 18 17 15 15 16 16 16 16 15 14 13 13 13 13 14 15 16 13 10 10 10 9 10 11 12 12 13 14 15 14
29 23 22 24 30 27 24 23 24 22 20 18 17 16 16 15 15 15 14 15 14 14 14 14 13 14 14 15 16 17 16 13 11 10 10 10 11 12 12 12 12 12 10
29 25 33 33 31 26 25 24 21 19 18 16 15 16 16 16 15 13 12 13 12 13 13 13 13 14 15 15 16 16 15 16 15 12 11 10 10 10 10 11 12 10 9
33 31 30 27 26 25 23 21 20 19 18 15 15 14 14 15 14 13 13 12 12 12 11 11 13 14 15 14 14 13 11 12 11 11 10 10 10 9 10 12 14 15 14
30 27 26 24 22 21 20 20 19 20 18 18 23 21 12 14 15 13 12 12 11 10 9 9 12 13 14 13 12 11 11 10 11 10 11 11 10 10 10 10 11 14 17
28 27 25 22 19 18 18 18 19 19 17 14 13 13 14 14 14 14 14 12 10 8 8 10 12 14 13 13 12 12 11 10 10 10 10 10 8 5 8 8 10 13 14
26 24 21 19 18 19 20 21 21 21 18 17 16 16 15 14 14 14 13 13 13 11 9 11 13 13 12 11 9 9 10 9 8 5 7 9 11 12 15 16 18 17 18

GFSGL_500_spd_075.txt.gz
Wind_Speed
55 57 60 62 63 64 64 61 58 68 67 66 66 65 64 65 61 53 50 53 49 46 40 35 35 36 35 32 32 35 33 29 31 35 31 30 29 32 28 28 23 23 23
58 59 59 60 63 64 63 62 61 60 59 60 63 69 70 70 63 54 53 49 45 43 38 34 33 36 33 34 33 33 33 30 32 33 33 30 30 30 27 27 25 23 20
61 63 63 62 63 63 63 62 60 58 57 57 55 50 50 53 53 51 48 46 42 41 34 35 36 35 34 35 34 33 32 32 33 34 32 31 30 30 26 27 24 22 18
60 67 69 68 67 66 65 63 61 60 56 53 52 50 48 48 50 48 44 42 41 34 34 38 37 35 35 36 33 35 33 33 32 34 31 30 30 30 27 26 24 20 18
55 58 69 73 73 72 69 65 63 61 57 53 51 48 47 46 47 45 41 40 31 30 33 35 33 35 35 34 35 33 34 33 32 33 32 29 30 28 26 26 22 19 18
61 57 61 72 77 77 76 72 67 63 57 54 50 48 45 43 41 38 36 31 30 32 33 34 35 35 34 34 35 33 33 32 31 32 28 30 28 28 26 25 22 18 15
67 57 58 62 69 80 80 79 73 65 59 53 50 49 44 40 37 35 32 29 30 34 33 32 33 33 33 34 34 33 31 30 31 31 29 29 27 29 27 25 20 17 14
55 44 48 50 54 64 79 82 77 70 61 52 49 46 44 40 35 34 30 30 31 34 32 33 33 30 33 33 32 30 29 30 30 30 30 28 28 27 26 21 18 18 16
52 48 51 50 48 53 63 77 80 71 61 52 49 46 43 39 37 33 32 31 33 32 32 32 31 31 30 31 29 29 30 29 30 29 29 30 28 25 21 18 21 21 18
37 36 36 38 40 53 56 61 78 74 63 54 50 45 44 43 37 32 32 33 32 32 31 30 31 30 30 27 28 29 29 28 30 30 30 30 23 19 20 24 25 23 20
21 32 35 33 37 36 50 55 69 72 62 55 49 48 45 42 34 33 34 33 31 31 30 30 29 30 27 27 27 25 28 30 30 34 33 21 18 12 14 20 22 23 23
26 22 29 35 36 39 42 53 60 62 57 52 49 46 45 38 35 34 33 32 29 30 30 28 27 25 25 25 23 25 27 29 26 15 15 16 14 14 15 21 24 21 21
21 20 21 31 42 46 47 53 57 55 54 50 45 45 38 33 34 33 32 29 30 29 25 28 24 21 22 22 23 24 25 18 13 12 14 15 14 19 17 21 19 18 16
13 15 25 40 28 46 56 55 57 54 49 47 46 38 34 34 31 30 30 28 28 29 27 23 21 20 21 21 23 25 16 13 11 12 13 13 13 11 18 19 18 16 15
15 8 1 6 32 62 60 55 51 49 47 42 36 33 30 29 30 32 30 30 26 25 24 21 19 19 18 18 19 14 12 11 10 12 11 10 9 12 21 19 18 16 15
27 28 28 33 35 64 53 48 48 45 43 41 37 35 34 33 32 31 29 27 27 25 21 18 18 17 16 16 13 12 10 9 11 11 11 10 8 8 10 13 14 15 15
24 24 33 41 40 41 42 41 39 40 39 37 36 34 33 35 32 31 29 28 25 21 18 18 17 16 13 14 12 12 10 10 9 8 7 6 8 8 10 12 14 15 14
29 30 36 33 34 35 34 35 37 37 34 35 35 36 32 25 27 27 26 24 21 19 18 17 15 14 12 12 11 12 11 9 9 10 8 8 9 8 9 11 12 14 14
30 31 33 29 30 31 31 32 30 32 34 35 36 36 30 25 26 25 23 21 19 18 17 15 15 13 12 11 11 13 14 11 8 9 10 11 11 10 10 11 12 13 14
27 28 27 27 27 27 28 27 26 26 26 26 30 28 26 25 22 21 19 19 19 17 16 16 13 12 12 11 11 14 14 11 11 9 9 9 11 11 11 12 13 13 13
22 28 27 26 21 27 31 26 30 24 21 22 24 23 20 18 18 18 17 17 16 16 16 14 12 13 12 12 12 14 14 12 9 8 8 8 8 8 9 10 12 13 14
21 23 23 24 27 34 31 29 26 25 25 23 21 20 20 19 17 16 15 15 16 16 14 12 13 12 13 14 13 15 15 15 13 11 11 10 9 10 10 11 11 10 10
22 19 19 31 31 28 28 27 25 23 21 20 19 19 18 16 16 16 15 16 15 13 12 12 12 12 14 13 13 13 14 14 14 13 12 10 10 10 10 11 11 12 14
30 32 30 28 28 26 24 21 19 21 20 19 18 17 18 18 17 16 15 13 12 11 11 11 11 12 12 12 12 12 11 10 10 11 12 12 11 11 10 9 10 11 13
30 27 25 25 24 22 20 20 20 18 15 13 14 20 16 17 16 15 14 12 11 10 10 10 11 12 12 12 12 12 11 10 9 9 10 10 11 10 7 7 10 9 13
28 26 24 22 20 20 19 18 16 16 16 14 16 19 18 16 15 14 14 13 11 9 10 12 13 14 13 11 10 10 10 10 10 8 8 10 10 10 12 14 16 18 21

GFSGL_500_spd_078.txt.gz
Wind_Speed
45 47 49 51 53 53 48 47 53 55 66 67 63 66 66 65 53 56 52 50 48 42 42 41 43 43 39 36 36 36 31 33 31 35 32 30 33 33 30 31 29 25 26
46 47 48 48 50 53 55 57 58 55 52 60 66 67 71 69 57 54 54 51 50 47 45 43 46 44 38 37 37 36 33 32 30 35 33 32 33 33 30 30 28 25 24
45 47 49 51 52 53 54 55 57 55 57 55 54 54 55 56 59 59 53 53 54 49 52 49 45 39 38 40 38 37 35 30 31 34 36 35 31 31 30 29 27 25 23
44 46 46 50 54 56 57 57 56 55 56 55 55 54 53 48 47 46 45 44 45 43 44 43 41 37 39 38 36 35 33 29 32 34 38 35 32 32 31 28 26 24 23
43 43 45 48 52 58 60 60 60 59 56 54 53 50 50 47 45 44 42 40 39 39 40 38 36 37 37 31 31 32 31 31 34 36 36 34 31 30 29 27 25 25 23
47 47 48 50 55 57 61 65 64 62 61 58 54 50 47 44 42 42 40 40 39 41 39 36 34 37 30 28 29 30 31 32 36 37 35 32 30 29 29 26 25 27 22
49 52 52 54 57 58 61 68 70 69 65 62 58 51 47 44 43 41 41 41 40 40 36 33 36 32 26 28 28 27 30 33 37 36 34 31 29 29 28 24 22 25 21
52 53 56 61 65 65 64 65 72 74 72 66 61 53 49 45 45 42 39 38 41 38 33 32 32 27 26 26 27 29 31 34 34 34 34 31 30 28 27 28 27 24 20
59 58 59 62 63 61 58 57 66 72 77 71 65 58 51 46 47 44 41 42 40 35 31 30 27 26 23 26 28 30 33 33 33 34 32 31 32 29 27 27 21 19 17
56 55 57 59 60 63 58 58 51 56 70 75 67 60 54 49 49 46 45 43 39 32 32 26 25 24 22 28 29 31 34 33 32 31 30 32 31 31 30 30 25 25 23
48 51 52 50 46 43 44 46 50 48 60 75 68 61 56 51 48 47 46 43 34 34 29 25 23 23 25 28 30 32 32 31 29 30 30 31 33 26 19 18 18 22 23
44 47 46 51 44 36 36 37 41 47 49 70 71 64 55 48 48 46 44 36 34 30 27 21 22 24 26 28 29 31 30 26 29 27 27 20 18 15 14 15 14 18 20
40 38 36 38 37 43 36 38 41 48 48 59 67 60 51 48 46 48 44 37 31 27 22 20 24 25 27 27 27 27 26 27 26 27 20 17 16 15 16 15 16 15 20
34 34 31 27 28 34 31 34 34 40 45 57 59 56 49 46 49 44 31 27 26 24 19 22 24 24 26 26 25 24 23 23 20 16 15 16 15 17 18 14 14 11 14
16 16 18 11 7 16 31 33 37 47 60 58 54 48 47 54 34 28 28 28 25 22 22 24 24 25 25 23 21 19 19 18 15 15 12 12 12 13 13 13 15 19 16
7 8 11 21 27 34 43 49 59 59 56 51 48 45 33 29 27 30 30 27 23 24 24 23 24 23 22 20 17 16 16 15 13 11 10 9 10 10 9 15 18 15 15
15 26 20 29 43 54 57 58 55 57 58 47 37 37 35 30 30 31 28 24 24 24 23 23 21 21 19 16 15 16 14 12 10 8 6 6 6 5 7 7 12 15 16
26 30 34 37 49 56 48 30 43 33 40 39 39 36 34 32 29 26 24 23 25 25 23 22 21 19 17 16 14 14 11 10 8 7 5 4 4 4 4 6 9 11 13
20 36 23 50 45 33 35 39 38 35 33 30 30 31 29 28 29 27 27 28 27 22 23 22 19 17 16 15 14 11 11 10 8 7 7 8 7 7 6 6 8 10 12
22 24 33 35 35 34 34 33 32 31 30 28 26 23 24 25 27 27 26 27 24 23 22 19 17 17 16 14 11 11 11 11 10 9 6 6 7 8 9 9 9 10 11
26 25 22 27 30 32 28 28 27 25 24 23 25 27 28 27 28 27 25 24 23 22 20 18 17 16 15 12 10 10 9 11 9 11 7 6 5 6 6 7 8 9 12
26 26 22 21 24 20 18 25 24 23 22 21 24 26 27 27 23 24 23 21 20 18 17 17 17 14 13 11 11 11 10 11 11 9 7 6 7 7 7 8 9 9 10
19 19 15 17 17 21 27 27 26 24 21 22 25 27 26 24 22 21 21 20 19 18 18 16 15 14 13 13 13 11 11 12 13 12 11 9 9 9 9 8 9 10 10
29 24 25 27 32 29 30 27 25 25 24 23 23 24 24 23 19 19 19 17 17 18 15 14 13 12 10 10 10 9 10 9 10 11 10 10 9 10 9 9 8 9 9
22 24 31 29 28 26 24 23 22 21 20 20 20 19 19 19 20 18 15 15 15 13 12 12 10 10 10 12 12 11 11 11 10 9 9 9 9 10 10 9 7 8 11
24 26 26 25 25 25 22 21 22 21 19 17 17 16 16 18 17 16 15 14 13 13 13 12 12 14 14 13 12 11 11 11 10 9 7 8 10 11 11 12 13 14 16

GFSGL_500_spd_081.txt.gz
Wind_Speed
40 42 44 46 48 48 47 44 39 37 41 57 56 60 62 60 53 53 52 44 39 33 35 42 40 36 29 32 33 32 34 34 35 32 32 31 30 29 29 29 28 26 27
40 40 42 42 43 45 47 48 46 46 42 38 48 52 56 58 57 59 50 47 44 43 44 50 42 34 32 36 33 35 34 35 35 35 33 32 29 30 30 29 30 27 26
40 40 41 42 43 44 44 45 46 47 48 47 43 44 44 47 51 59 57 51 52 52 47 47 43 38 36 36 33 36 34 34 33 34 30 31 29 30 30 28 30 28 25
42 41 45 44 44 44 46 46 47 47 46 48 49 47 47 47 45 48 47 49 47 47 50 47 40 39 37 33 34 35 35 32 31 30 29 29 29 30 28 27 30 27 27
45 43 44 43 43 46 48 49 50 50 49 49 48 48 49 50 49 45 44 39 37 38 39 40 38 36 35 32 32 35 32 31 32 30 29 28 28 31 29 28 29 29 27
40 42 45 47 47 47 48 51 53 53 53 54 52 50 50 51 48 47 47 41 37 39 40 37 36 36 33 30 34 32 31 32 30 30 25 28 28 29 29 30 28 30 27
43 45 46 49 50 48 48 48 51 55 57 57 56 53 51 47 45 46 44 44 45 44 40 36 36 34 31 32 34 31 30 28 28 28 27 28 28 29 28 29 29 28 26
49 49 49 49 49 50 49 49 50 53 55 61 60 58 55 50 46 44 44 45 46 44 40 38 36 32 29 32 31 30 27 27 25 27 26 28 30 31 29 29 29 26 27
57 58 55 55 54 53 52 54 57 57 58 60 66 63 59 55 49 45 44 45 44 41 38 36 34 32 29 30 30 28 23 26 25 26 27 29 31 32 30 31 28 27 25
63 62 64 62 61 59 59 59 61 61 60 62 66 70 64 58 52 48 44 47 44 41 39 36 36 32 30 29 28 23 23 24 25 27 28 30 31 32 33 32 33 34 30
60 62 68 70 67 64 63 62 63 59 58 54 54 68 70 62 54 51 48 49 45 43 39 37 36 28 29 26 24 22 23 22 24 26 29 28 30 31 33 28 22 17 18
51 55 59 64 63 63 64 58 50 48 46 50 59 51 72 66 58 53 51 50 49 44 40 35 33 29 27 24 22 22 20 22 24 26 26 29 30 28 23 17 13 12 14
54 56 58 59 55 51 48 49 50 48 39 39 43 46 65 72 62 56 53 51 50 46 41 36 32 29 24 22 21 18 21 21 23 24 27 28 24 20 17 17 14 15 16
36 36 39 43 45 45 46 49 37 38 33 34 36 36 59 74 62 57 53 52 53 51 42 37 28 25 23 21 18 18 19 21 22 23 21 17 17 17 17 17 18 20 19
33 40 43 40 38 40 35 34 45 40 40 36 36 40 63 69 60 56 53 56 55 36 33 29 27 23 21 18 17 17 18 20 20 19 16 15 15 15 15 14 17 17 19
18 19 15 15 10 17 16 30 31 36 39 42 39 57 69 66 63 59 55 48 43 39 31 28 24 21 19 17 15 15 18 18 17 15 13 13 14 13 13 15 17 12 16
26 16 8 4 13 5 23 29 34 36 40 47 59 67 70 66 60 55 48 42 33 29 26 23 22 18 16 15 14 17 16 16 14 12 10 9 8 6 6 3 12 11 11
9 7 10 13 6 10 20 24 33 43 51 63 67 65 66 49 52 47 41 32 27 24 24 23 18 16 16 15 17 17 15 14 11 10 10 5 3 1 1 3 6 9 11
18 25 31 32 38 37 50 56 55 58 64 70 55 50 44 50 42 38 33 29 27 26 23 20 19 17 15 16 17 15 14 13 12 10 9 8 6 4 4 4 5 7 9
33 36 27 29 35 41 38 41 58 52 56 55 40 41 38 38 35 31 28 26 24 22 21 21 18 16 16 17 15 14 14 12 14 11 8 7 7 6 7 8 8 7 8
30 22 23 27 30 33 35 32 38 40 36 35 32 32 33 26 25 23 24 22 25 24 21 18 17 16 17 15 14 14 13 14 14 12 10 8 7 6 7 8 8 8 9
28 23 23 24 25 27 27 28 30 28 28 29 27 26 25 26 20 21 23 25 23 20 18 18 17 17 17 15 16 14 13 15 15 12 11 10 9 8 8 8 9 9 9
24 24 24 25 22 24 27 28 26 24 23 24 25 23 18 18 20 21 23 23 20 18 18 17 17 17 16 15 15 14 13 14 15 13 11 9 9 9 8 7 6 7 9
27 30 13 28 23 24 24 25 25 22 19 21 24 25 27 28 24 22 19 17 18 18 17 17 17 16 16 16 14 12 13 14 13 14 13 12 11 9 7 6 6 6 7
24 24 22 20 27 28 26 27 26 26 25 26 28 26 24 21 20 19 19 19 19 18 18 17 16 16 14 13 11 11 12 12 11 10 10 9 8 6 6 6 7 4 6
26 25 29 24 26 25 24 23 23 22 21 20 22 21 20 20 19 18 18 17 17 18 18 18 17 16 13 10 11 11 11 11 10 8 7 5 5 6 7 7 7 10 12

GFSGL_500_spd_084.txt.gz
Wind_Speed
40 39 47 48 47 51 54 54 55 51 50 47 49 62 63 69 75 77 74 56 64 57 47 37 32 41 27 24 27 32 36 37 33 32 30 28 29 27 26 29 30 27 27
34 35 37 43 44 44 46 50 52 52 47 43 39 38 44 53 69 72 56 50 61 43 36 37 38 34 30 28 30 34 39 40 35 32 30 28 29 25 28 30 30 26 26
37 36 33 36 39 39 41 43 44 45 45 45 43 41 39 42 47 60 65 57 53 49 41 40 35 35 36 35 29 36 46 38 36 33 31 29 27 25 29 31 29 27 25
33 31 31 32 36 36 38 40 43 44 43 42 42 43 43 40 41 48 50 50 54 47 45 42 42 41 37 40 39 41 41 37 37 32 32 31 28 27 29 29 28 29 25
35 35 31 32 35 38 39 40 42 43 42 42 41 41 43 43 43 41 42 45 49 46 48 47 50 43 40 43 40 41 37 36 36 32 31 31 29 29 28 28 28 28 26
36 32 31 33 34 40 42 43 44 44 44 44 44 43 44 42 44 43 41 40 40 39 41 40 39 38 41 41 40 39 37 37 35 32 33 28 29 28 28 27 28 27 25
37 40 39 40 37 36 43 47 46 46 46 46 47 47 47 45 43 41 40 40 40 39 37 34 35 38 38 38 40 39 37 35 35 32 30 29 29 28 26 28 29 28 25
50 50 44 44 42 41 43 45 50 51 50 50 51 52 51 49 49 45 42 40 38 37 37 36 37 39 39 42 43 35 38 31 30 29 30 29 27 27 27 28 29 27 25
49 43 47 48 49 53 51 50 48 49 51 53 55 57 55 53 53 51 45 42 42 39 39 38 41 42 40 45 40 40 34 28 29 27 28 27 27 28 28 29 30 28 27
56 57 57 62 64 63 56 58 58 53 50 51 54 57 57 58 58 54 50 46 43 40 42 43 45 45 46 49 41 35 26 28 27 25 27 26 26 28 30 30 29 28 31
62 65 67 66 64 61 58 55 60 61 57 53 52 53 54 60 63 60 55 49 45 42 43 45 44 44 47 42 40 29 26 24 25 25 25 25 27 29 30 31 27 24 23
63 63 63 63 63 65 66 66 59 60 61 57 57 56 55 55 65 63 61 53 49 46 46 46 43 45 42 41 29 19 21 23 21 23 23 26 28 29 29 27 21 19 16
46 46 47 50 49 51 54 54 56 56 55 55 56 53 51 59 61 66 67 57 52 49 48 44 45 43 38 36 19 17 22 21 20 22 25 25 27 24 20 17 15 17 16
42 44 47 50 48 49 51 53 55 58 58 53 49 46 44 52 56 65 69 60 55 52 49 46 46 42 40 34 20 23 22 20 20 23 23 23 21 17 17 16 16 17 16
32 33 36 39 42 45 47 47 45 42 40 40 42 44 41 42 47 58 69 61 57 53 51 47 44 41 37 22 26 23 19 19 20 20 20 18 16 15 15 17 17 17 16
32 31 25 25 25 26 29 41 45 53 51 45 43 40 39 45 50 56 65 61 60 57 51 46 51 48 31 28 22 19 20 18 17 16 16 13 12 14 15 15 16 16 14
5 7 15 20 21 14 15 23 27 33 38 39 43 40 46 46 49 61 68 67 66 56 45 43 44 31 28 25 21 21 18 15 13 14 11 9 9 11 9 8 10 8 8
17 27 9 19 12 21 15 27 28 26 28 47 43 42 48 43 55 71 72 62 54 48 49 46 31 28 25 22 21 19 15 11 13 11 9 9 9 6 3 3 3 4 6
13 16 14 20 17 11 18 21 27 29 36 45 45 40 45 55 66 57 54 48 46 49 38 35 32 28 25 22 19 15 12 13 12 9 9 10 10 8 6 4 3 4 5
19 24 31 32 30 27 26 22 25 31 34 36 40 53 62 61 52 51 50 45 43 34 32 34 29 24 20 19 16 13 13 12 10 10 11 10 11 11 9 9 7 6 7
16 15 30 32 29 29 27 32 38 44 50 56 57 59 59 60 50 38 48 43 42 36 30 27 25 22 19 15 14 14 13 10 11 13 13 10 10 10 10 9 8 8 8
25 27 36 33 32 35 35 42 42 45 47 50 48 53 50 40 47 36 36 32 30 30 27 23 19 17 16 14 13 12 11 11 12 14 13 14 13 12 10 8 8 8 8
27 27 30 34 39 38 42 32 35 48 37 48 49 43 44 40 36 33 30 28 28 25 22 19 18 16 14 14 14 12 11 12 14 16 15 15 13 11 9 8 7 6 6
22 24 29 30 30 34 34 34 36 37 39 39 40 36 31 31 31 29 27 25 23 22 21 18 16 16 16 16 12 11 12 14 15 17 17 16 13 11 9 8 6 5 5
24 23 23 23 24 28 28 30 29 29 29 29 28 28 28 26 25 23 23 22 21 19 16 15 16 16 15 13 13 12 14 14 16 17 17 15 12 9 8 8 7 6 6
27 22 22 22 23 21 20 22 24 24 26 26 26 25 24 22 22 22 20 17 16 16 16 16 16 16 14 12 13 15 15 15 15 13 11 9 9 9 8 8 7 8 10

GFSGL_500_spd_087.txt.gz
Wind_Speed
49 42 40 39 40 42 52 57 57 54 53 51 53 52 52 56 53 58 55 52 49 47 55 52 55 50 51 49 40 48 41 36 35 37 38 36 32 24 29 31 31 30 26
42 43 44 43 45 47 47 49 52 55 55 54 53 53 50 50 52 52 54 58 50 48 55 42 46 38 38 41 42 50 35 33 35 35 34 34 24 25 30 28 30 31 26
48 40 40 41 37 47 50 49 49 50 51 52 53 53 50 49 48 47 48 53 49 52 53 49 46 41 44 36 39 43 29 35 36 37 37 36 22 28 30 29 31 32 27
47 39 34 36 42 42 48 46 47 47 47 46 45 46 47 47 46 42 40 37 44 46 46 48 41 35 38 36 38 35 35 37 42 39 37 32 24 30 29 30 32 31 29
46 39 41 38 34 33 41 45 44 44 45 42 41 40 40 41 43 43 43 40 40 44 45 49 53 49 43 41 43 47 49 46 47 38 34 30 27 29 28 31 32 30 30
44 41 44 44 34 36 32 41 42 42 42 41 39 39 38 39 40 40 40 40 41 38 50 53 50 47 44 46 51 49 50 47 44 40 35 28 29 28 29 31 30 30 30
43 38 40 38 41 37 30 37 40 41 41 41 40 38 39 40 41 39 39 39 38 35 34 46 56 57 49 53 50 50 51 47 40 40 32 26 29 28 28 29 30 31 31
42 46 45 53 42 47 39 37 41 39 39 41 42 42 42 42 42 40 39 38 34 38 37 38 41 46 51 54 50 54 47 45 39 34 31 30 25 27 27 29 30 31 30
51 52 50 49 45 47 49 41 41 42 39 40 44 47 48 47 46 44 42 39 38 37 35 36 38 41 44 48 50 47 42 39 35 33 33 27 24 26 28 30 33 31 31
50 55 55 55 53 55 56 59 49 50 46 43 44 47 50 51 50 49 45 45 41 38 36 35 35 39 43 44 46 40 39 35 33 34 33 23 24 26 28 32 33 33 29
47 43 50 58 62 62 62 63 56 55 58 55 52 54 52 55 56 53 48 50 47 43 38 35 36 38 40 43 41 37 34 34 33 37 22 24 24 26 29 30 32 30 32
50 52 54 55 56 58 59 60 61 62 62 59 59 58 60 58 59 55 53 54 53 47 42 38 37 39 40 41 39 37 32 34 30 23 21 24 24 25 27 29 29 30 28
46 49 53 57 59 61 64 68 71 72 74 73 66 62 59 62 59 57 55 58 56 52 45 41 39 39 40 41 37 33 34 42 26 15 24 24 23 22 25 26 25 24 21
38 41 45 49 51 55 58 61 63 61 61 59 58 60 63 64 61 57 56 60 57 56 48 43 41 42 41 41 36 35 28 24 15 23 23 22 18 20 23 23 21 20 19
37 40 43 46 47 49 51 52 55 56 56 54 51 48 53 59 59 58 55 56 59 59 51 47 44 44 41 37 33 36 23 17 20 20 20 15 16 19 19 18 17 18 18
32 37 45 50 51 49 49 51 53 43 40 47 48 51 51 54 59 59 58 60 62 59 53 49 45 45 40 37 36 29 18 19 18 17 14 13 16 15 14 15 14 14 14
31 25 30 28 27 29 32 32 33 36 40 49 35 39 44 50 53 60 57 55 60 58 54 50 50 43 37 41 30 19 19 18 16 14 12 15 13 10 11 9 8 10 6
6 10 24 23 20 20 29 31 31 37 34 36 52 39 38 42 44 42 50 58 58 59 54 55 44 38 40 27 26 22 21 19 16 13 14 14 10 9 6 5 4 2 1
12 16 11 16 14 11 24 30 23 32 25 32 40 48 47 46 42 40 46 53 60 59 56 48 39 35 36 23 27 23 20 19 15 15 15 11 9 8 7 6 3 3 2
18 12 9 11 8 12 8 20 25 29 31 33 40 43 44 43 41 42 44 53 50 42 41 38 33 26 34 28 25 20 20 18 16 16 13 11 9 9 10 9 7 6 5
30 25 31 40 35 25 24 27 26 25 34 42 44 41 40 39 39 40 34 33 43 43 39 34 33 23 22 25 20 21 19 17 17 14 14 12 9 9 9 8 7 7 8
22 27 35 46 41 40 39 35 34 38 38 38 38 38 37 30 34 39 39 40 42 38 35 35 38 38 33 26 22 20 19 18 15 15 15 12 12 11 9 6 6 7 7
26 28 29 37 37 40 41 41 39 33 32 35 39 45 46 39 44 43 44 41 39 35 42 36 35 32 26 22 20 19 18 17 18 15 14 14 14 11 9 8 8 8 8
32 31 25 27 30 32 32 32 39 36 35 35 44 40 44 37 30 32 31 33 37 34 32 31 30 27 23 20 20 19 18 16 14 13 15 13 12 11 9 9 9 9 9
27 27 28 31 33 28 29 30 32 35 32 35 30 41 42 41 40 40 35 35 35 34 31 28 25 23 21 20 18 17 16 14 13 13 13 13 13 11 10 11 11 10 10
22 24 25 26 25 28 30 33 33 33 38 37 31 31 31 32 32 32 32 31 29 27 25 23 21 19 18 17 16 16 14 12 11 12 12 13 12 12 12 12 11 11 11

GFSGL_500_spd_093.txt.gz
Wind_Speed
57 59 55 54 52 53 56 57 57 56 52 50 52 54 57 58 62 63 59 51 50 49 47 44 42 43 40 56 51 49 39 43 47 44 47 42 40 43 36 45 40 34 31
55 52 52 55 58 60 59 59 59 56 54 48 50 53 55 52 54 57 56 53 48 45 46 42 38 39 46 46 43 41 45 37 40 39 39 37 35 37 36 42 38 36 32
48 52 44 54 58 57 60 67 63 63 57 52 48 48 51 50 48 49 53 51 47 44 42 40 37 36 36 38 46 43 37 35 38 40 34 39 34 35 34 36 37 36 31
41 48 62 57 46 41 56 52 56 63 62 51 47 41 38 39 41 42 44 45 47 45 43 40 39 38 39 41 45 49 40 32 34 42 34 36 32 32 35 38 30 36 28
43 42 43 49 50 48 50 48 42 38 33 43 46 39 36 36 38 37 39 41 42 44 45 43 42 42 41 41 40 49 50 41 39 42 38 34 35 39 43 38 33 33 28
47 47 44 43 44 55 50 44 44 33 35 39 41 41 40 38 40 39 38 39 41 41 43 45 44 44 42 40 40 42 54 45 39 45 43 36 40 40 36 28 28 31 28
46 50 49 47 44 41 40 42 44 41 43 43 45 43 40 42 43 41 40 39 39 41 42 43 43 43 42 42 41 40 44 52 38 45 38 33 39 42 35 31 29 32 33
49 46 45 46 48 47 44 44 46 50 52 49 46 45 43 40 40 41 40 40 39 39 40 40 40 40 41 41 39 37 43 49 42 44 34 33 32 36 36 36 35 36 28
51 53 54 55 54 53 50 50 50 43 50 53 51 49 45 40 38 42 40 39 40 39 40 38 37 36 37 38 39 37 37 47 46 44 40 37 38 39 41 41 39 35 27
56 52 53 52 52 52 54 54 53 54 49 50 58 54 52 42 40 39 40 40 39 38 37 35 34 32 34 36 36 34 27 37 49 48 44 40 38 36 37 38 36 29 26
62 60 56 54 52 49 50 49 49 52 56 56 59 61 51 41 32 34 39 39 38 37 36 33 32 30 30 30 32 29 26 28 29 38 40 40 33 33 34 30 26 27 23
52 59 59 55 54 53 52 52 51 50 52 53 60 55 52 53 44 34 37 38 40 37 37 35 32 32 30 30 29 28 24 23 25 29 29 34 37 34 33 26 22 19 20
40 45 54 59 58 58 56 54 55 51 53 55 58 55 53 52 53 43 39 37 39 38 36 35 35 33 31 25 27 24 20 21 25 25 21 25 27 32 24 19 19 21 21
32 34 37 44 53 57 57 55 53 53 53 56 56 55 54 54 50 48 45 42 44 39 38 36 37 35 31 27 26 21 17 18 21 24 25 27 31 19 20 22 19 20 17
27 30 32 35 40 47 55 59 61 59 57 56 56 53 54 58 58 54 54 54 49 44 41 38 35 34 31 31 25 22 18 17 19 22 25 29 19 16 23 20 18 15 17
23 28 32 35 37 40 44 48 53 56 60 60 60 58 56 56 59 59 57 53 53 51 44 39 34 27 29 31 24 25 21 19 20 21 27 22 20 23 21 17 15 16 14
31 35 36 39 40 43 46 48 48 47 49 51 56 61 63 64 65 62 57 56 53 54 51 42 36 27 31 31 25 25 19 21 18 22 22 16 24 23 18 16 16 13 15
12 17 24 28 27 26 39 51 52 53 55 57 57 54 53 53 52 52 52 58 62 55 51 50 38 32 34 30 26 23 18 23 20 22 17 22 23 20 18 16 14 15 13
20 18 21 23 17 22 20 20 32 36 41 40 45 53 57 52 49 45 46 42 46 55 53 47 39 38 35 29 24 24 21 23 19 20 29 26 22 21 18 16 16 14 11
23 14 25 20 21 15 20 19 24 30 32 29 26 26 35 46 55 43 34 37 38 42 50 46 40 37 34 27 23 24 24 20 22 31 27 24 22 18 18 18 16 13 11
15 17 26 15 9 8 4 6 20 22 25 23 22 24 23 30 35 36 35 32 30 34 44 46 38 35 30 25 26 26 20 18 22 29 24 21 18 17 18 17 17 13 14
25 29 33 27 21 19 21 23 28 28 24 22 20 24 30 32 38 36 36 32 34 36 41 40 37 30 30 31 32 20 13 19 28 22 20 19 16 17 16 17 14 13 13
41 31 37 38 31 25 24 26 28 29 31 32 30 27 27 32 38 41 36 42 42 41 39 36 35 38 35 31 25 25 20 22 21 21 19 18 15 16 16 13 12 12 10
45 49 41 38 41 44 42 42 42 45 39 36 37 32 33 36 37 36 33 36 39 40 41 43 41 37 32 27 28 27 24 18 18 18 19 15 14 16 14 13 13 10 7
43 44 49 52 39 39 41 45 43 38 37 34 32 30 33 41 42 41 42 47 47 47 47 43 38 32 29 27 24 20 19 19 20 21 15 13 15 17 16 15 12 8 8
31 33 34 39 40 48 49 42 38 37 32 32 33 35 41 49 52 50 49 46 42 41 42 33 29 25 24 24 22 19 20 21 19 15 14 15 16 16 16 14 10 9 11

GFSGL_500_spd_096.txt.gz
Wind_Speed
73 76 76 73 71 68 64 63 64 63 62 63 63 60 62 60 56 57 59 61 64 65 61 57 51 49 51 49 39 39 44 40 44 36 37 47 37 41 47 33 33 36 41
57 59 61 70 71 66 63 63 62 64 65 64 59 57 55 47 47 49 53 54 54 57 58 55 49 43 40 40 41 41 48 53 52 55 57 31 31 37 36 31 36 37 37
47 49 44 44 48 63 63 64 64 62 61 59 56 54 57 53 50 49 48 46 48 47 49 52 47 43 40 40 39 37 38 44 47 48 46 39 40 36 30 33 33 39 35
44 43 42 56 54 57 63 61 59 59 60 63 62 66 61 59 53 50 49 49 48 47 45 49 49 43 40 39 39 37 35 35 39 43 40 32 36 34 30 28 33 35 31
38 42 50 50 50 55 58 68 67 57 66 62 64 67 68 61 57 50 49 53 48 43 44 46 45 42 39 37 38 38 35 34 32 40 42 41 39 37 34 40 39 35 33
40 41 46 53 50 31 39 62 43 31 29 44 38 35 40 61 50 47 46 43 41 38 37 39 41 41 40 38 36 36 35 34 33 35 45 41 41 41 38 36 37 38 40
46 43 45 47 48 43 43 41 38 33 41 38 36 38 32 38 41 40 39 36 32 33 34 34 37 39 39 39 37 36 37 36 33 34 37 49 44 42 37 34 34 30 27
53 50 49 48 51 52 50 52 50 45 43 46 41 36 38 36 42 37 36 37 36 33 33 33 34 36 37 37 37 38 38 37 35 35 34 44 51 42 33 33 33 42 36
59 56 55 53 52 53 54 53 50 45 41 39 39 40 39 36 36 39 38 37 37 33 35 34 33 34 36 36 36 37 37 37 37 34 34 34 44 42 33 27 26 26 31
57 59 59 58 56 53 54 53 56 52 48 44 42 42 44 45 44 46 42 37 37 36 36 37 36 34 35 34 32 31 32 34 34 32 32 32 41 34 32 27 30 30 32
54 56 53 58 59 57 56 56 56 54 53 51 49 49 45 45 48 50 49 44 38 37 37 38 35 32 33 33 30 28 28 29 29 30 27 26 34 32 30 25 29 29 27
36 44 49 46 53 60 60 57 59 57 55 54 51 52 52 48 46 49 53 47 40 40 38 38 36 32 33 31 29 26 24 24 23 23 22 17 24 30 29 29 31 26 26
36 42 46 51 48 55 62 61 57 56 52 50 51 48 48 55 53 50 49 47 41 40 39 38 38 35 35 32 27 24 22 24 21 22 19 18 25 26 29 33 32 27 25
26 30 34 41 44 45 52 58 60 58 57 53 50 48 46 48 55 51 48 49 47 32 33 37 38 38 36 31 27 23 22 21 20 18 19 18 22 23 27 30 24 19 22
20 24 29 34 38 40 41 47 55 59 58 56 52 50 48 44 50 48 48 49 50 45 35 34 38 37 33 30 28 24 21 20 18 19 20 20 21 24 24 25 23 23 21
22 26 29 33 36 39 41 43 46 52 60 60 58 54 49 48 50 52 48 48 47 44 38 36 33 30 31 29 27 26 21 20 20 17 17 18 21 22 20 14 20 21 16
28 31 32 33 35 37 39 41 43 44 47 56 60 59 56 52 52 54 54 52 50 49 42 37 31 27 28 28 30 27 23 23 19 18 19 21 24 26 8 19 21 18 16
23 28 33 37 34 45 53 48 43 44 44 45 49 55 57 56 52 55 56 58 55 52 47 40 35 27 32 29 30 27 25 21 22 23 18 22 22 18 20 24 21 16 14
34 13 11 9 13 20 20 27 35 49 54 45 45 45 47 50 54 54 56 58 55 54 50 47 38 32 34 31 30 27 25 22 23 20 26 21 17 18 20 20 16 15 12
24 19 15 13 16 18 26 27 31 38 40 51 54 46 47 47 48 50 53 52 52 50 51 50 44 38 37 36 31 28 26 23 20 20 18 13 15 17 18 16 16 16 13
27 22 16 10 14 9 6 17 19 23 28 34 37 42 48 49 48 45 41 39 36 43 46 49 47 42 39 39 32 29 26 28 23 22 23 22 22 19 17 16 18 15 12
29 23 16 15 15 12 5 8 22 18 21 23 25 27 29 32 38 46 40 38 39 38 42 40 42 39 41 34 30 31 30 27 26 25 22 20 20 20 18 18 16 14 13
31 34 31 23 19 19 18 21 21 20 20 22 22 22 23 24 26 35 43 38 36 36 33 36 44 43 37 32 35 31 28 28 29 23 25 23 21 20 19 17 16 14 12
32 35 40 42 40 38 38 37 34 30 28 30 31 28 33 37 42 42 41 39 36 37 44 45 42 37 35 36 31 31 29 26 21 20 24 21 20 20 18 15 14 13 11
32 29 34 36 37 36 33 31 33 33 31 33 33 36 40 40 37 35 37 41 49 50 45 41 38 39 39 33 35 30 26 25 26 21 20 19 18 18 18 15 13 13 11
36 34 34 33 34 34 34 33 33 33 40 46 47 46 41 44 47 49 49 49 48 45 42 41 41 37 36 36 35 30 21 25 23 20 19 17 18 19 17 14 14 13 12

GFSGL_500_spd_102.txt.gz
Wind_Speed
55 56 57 58 60 61 63 63 65 67 68 70 69 70 73 70 70 70 70 59 63 54 40 41 34 35 39 40 42 44 44 42 43 37 38 38 38 36 36 38 37 31 31
56 54 50 50 50 48 48 51 56 62 64 68 72 73 74 74 73 76 67 50 61 46 47 48 38 41 44 45 44 46 45 43 46 42 39 38 33 35 36 37 37 27 24
54 50 47 47 47 47 44 43 46 47 54 63 59 68 74 74 70 73 73 65 48 46 43 50 47 43 44 43 43 47 47 43 42 41 44 32 30 30 32 34 39 41 29
48 50 51 53 52 49 46 44 46 47 49 54 53 63 49 55 71 68 69 64 67 53 51 49 45 40 37 42 40 41 42 40 37 40 39 26 28 32 33 33 34 33 23
55 56 58 59 57 53 50 48 48 48 46 49 58 44 43 53 64 67 66 65 63 55 49 44 44 39 36 40 41 40 41 40 38 38 36 32 32 32 34 36 35 33 29
66 68 68 65 63 61 54 50 48 51 49 41 43 37 25 50 52 40 42 73 58 56 48 45 41 38 38 37 38 36 33 36 41 42 38 32 33 34 34 35 39 39 33
73 74 75 75 72 65 61 56 51 51 53 40 41 53 30 39 30 29 30 48 50 51 46 42 44 36 43 35 32 32 33 35 35 40 37 35 34 35 32 34 37 38 40
58 60 63 63 64 62 67 61 58 50 52 43 40 49 50 40 40 31 30 27 35 42 45 45 40 42 41 37 34 34 34 34 34 35 37 37 35 33 32 32 35 36 38
52 59 58 58 57 53 51 62 59 54 51 47 36 46 42 46 50 47 43 36 34 40 45 45 43 43 39 34 31 33 30 30 32 33 38 37 34 31 32 31 32 34 29
56 58 58 54 51 45 44 44 59 55 50 48 39 36 36 54 54 59 38 29 25 21 30 36 37 35 34 32 31 30 25 27 29 31 34 34 32 31 30 29 24 27 29
54 53 50 47 42 38 37 38 50 58 52 49 44 37 40 32 38 42 40 31 29 30 28 23 34 34 31 31 30 29 24 25 25 25 26 26 26 25 25 25 22 23 22
49 47 43 40 37 32 30 33 35 56 55 51 46 43 39 45 38 42 39 38 29 33 34 32 29 33 34 32 27 29 25 24 21 21 20 22 23 22 22 22 22 21 22
49 43 39 33 29 25 24 28 31 52 54 51 48 44 45 39 41 39 39 38 39 35 30 37 28 28 31 30 27 26 24 21 20 20 20 20 20 18 20 19 20 21 22
38 40 38 32 25 22 22 18 24 35 54 53 49 47 43 44 43 42 40 37 35 33 32 29 31 32 30 27 27 28 23 20 21 21 21 20 19 18 18 19 20 23 20
37 29 30 29 27 23 21 21 17 28 38 48 46 50 48 46 48 43 45 44 36 32 30 33 34 35 33 29 29 29 27 21 23 23 21 20 20 17 19 21 22 21 25
29 26 27 26 29 25 22 22 25 23 33 40 45 48 50 45 43 49 36 38 36 34 38 37 35 33 36 35 33 32 31 23 25 23 22 19 19 16 17 20 22 24 14
37 34 31 27 17 27 26 24 23 29 35 38 39 41 49 50 45 45 44 40 37 35 37 41 39 34 30 33 35 35 32 26 26 25 23 20 19 16 20 25 21 11 11
31 27 21 15 16 14 19 30 27 28 30 36 41 41 42 47 51 46 40 36 32 33 32 33 37 37 31 33 32 33 29 27 28 27 23 22 20 21 20 20 16 16 22
35 27 19 16 15 13 11 14 34 31 30 32 37 38 39 42 47 50 46 41 36 33 33 34 32 35 29 29 29 30 28 28 28 27 23 24 23 20 20 14 16 16 19
34 34 29 20 15 14 15 15 17 28 39 34 33 34 37 35 40 45 49 44 37 36 35 32 30 33 36 28 26 27 28 27 28 24 25 25 23 27 14 7 14 17 20
32 34 31 29 21 14 13 12 21 22 22 34 34 35 31 30 33 37 41 44 40 38 34 31 31 39 39 30 31 29 28 28 26 23 25 24 24 28 11 17 18 23 23
36 33 29 30 28 16 4 3 9 22 19 24 33 33 32 28 30 31 36 42 43 39 34 32 35 38 32 36 33 27 26 26 24 24 22 20 26 17 21 17 21 23 21
36 37 35 31 28 19 17 12 8 15 20 15 25 19 36 30 28 29 32 39 42 40 34 34 39 34 35 31 28 21 22 23 24 19 17 23 23 18 24 21 20 17 21
41 42 38 35 36 27 23 20 18 14 15 19 21 19 25 37 31 25 30 39 45 40 36 36 42 36 32 25 24 21 21 23 22 18 21 24 12 24 21 19 20 21 20
40 39 41 39 39 36 32 24 20 20 19 18 19 19 19 32 33 28 25 33 40 40 38 44 40 36 32 27 26 21 19 19 22 20 24 20 13 25 20 18 20 19 18
38 38 36 38 41 37 37 36 32 24 17 17 19 20 22 26 35 31 27 25 32 38 42 40 39 37 35 32 31 27 22 22 22 21 19 18 25 21 19 18 19 20 19

GFSGL_500_spd_105.txt.gz
Wind_Speed
50 48 53 54 55 56 56 58 59 58 59 60 62 64 68 71 74 73 66 61 66 63 59 64 72 59 52 50 38 33 21 25 27 26 28 32 30 32 33 33 32 32 34
53 52 51 54 55 55 55 55 54 55 56 57 58 58 62 69 75 75 74 70 69 66 63 59 54 54 48 49 39 31 18 26 31 28 30 33 36 36 36 35 31 30 26
51 52 54 55 53 48 49 51 52 52 51 51 52 51 49 52 62 70 74 72 71 70 67 63 60 68 46 43 35 15 24 31 32 35 32 32 34 30 39 24 26 24 24
56 56 56 48 46 50 52 52 54 55 53 51 53 53 55 56 59 61 65 68 77 72 71 70 55 39 39 38 22 20 27 31 33 35 34 32 32 35 34 31 28 27 28
59 56 51 53 54 53 56 60 63 63 60 57 57 56 60 57 56 53 57 63 71 71 66 56 62 70 48 29 21 24 28 32 33 35 35 36 28 33 37 28 29 30 31
55 59 61 61 59 56 51 50 54 62 68 64 60 60 58 55 52 42 58 40 64 62 56 65 60 50 63 26 26 26 30 33 33 35 38 36 34 31 33 34 32 32 32
61 60 55 53 51 52 51 51 54 52 59 65 64 62 61 51 45 41 35 15 18 37 51 57 58 36 29 29 27 32 34 33 29 30 31 33 32 29 32 36 33 33 34
54 53 53 54 54 55 56 56 57 57 53 52 64 63 61 51 44 39 41 18 15 16 36 49 49 39 31 30 29 31 30 30 27 25 26 29 30 33 34 36 35 33 32
53 55 58 59 57 58 57 56 56 57 51 49 57 66 59 49 44 39 35 20 10 9 12 18 24 26 29 29 29 28 28 24 20 18 20 23 26 28 35 35 32 30 31
56 58 56 57 57 58 51 53 54 53 44 43 50 63 55 47 39 33 34 33 21 16 19 20 27 23 26 32 28 26 25 23 19 19 23 23 22 27 33 30 29 30 32
48 49 50 56 53 52 57 48 50 48 40 39 43 56 51 45 33 28 39 37 35 24 18 16 18 24 33 28 28 27 28 22 16 22 22 21 19 21 26 27 28 28 31
48 54 53 51 53 45 45 40 43 40 36 37 38 49 47 43 35 29 37 40 37 25 25 16 18 26 31 28 30 28 26 21 23 21 19 19 19 21 24 26 28 28 27
54 52 46 40 39 37 37 31 32 29 29 31 34 46 45 44 41 30 30 39 40 36 30 27 24 24 25 29 28 29 25 24 26 21 17 18 19 23 25 26 25 24 23
45 45 43 41 35 34 30 26 26 25 24 31 34 46 45 50 43 35 35 36 36 37 34 26 27 30 26 29 31 28 30 30 29 19 16 17 18 20 20 20 20 22 22
43 44 40 37 31 27 26 26 22 23 22 26 38 47 46 48 43 44 40 37 37 37 35 31 29 33 33 29 29 29 30 29 24 18 15 15 17 16 16 18 19 21 21
40 41 38 31 26 22 20 20 19 20 19 21 36 49 44 49 45 46 47 42 40 40 41 40 34 32 32 33 33 29 29 29 26 19 15 15 16 15 16 18 18 19 15
35 36 36 30 21 18 20 14 22 18 20 18 34 48 44 47 43 45 43 39 49 46 44 42 42 38 39 38 37 33 31 30 27 20 16 17 18 17 16 18 18 20 21
36 36 34 31 24 18 16 11 22 20 21 19 27 40 44 41 44 44 43 49 39 41 43 40 36 39 39 36 37 36 34 30 26 20 19 18 19 17 17 18 20 24 26
35 36 31 28 26 19 15 13 11 24 22 28 28 31 37 39 41 42 40 40 43 32 31 33 31 33 40 34 30 28 32 27 24 22 20 20 19 16 19 19 20 12 7
37 34 31 28 25 20 15 15 14 20 26 27 31 34 34 35 35 38 44 42 42 34 31 28 31 33 37 33 30 27 27 23 24 22 21 19 18 18 18 25 21 11 14
41 39 39 30 24 19 13 14 16 18 27 29 28 30 35 37 35 34 39 43 38 37 34 32 31 29 28 28 29 25 25 25 22 22 20 17 17 17 20 29 14 20 26
43 45 43 33 24 19 8 3 10 21 19 24 32 28 30 31 33 35 37 41 43 41 38 32 26 26 28 29 28 27 25 23 19 18 18 15 15 22 19 9 19 22 31
41 45 42 42 29 25 21 9 12 22 19 18 21 33 29 30 29 28 31 38 44 42 35 30 27 28 31 35 29 27 25 20 17 18 16 15 18 23 13 15 25 28 19
42 42 44 42 42 30 27 20 19 19 16 17 17 29 28 30 27 25 27 34 39 39 34 29 29 31 36 33 30 28 24 19 18 16 14 15 22 6 21 22 30 19 20
47 43 45 44 42 42 29 25 18 14 15 15 17 19 30 26 23 21 24 30 36 38 31 29 32 37 35 32 30 25 20 18 15 15 15 15 10 14 26 28 14 22 22
40 43 44 47 42 43 42 29 23 21 18 17 18 19 30 28 23 19 24 32 37 37 34 35 39 40 36 30 25 21 19 15 13 14 16 13 14 27 27 16 16 19 19

GFSGL_500_spd_108.txt.gz
Wind_Speed
55 53 55 55 55 53 56 55 55 58 60 62 63 65 66 67 68 69 71 72 71 69 65 60 56 56 56 52 43 52 54 55 40 39 40 35 32 27 26 26 25 24 29
57 56 57 55 54 54 53 56 58 59 60 62 63 65 66 67 68 71 74 75 75 74 74 68 63 61 55 51 50 50 67 64 40 41 37 31 29 28 25 26 32 26 26
58 59 59 56 56 52 54 55 55 56 57 58 59 61 62 62 61 62 63 67 71 71 72 72 68 64 58 57 48 52 54 38 45 37 28 31 30 27 26 26 27 19 19
63 63 58 55 55 54 50 49 49 53 54 55 57 58 60 62 62 65 66 65 63 61 59 57 60 65 60 63 45 48 42 41 41 39 31 30 29 32 29 26 25 26 18
63 61 60 59 58 57 55 55 55 56 59 66 68 65 65 65 66 67 65 65 65 63 62 63 65 66 68 68 58 47 31 43 41 43 33 32 29 29 28 26 27 23 26
58 57 57 57 56 59 61 59 56 52 49 52 55 55 53 55 60 72 69 65 67 64 63 65 71 69 61 60 54 52 53 46 53 46 32 36 32 32 32 32 31 31 27
55 54 52 56 59 58 57 56 57 56 54 52 52 55 57 56 58 59 68 66 59 58 63 59 59 62 50 53 56 50 57 41 40 26 32 35 36 34 32 29 30 34 35
50 54 55 55 56 57 58 58 57 56 58 60 57 57 57 56 58 59 56 62 52 52 57 47 25 43 46 44 40 46 43 25 17 27 32 31 31 29 29 30 31 37 38
52 52 52 54 57 58 55 54 54 59 59 56 56 59 57 55 55 55 48 51 44 40 32 13 25 35 33 41 37 27 15 22 28 28 29 26 26 24 26 29 31 35 39
48 49 52 48 48 50 55 59 59 60 58 58 57 58 53 49 51 47 44 40 36 28 12 14 43 40 36 26 17 18 22 27 26 25 26 24 19 19 23 26 28 31 34
47 43 43 45 53 52 54 54 49 46 50 53 52 44 44 45 43 42 36 39 30 32 15 12 16 20 22 22 24 25 30 27 26 25 21 13 14 16 19 25 27 29 31
40 42 44 55 50 53 57 54 49 48 47 49 43 37 37 40 39 34 37 35 30 34 22 17 20 24 26 24 29 29 28 23 24 21 16 13 11 15 19 23 24 24 26
42 48 56 47 48 50 51 45 43 45 46 33 31 32 32 34 32 37 36 34 36 36 31 22 19 21 31 31 28 27 25 24 22 18 17 13 12 17 20 23 24 20 23
47 52 49 46 46 45 48 36 36 36 33 27 27 26 29 29 39 42 39 40 48 36 35 30 24 24 24 21 23 25 24 23 24 19 14 14 15 20 23 23 22 21 20
47 52 47 44 44 43 42 32 30 29 25 26 23 24 27 31 46 46 43 44 44 40 38 30 30 30 29 26 24 27 27 25 23 20 19 13 19 23 21 18 19 20 19
46 42 39 38 40 38 35 31 27 26 21 21 21 19 23 41 48 48 48 31 40 41 38 36 30 28 26 26 26 27 26 24 23 22 19 15 20 22 16 17 19 19 17
39 41 39 38 37 33 29 26 22 21 20 18 19 19 25 44 49 45 41 33 39 37 37 38 33 33 30 30 30 28 26 27 26 21 19 20 23 19 17 17 19 18 16
39 38 37 35 32 29 26 22 19 16 21 18 19 19 34 46 47 47 49 33 39 40 41 40 38 35 33 34 33 29 29 26 25 22 22 24 25 19 16 15 16 18 20
39 36 40 35 29 23 21 20 16 15 20 18 16 19 37 45 44 47 50 41 39 39 40 39 40 37 33 31 31 29 28 30 26 25 25 27 24 19 16 17 18 20 24
38 36 38 33 27 23 19 15 14 14 19 18 17 19 36 40 38 43 41 45 44 42 39 39 37 35 38 34 33 34 36 34 33 31 28 27 21 19 17 17 20 26 22
40 35 37 32 26 26 15 8 10 12 18 20 21 20 31 36 37 44 44 42 41 38 28 35 36 35 38 37 42 41 38 37 39 31 27 25 22 19 17 19 21 26 26
41 35 40 33 27 25 13 1 8 13 14 23 22 26 26 32 39 44 44 40 37 39 38 28 35 37 38 38 42 39 30 32 35 30 28 25 20 17 17 24 24 16 19
43 38 45 37 30 26 18 11 10 11 13 25 23 24 27 31 33 36 44 45 40 37 34 31 36 37 36 35 36 35 27 28 28 32 28 19 15 15 24 23 8 20 26
43 43 42 46 31 27 21 18 16 13 14 20 24 22 25 28 30 31 34 41 40 35 32 34 35 32 32 31 32 27 29 29 29 26 17 16 14 22 30 11 7 21 24
41 45 41 42 45 31 21 13 14 14 14 15 26 27 25 25 25 27 29 34 42 43 37 35 33 31 30 33 33 28 29 28 24 18 14 11 17 22 1 6 11 19 25
38 42 47 41 39 41 27 18 15 14 14 16 24 25 23 22 22 24 26 31 38 45 40 33 31 31 34 33 29 29 29 22 16 14 12 13 14 4 8 16 28 21 22

GFSGL_500_spd_111.txt.gz
Wind_Speed
61 59 56 56 59 62 64 61 61 66 67 64 63 63 64 65 67 69 69 71 71 72 73 72 70 67 65 63 61 58 56 53 48 42 41 45 47 47 45 42 40 31 26
59 62 63 65 68 68 68 61 59 61 65 67 66 65 66 68 70 70 71 72 73 74 75 75 74 73 67 65 65 63 60 56 51 51 39 41 50 46 47 41 36 30 25
67 69 67 66 66 65 64 61 59 57 58 62 65 66 67 68 70 71 72 72 72 73 74 73 71 72 70 63 58 58 56 53 53 50 44 41 44 48 44 40 35 30 27
66 67 67 66 66 63 60 61 59 56 53 55 59 63 65 65 66 67 69 70 69 68 68 68 67 65 64 62 57 48 49 53 54 45 39 46 42 53 49 41 37 32 28
67 68 68 67 66 64 62 59 58 59 57 54 58 62 66 71 74 75 73 69 68 66 66 66 67 67 66 60 54 47 44 48 47 47 48 56 39 42 48 42 39 36 29
67 68 68 67 66 63 61 60 59 59 59 58 55 56 56 59 64 69 68 59 60 62 60 57 66 70 65 64 58 55 49 50 59 57 31 34 51 55 49 39 41 35 32
64 64 63 62 60 57 58 59 59 59 60 62 61 58 52 53 58 62 65 62 60 61 57 56 57 63 69 63 62 61 56 48 51 53 44 40 44 47 41 33 37 34 32
59 58 58 55 55 57 59 58 58 61 59 55 56 56 58 57 57 58 60 63 61 58 55 55 61 62 60 63 62 65 60 58 48 46 41 40 42 40 34 33 30 31 33
54 53 52 55 57 55 56 57 55 52 56 58 59 60 62 61 58 61 60 60 56 52 51 52 57 46 50 63 76 75 73 56 51 44 47 43 41 33 35 37 32 30 33
49 51 52 50 51 52 51 51 53 58 59 58 60 62 62 55 51 51 58 55 47 46 42 40 32 38 51 20 22 33 37 41 44 49 44 29 23 31 29 25 25 24 28
46 44 46 49 48 49 53 55 57 58 58 61 59 61 57 53 50 50 50 49 39 36 27 25 23 21 22 24 27 37 46 55 51 37 30 31 28 23 22 22 21 22 26
41 44 44 47 51 52 55 59 58 57 54 52 56 53 50 49 48 48 43 33 31 26 29 26 18 24 34 38 39 39 37 31 31 30 29 26 21 21 22 23 24 27 29
38 41 45 48 52 54 60 58 55 52 50 50 47 40 42 38 35 32 28 28 29 34 32 21 28 26 27 30 27 27 30 29 26 25 25 24 24 20 15 16 20 23 23
38 40 45 49 53 54 54 50 47 47 47 44 38 33 32 27 26 28 28 30 41 41 37 27 23 23 28 29 33 31 30 27 27 27 27 24 22 17 16 13 15 18 21
40 42 47 50 49 49 51 50 47 44 39 37 33 33 21 20 20 24 31 44 50 42 32 30 24 22 33 33 34 32 29 29 29 28 23 18 16 13 9 12 13 12 15
38 40 43 46 51 48 50 48 43 35 32 30 29 19 17 15 18 24 42 51 48 45 40 34 27 24 33 34 31 33 31 29 27 23 19 18 12 4 6 11 12 14 14
35 39 43 47 47 46 47 37 33 28 26 21 20 15 15 15 20 37 46 46 49 49 43 36 30 26 32 37 33 31 31 30 26 20 18 19 13 6 8 9 14 12 12
38 40 43 43 45 46 38 28 24 22 21 15 14 14 11 18 34 53 46 41 55 51 42 37 33 30 32 35 35 33 29 25 20 18 20 18 12 10 9 9 12 12 13
41 43 40 44 44 38 30 25 22 18 17 11 13 13 13 29 53 52 40 35 41 43 44 42 37 34 35 31 29 30 26 26 25 22 20 18 14 12 10 11 13 13 15
44 40 43 39 34 31 28 19 10 11 10 7 13 12 19 50 52 46 39 34 35 41 42 41 42 36 35 31 29 27 28 28 26 22 19 16 14 15 12 12 15 15 19
42 36 42 34 30 28 18 7 1 6 2 11 11 12 35 52 50 48 42 36 37 35 38 41 38 33 29 30 31 30 29 23 18 17 17 18 19 19 15 16 18 19 21
40 36 43 33 27 25 19 10 7 7 9 11 11 22 47 47 48 48 44 35 39 34 34 34 35 33 30 33 32 29 23 20 19 19 20 22 23 19 19 19 20 23 25
44 41 40 36 26 23 19 15 10 11 15 15 18 33 43 40 41 41 41 42 37 36 36 27 32 32 31 32 31 30 31 27 25 28 28 30 24 20 19 19 20 28 26
44 44 41 37 22 18 17 13 12 13 18 17 22 29 36 36 36 40 39 37 40 37 34 31 30 35 32 32 33 34 33 33 27 29 23 22 20 18 20 22 27 20 22
43 43 43 39 24 20 15 11 10 11 16 16 19 23 27 31 31 33 35 33 35 32 32 32 24 32 34 36 35 34 30 29 25 19 17 17 18 19 19 23 12 16 25
37 42 43 41 31 23 19 17 12 9 9 16 16 18 23 27 29 33 37 38 35 31 30 30 29 30 33 33 28 23 22 23 21 19 19 17 16 21 20 11 22 30 31

GFSGL_500_spd_114.txt.gz
Wind_Speed
46 47 48 51 55 60 61 59 61 62 63 64 68 70 71 70 68 66 65 65 64 65 64 64 65 65 65 64 62 60 58 57 57 51 47 47 47 46 38 34 38 31 35
49 51 53 58 61 63 64 67 69 68 66 62 63 63 65 69 69 68 68 68 67 66 67 68 67 67 67 66 64 63 61 60 58 56 54 50 50 46 46 46 40 39 36
55 56 59 62 65 67 69 69 69 68 65 60 59 59 61 62 65 67 68 69 68 67 67 67 67 67 65 64 63 61 59 57 56 56 53 53 51 53 47 43 39 42 31
59 61 63 65 67 66 68 69 68 66 63 61 60 59 58 58 61 64 66 65 66 67 66 65 64 64 63 63 61 60 57 54 53 51 49 49 53 53 50 50 44 43 38
59 60 62 64 66 67 68 69 68 64 62 63 62 61 59 59 59 60 63 65 66 68 69 71 67 61 58 59 62 59 58 56 54 50 45 44 48 53 47 52 53 47 49
62 64 65 67 68 69 69 68 65 64 65 65 65 63 61 59 56 56 59 62 62 63 65 66 60 55 55 55 57 59 60 60 56 49 42 36 50 51 52 45 47 48 56
65 65 66 67 68 67 65 64 64 65 67 67 65 63 60 58 57 53 50 51 52 52 56 61 59 52 54 55 54 56 58 56 56 52 44 40 40 46 44 52 49 42 41
59 61 63 64 64 62 60 61 63 64 63 61 61 62 62 55 52 53 54 54 54 55 57 59 59 60 58 58 58 58 59 57 53 54 44 43 38 36 41 45 45 50 47
54 57 58 57 57 59 60 60 60 60 59 60 57 54 55 56 59 59 59 59 60 59 56 58 60 65 62 59 59 57 57 60 55 53 47 44 43 36 35 41 44 50 47
54 54 55 57 56 55 56 56 55 57 54 54 56 57 60 62 63 64 64 60 57 53 49 45 45 50 55 55 52 44 40 38 45 48 45 41 41 42 44 46 43 41 38
48 45 45 48 50 51 52 54 51 53 53 57 59 62 61 58 55 54 53 55 51 44 41 40 40 39 41 39 34 29 30 43 51 52 47 48 46 50 51 46 39 38 36
40 41 43 46 48 49 50 52 52 54 56 56 54 55 52 49 49 49 48 40 37 36 36 36 29 22 16 18 18 7 11 27 34 52 50 42 43 51 45 40 37 37 36
36 34 36 41 46 50 53 53 54 54 54 52 53 51 49 47 43 41 36 33 31 31 31 23 22 19 30 24 25 18 30 31 41 32 34 40 41 32 31 31 27 25 24
32 37 41 44 47 48 50 54 55 55 57 51 53 49 42 38 38 33 33 21 18 24 26 34 27 31 30 28 29 30 33 33 31 39 36 33 32 30 25 22 22 23 23
33 34 36 41 46 50 52 53 54 56 51 50 47 38 32 33 28 26 19 19 18 25 36 32 34 32 31 34 34 33 36 35 35 35 35 32 31 28 24 21 19 19 20
29 37 41 45 48 48 49 51 51 49 48 41 34 25 26 23 20 19 21 24 30 44 42 31 26 26 34 27 27 27 31 35 37 38 35 32 26 22 19 18 19 18 17
34 40 47 51 45 49 53 49 42 36 32 28 21 18 18 17 17 16 20 35 51 48 31 35 26 25 30 27 30 32 35 36 36 34 30 26 23 19 17 16 14 15 14
38 46 52 45 50 49 43 40 34 28 27 19 13 13 14 16 18 22 23 44 54 42 42 31 26 32 33 35 34 35 34 34 33 29 26 25 23 17 11 10 11 12 14
37 46 48 45 48 39 36 31 23 18 11 9 11 12 14 12 18 25 35 53 53 37 43 33 30 35 38 38 36 33 36 35 32 27 25 23 21 15 11 8 9 11 12
39 48 46 46 37 33 27 21 13 6 2 8 6 12 12 13 19 33 44 53 29 32 40 35 31 31 35 35 36 36 33 33 31 28 24 20 21 17 13 10 9 10 11
42 43 44 40 28 27 21 15 12 7 3 5 10 11 11 21 43 43 40 41 44 45 35 33 30 28 30 30 27 32 32 28 25 23 23 22 21 17 13 12 11 10 12
42 43 42 33 23 21 17 14 11 9 9 7 6 10 22 41 43 35 34 37 44 40 37 32 29 27 27 27 26 28 27 25 24 22 22 21 17 11 10 10 12 12 12
43 43 37 29 25 20 17 15 11 10 7 4 6 19 39 47 39 32 33 32 35 29 35 31 32 29 24 25 25 26 27 25 22 20 18 15 11 9 10 11 14 13 15
40 42 36 29 25 23 18 17 12 12 11 10 16 30 43 37 34 31 29 30 33 29 32 30 32 28 27 26 24 22 21 20 18 15 13 11 9 13 17 16 17 18 20
37 40 40 34 27 23 19 16 12 14 14 17 27 29 31 34 34 31 27 29 31 30 28 29 30 31 28 26 24 22 20 21 18 15 15 14 13 11 14 17 18 21 21
35 38 41 40 37 30 22 17 14 14 16 19 24 22 24 25 28 30 30 27 26 28 30 26 23 26 28 27 24 22 22 18 14 12 13 12 13 15 16 19 21 21 12

GFSGL_500_spd_117.txt.gz
Wind_Speed
51 53 54 48 49 52 54 56 58 59 60 60 61 60 62 63 64 64 65 66 66 63 61 61 61 59 58 58 57 55 52 52 51 45 39 41 43 44 42 43 41 37 35
48 48 53 55 55 57 59 61 63 64 64 64 64 64 65 65 63 64 63 63 64 64 63 63 62 62 60 58 57 56 55 52 51 48 43 41 42 46 45 45 44 43 40
49 50 51 54 57 59 62 63 63 64 65 66 67 65 64 61 59 58 60 61 61 61 62 63 61 60 60 59 57 53 51 50 49 49 45 41 39 44 48 49 49 47 46
53 55 56 58 60 61 62 63 64 65 65 65 65 65 64 63 58 55 55 56 58 60 62 63 63 58 58 58 55 52 49 51 51 51 51 46 39 37 40 46 50 53 49
54 56 58 60 62 63 64 65 66 67 68 68 68 68 66 61 58 57 57 57 58 60 60 60 59 62 63 62 60 55 48 48 52 51 48 45 41 38 37 40 48 54 52
57 60 62 64 66 67 69 69 70 70 70 71 70 67 64 61 58 58 59 58 56 55 57 58 59 60 61 60 57 49 45 44 47 46 45 46 42 39 36 36 42 53 56
61 63 65 66 67 68 69 69 68 68 68 67 64 63 61 60 60 59 57 56 55 56 54 53 51 52 54 56 56 48 41 42 45 48 48 46 45 41 39 41 41 49 54
60 62 63 63 64 63 63 63 62 62 62 61 60 60 60 58 58 58 57 55 51 50 45 49 50 52 53 56 57 58 52 49 48 48 45 43 40 40 41 40 41 46 51
54 56 56 57 58 59 61 62 62 61 60 60 60 59 59 56 56 53 53 54 54 54 56 56 57 58 60 60 60 60 59 58 54 48 47 44 42 41 38 42 42 36 47
50 52 55 57 59 59 59 58 57 57 57 58 57 56 56 53 53 53 53 54 57 56 56 54 55 55 54 56 60 57 55 56 53 48 49 47 44 40 36 44 37 31 30
51 51 50 49 50 49 49 50 51 50 51 51 51 52 52 54 52 49 50 50 51 48 47 47 47 51 52 50 47 46 45 47 44 44 45 46 49 51 46 45 34 27 27
43 41 42 43 43 42 42 45 49 51 52 52 53 54 55 54 49 51 51 49 46 43 40 41 42 40 36 37 37 41 37 39 42 44 43 40 44 40 42 37 28 32 39
39 36 35 35 36 41 44 47 50 53 55 55 55 53 51 51 52 48 46 43 39 38 38 36 31 26 27 26 26 20 21 30 35 40 39 37 38 38 37 31 37 35 35
28 32 32 32 35 42 48 52 55 56 57 55 54 52 50 48 43 43 38 33 34 34 34 29 28 25 24 21 14 14 8 13 20 30 38 37 37 35 30 34 32 32 30
30 30 32 37 42 48 52 53 49 50 52 52 51 49 45 42 39 30 27 28 26 27 20 25 29 31 22 27 22 14 15 23 25 23 39 37 30 31 33 31 31 28 25
28 31 35 38 46 54 54 51 53 48 43 38 34 32 30 27 24 23 21 19 19 17 21 29 27 26 29 22 23 20 25 28 30 29 32 35 39 32 26 27 31 25 20
31 32 38 46 54 54 52 44 40 38 35 29 25 21 18 18 20 18 14 17 17 20 31 29 28 29 29 25 26 28 26 24 34 41 38 33 32 33 33 28 22 21 20
33 37 43 49 51 46 36 37 32 29 24 20 18 15 13 14 16 15 20 17 28 37 35 30 24 29 35 35 33 28 31 38 40 35 33 32 30 26 22 19 19 17 16
36 42 45 47 40 30 31 31 27 21 14 6 5 8 11 14 16 19 19 27 47 43 35 31 28 28 36 35 37 36 40 40 39 36 30 26 22 19 17 16 14 13 14
42 45 45 38 30 26 25 23 21 17 11 3 2 6 9 13 16 21 20 29 49 37 35 27 26 33 36 36 36 35 38 36 34 29 24 23 21 18 15 12 12 12 12
41 44 40 33 27 23 23 22 19 14 10 6 1 3 6 10 19 26 21 40 46 33 38 28 33 35 36 35 36 39 38 33 29 26 24 24 21 16 13 11 10 10 10
40 41 36 29 24 20 22 18 15 16 12 7 4 5 12 18 25 28 38 40 27 41 32 30 27 27 28 30 33 35 35 33 28 25 24 24 21 14 11 12 10 8 10
37 41 37 28 25 21 21 17 19 21 15 9 14 28 32 31 29 43 36 28 33 37 31 28 26 26 25 27 30 31 31 27 24 23 22 18 12 12 13 12 11 9 11
38 43 39 37 26 21 19 19 21 24 23 24 30 32 30 24 24 24 24 34 33 31 28 27 27 27 25 22 23 25 24 24 22 18 14 13 13 13 12 12 12 13 13
41 42 40 41 35 24 19 20 21 24 25 31 30 26 24 23 24 26 31 26 23 22 22 22 22 22 18 17 18 17 18 17 16 14 12 13 13 11 13 14 14 17 18
35 43 39 34 36 34 25 19 20 18 22 24 26 24 17 14 15 16 18 21 21 22 22 18 20 21 19 16 14 12 13 11 9 10 12 11 11 13 15 17 18 20 20

GFSGL_500_spd_123.txt.gz
Wind_Speed
49 50 51 53 55 55 55 56 58 58 58 60 62 65 66 65 65 68 65 63 64 66 61 62 63 61 60 58 55 51 51 51 52 46 42 43 46 49 53 55 53 49 47
50 50 50 51 53 54 56 58 58 60 61 63 65 67 67 66 66 65 66 68 67 67 69 66 61 59 61 58 57 58 56 55 53 49 46 44 45 48 52 56 57 53 50
46 47 49 50 52 53 55 57 58 60 62 64 65 66 66 67 69 70 71 72 70 66 64 63 61 63 63 61 60 60 58 58 57 54 49 44 43 48 49 54 60 57 53
42 44 46 47 50 53 56 57 58 60 61 63 65 66 67 69 69 70 70 70 70 69 67 66 66 64 61 60 61 58 56 57 57 57 55 49 40 40 48 51 57 58 55
46 48 50 52 53 55 57 58 60 61 62 64 66 67 68 70 71 73 74 74 73 72 70 68 67 66 64 62 60 58 57 57 56 57 56 55 44 37 42 46 54 53 55
51 53 54 56 57 59 60 61 63 65 66 68 70 71 72 72 73 74 74 73 71 69 66 64 64 62 61 58 56 55 55 55 57 56 56 53 45 39 38 42 45 50 50
51 53 54 56 57 58 59 61 62 64 66 67 67 68 68 68 68 69 68 66 66 65 64 61 57 57 56 55 54 53 53 54 54 52 54 50 42 35 34 41 45 47 52
55 56 58 59 60 61 62 64 64 64 64 63 63 64 64 63 64 64 63 62 62 60 57 55 54 53 51 50 51 50 51 50 50 48 48 43 39 37 33 34 38 44 46
57 59 60 61 63 63 63 62 61 61 62 64 65 67 67 66 64 63 62 60 58 56 54 53 52 49 47 46 48 46 47 47 46 47 46 47 44 43 42 38 34 37 40
58 59 60 60 59 57 57 58 59 61 63 64 62 60 60 59 58 57 57 58 56 52 55 54 52 47 47 45 45 47 49 49 49 51 51 53 53 51 49 47 40 40 38
56 52 51 49 51 54 56 57 57 56 56 55 53 50 45 47 46 49 52 53 52 51 48 46 45 42 44 45 48 49 48 49 49 51 54 56 57 57 55 53 49 42 39
40 42 46 48 50 51 48 44 44 46 46 48 50 51 53 54 54 57 61 61 60 57 54 50 48 47 47 45 43 45 47 49 50 48 49 50 51 53 51 48 47 41 40
40 42 43 41 38 38 42 42 41 45 49 50 53 55 58 61 63 63 60 59 58 54 50 47 46 43 42 42 43 40 43 45 45 45 47 47 46 45 42 38 42 41 42
30 28 32 35 38 40 43 45 48 50 53 57 59 59 55 50 49 51 51 48 49 49 45 39 37 36 37 34 36 36 36 36 36 35 34 34 34 37 37 36 38 40 42
26 29 32 35 38 41 44 48 51 54 54 51 45 40 40 41 42 43 42 39 38 37 36 35 32 29 28 28 27 28 27 29 31 32 30 31 32 31 33 36 34 41 42
27 31 37 40 41 43 46 49 51 48 44 39 36 35 37 36 32 27 25 24 23 22 20 21 21 20 22 22 21 14 21 24 19 16 26 23 23 33 32 30 31 36 34
30 36 40 41 41 40 39 38 36 34 34 32 32 32 27 24 18 17 20 16 11 8 8 10 13 15 11 10 6 3 5 2 3 12 24 20 15 23 23 27 31 33 33
35 40 40 38 35 34 32 31 30 28 26 24 21 20 16 14 10 6 3 2 3 6 11 8 10 14 14 10 10 13 11 20 23 25 22 21 20 21 23 25 27 28 35
40 41 38 32 28 28 28 27 27 26 25 20 13 7 5 5 4 3 3 4 10 12 21 25 21 20 22 23 22 18 23 17 22 21 25 25 22 23 22 19 23 21 26
37 36 32 26 25 26 28 27 28 26 20 13 9 7 4 3 3 6 10 10 12 28 31 30 27 22 29 28 24 23 17 26 17 17 28 30 31 33 31 28 26 23 20
31 34 31 26 27 27 22 24 28 27 16 6 3 2 3 7 13 13 10 15 26 30 38 31 30 31 27 22 23 26 28 32 30 26 27 28 27 26 24 22 20 19 17
30 31 31 27 29 25 21 28 32 34 22 14 5 7 8 11 13 11 20 26 32 41 41 31 31 27 27 26 17 28 27 24 24 23 23 23 22 22 20 18 17 15 14
30 30 28 26 28 24 24 29 35 36 34 25 19 17 14 15 16 26 28 28 32 39 31 34 33 30 24 27 19 24 24 20 22 23 22 21 20 19 17 16 14 12 11
28 30 27 26 26 26 21 29 35 37 35 40 31 22 22 28 32 29 20 22 21 27 28 27 25 20 21 22 16 27 21 19 18 17 16 15 14 13 12 12 11 10 7
25 28 28 24 24 23 22 27 30 36 37 33 33 30 25 25 23 19 19 20 23 29 30 25 25 21 25 25 19 23 21 16 14 13 13 11 9 7 7 8 7 7 6
22 25 27 27 22 21 19 17 16 22 26 28 28 27 23 21 22 21 20 21 23 27 24 18 17 17 19 20 18 19 16 13 10 11 11 10 8 8 8 10 10 10 10

GFSGL_500_spd_129.txt.gz
Wind_Speed
39 41 42 44 45 46 48 50 53 54 56 55 57 52 45 52 52 53 54 55 55 55 54 55 55 55 54 54 54 54 55 56 57 56 54 47 45 44 44 43 44 45 45
40 42 44 47 47 49 50 52 52 54 55 57 53 59 60 58 58 57 58 56 56 56 55 57 55 54 53 54 54 54 56 57 56 56 56 54 50 47 49 47 45 46 45
42 43 46 49 49 52 53 51 51 51 52 53 55 56 56 58 59 60 61 61 62 62 61 59 59 60 61 59 62 60 62 58 57 57 57 58 57 54 51 51 46 43 46
36 36 36 39 41 42 44 46 48 51 52 56 55 56 58 60 62 63 64 65 65 65 65 65 65 66 67 67 67 68 68 68 66 66 66 63 60 57 54 52 50 48 47
35 38 41 44 45 47 49 52 55 55 56 57 58 59 62 63 65 66 67 67 67 66 67 69 69 70 71 71 71 71 70 68 67 67 65 64 62 62 62 59 55 51 46
39 42 45 47 48 49 51 52 53 55 57 59 61 63 64 65 67 68 69 70 71 71 70 71 71 72 71 68 65 64 63 62 60 59 60 61 60 60 59 60 59 55 47
41 43 44 46 49 51 53 56 58 59 61 62 63 64 65 66 68 70 71 72 72 72 71 68 62 59 59 61 62 62 61 61 63 60 55 54 55 54 54 55 57 51 40
42 45 48 50 52 54 56 59 61 62 63 65 66 67 68 69 69 68 65 61 58 56 55 57 57 56 56 56 55 54 53 51 51 51 52 49 48 46 47 48 48 44 34
45 48 51 53 54 57 60 63 64 64 64 63 61 57 54 52 56 57 57 55 53 52 50 50 48 46 45 46 47 46 45 41 40 43 45 46 46 42 39 37 38 36 29
46 50 52 55 57 59 56 51 49 49 50 52 53 54 53 52 53 53 51 50 50 49 48 48 50 51 51 52 50 46 45 37 40 40 39 42 41 36 34 34 31 31 29
50 51 51 49 44 45 47 47 46 46 46 47 49 50 51 51 51 52 54 52 51 50 50 51 54 56 57 56 54 51 47 45 44 42 39 35 34 34 31 32 30 29 29
41 38 39 42 42 41 42 45 48 49 50 50 51 52 53 50 49 49 52 54 54 54 55 57 54 53 53 54 55 56 53 52 50 46 41 38 33 32 31 33 33 33 31
40 37 33 33 38 42 45 49 52 55 55 54 51 48 48 49 50 53 56 58 57 53 51 47 44 43 42 42 41 39 38 38 39 45 42 40 39 39 38 37 38 36 34
28 29 33 35 41 47 53 54 50 45 42 42 44 46 45 45 45 43 41 40 38 35 35 38 41 41 40 39 36 34 32 33 35 36 37 37 38 37 35 36 37 37 37
28 30 34 41 46 46 45 41 37 36 36 37 38 39 39 37 35 35 33 32 29 27 27 27 28 27 26 22 20 21 21 24 26 30 32 32 32 32 32 32 32 35 34
27 32 38 43 41 41 39 41 32 34 40 40 39 38 35 30 26 25 25 23 19 18 18 17 13 8 5 4 6 8 10 14 18 21 22 24 25 25 27 27 28 28 28
28 35 37 38 36 36 34 36 42 46 44 40 33 28 21 15 14 13 12 8 6 6 4 3 4 8 11 16 10 3 3 6 10 14 17 22 26 25 27 23 24 26 21
29 31 34 32 30 31 38 42 43 41 32 25 18 10 7 7 7 7 7 6 8 10 13 12 13 19 19 15 15 19 19 14 9 7 6 7 13 15 16 15 16 17 23
26 31 32 27 26 33 37 36 33 27 24 21 17 12 11 10 8 5 6 8 11 14 18 18 19 16 16 15 17 24 23 25 22 14 13 12 14 15 20 18 21 20 17
25 29 26 23 25 33 38 31 28 25 23 22 20 16 13 11 11 13 17 18 24 24 21 20 19 20 19 17 26 24 21 22 29 30 30 24 19 19 19 20 23 26 23
23 27 23 17 23 31 36 33 26 25 24 21 20 20 24 30 29 23 18 21 21 22 26 24 18 16 19 18 19 25 19 22 21 23 28 27 24 20 22 24 24 28 16
22 25 22 13 18 26 30 34 25 24 27 27 24 24 28 27 27 27 26 25 24 26 26 18 21 36 19 19 16 25 25 22 24 30 26 29 30 31 25 21 19 17 19
20 22 23 16 13 18 23 29 32 26 29 29 29 28 25 22 26 28 27 26 25 29 22 21 23 20 17 28 24 24 23 18 25 26 23 25 27 26 26 25 21 22 22
17 21 23 19 14 13 17 19 25 24 24 23 21 23 19 20 17 18 20 18 22 21 23 21 25 28 28 22 21 23 18 19 19 20 22 23 20 20 19 18 19 19 17
13 18 22 23 16 11 11 14 14 18 17 18 13 13 10 11 12 12 12 17 18 19 17 15 20 18 20 20 21 17 16 15 14 14 15 15 14 13 15 14 13 13 12
14 15 18 21 21 16 11 9 10 10 12 15 13 10 7 3 2 4 4 4 7 11 14 16 13 14 11 13 13 11 10 9 7 7 7 7 7 10 8 8 8 7 5

GFSGL_500_spd_132.txt.gz
Wind_Speed
36 39 40 39 41 43 45 46 48 49 50 50 53 54 52 52 49 49 54 52 53 55 56 57 57 54 52 53 52 52 55 56 55 55 56 55 52 50 49 48 48 44 42
36 38 40 42 44 45 47 49 51 54 55 54 56 58 59 59 57 60 58 61 62 58 61 61 61 58 57 56 57 56 56 56 59 59 60 59 57 56 52 48 49 51 47
37 39 42 44 44 48 50 50 51 52 53 53 53 56 58 61 60 62 63 65 66 65 66 65 65 65 62 60 61 61 62 63 65 64 62 64 63 63 60 59 56 51 49
38 39 41 43 43 46 47 49 49 51 53 55 57 60 63 64 66 66 67 68 68 67 67 67 69 67 66 66 66 65 65 65 66 66 65 65 65 64 64 60 60 60 55
33 36 39 40 41 42 45 48 51 53 56 59 60 63 65 65 66 68 69 70 70 69 70 70 71 71 71 71 71 69 69 69 69 68 66 63 60 57 57 55 58 58 58
32 36 38 40 42 45 48 50 53 55 58 59 61 64 66 66 68 70 71 72 71 72 71 72 74 74 75 75 74 73 71 69 67 62 56 53 54 56 56 54 53 56 58
32 33 36 40 43 46 49 52 54 56 57 60 61 63 65 68 70 73 73 74 74 73 73 72 71 69 64 61 60 58 58 56 56 55 54 51 51 49 51 51 51 52 51
34 38 41 45 48 51 54 57 59 60 61 63 65 65 63 59 59 59 59 58 57 55 56 56 57 55 56 57 57 55 53 50 50 50 49 43 40 41 44 43 44 44 42
37 41 44 47 49 52 55 58 60 60 56 54 53 54 54 54 54 53 52 50 49 48 49 50 50 47 48 49 49 48 46 44 45 44 45 43 39 34 33 33 33 36 35
42 44 46 48 51 52 50 47 46 46 47 48 50 53 55 55 55 55 54 52 52 51 51 52 53 53 52 52 51 50 50 50 50 50 47 44 40 35 31 33 31 29 29
42 45 47 44 44 43 40 40 43 47 51 54 58 59 60 59 60 60 59 57 56 54 54 54 53 54 56 57 56 55 54 56 55 53 51 48 43 37 32 31 29 26 22
45 43 40 40 37 38 42 45 50 54 56 56 54 53 52 50 48 47 45 44 44 45 44 46 52 59 63 61 58 55 55 54 50 50 52 52 48 44 37 32 28 25 24
41 38 36 35 39 40 46 50 52 50 50 52 50 45 44 42 41 40 40 40 39 38 38 40 41 41 38 44 47 46 45 43 40 38 38 45 50 49 43 35 30 27 26
34 32 34 35 39 44 47 44 43 44 48 50 51 49 45 43 40 38 36 35 33 31 30 30 31 32 32 32 33 35 35 36 37 35 34 33 34 38 42 38 34 31 30
29 30 32 36 39 42 38 37 43 48 48 48 48 44 39 35 34 33 28 28 29 27 23 22 22 23 22 20 19 21 21 20 21 24 28 31 31 32 35 36 33 33 32
26 29 31 35 39 31 34 41 48 45 43 41 35 28 22 15 9 9 13 17 16 13 13 12 9 8 6 7 9 9 7 8 11 16 19 21 23 25 27 28 27 26 27
24 26 31 34 28 27 37 44 40 36 34 32 27 23 17 13 10 8 11 12 11 8 9 9 8 10 16 15 11 10 11 6 7 17 16 17 18 19 21 22 22 23 24
20 26 29 27 22 29 38 40 34 31 29 27 22 19 18 15 13 13 12 12 13 14 14 17 12 15 12 17 17 14 8 12 7 7 7 13 19 19 20 20 19 19 19
21 24 26 19 20 28 36 32 30 29 28 27 23 16 16 18 17 15 13 15 18 18 19 20 26 26 27 23 21 23 25 18 17 16 16 13 13 12 13 14 15 16 14
19 21 23 15 18 26 32 26 30 26 27 30 31 26 21 22 23 26 25 24 23 22 22 22 18 18 28 16 19 29 24 27 22 25 27 29 26 23 22 22 23 24 19
17 19 22 16 15 20 27 22 27 25 24 30 32 29 26 25 25 26 24 24 24 23 17 14 16 18 27 26 21 16 25 31 28 27 28 26 25 22 19 17 17 18 19
15 17 20 15 11 14 20 18 23 24 26 29 29 27 30 28 25 25 22 18 18 19 21 24 23 19 15 27 30 31 28 29 35 32 30 26 24 24 21 18 13 16 22
12 15 18 15 9 10 11 11 17 17 18 21 22 21 22 22 23 18 19 22 15 15 17 17 21 24 23 26 24 26 26 26 25 30 29 28 25 18 17 16 16 20 17
7 13 16 16 10 5 8 9 12 13 12 10 13 16 16 13 12 15 14 20 17 13 12 12 17 21 17 18 20 19 20 22 23 23 23 23 22 21 23 20 16 15 15
5 9 13 15 14 9 5 6 7 10 12 9 8 8 8 9 6 8 11 17 19 12 12 10 11 12 7 10 13 14 16 17 18 19 18 16 15 15 14 14 13 12 11
7 8 11 12 13 13 9 5 5 6 7 9 10 10 9 6 6 3 3 6 8 7 6 3 6 4 3 4 6 8 8 11 13 13 12 11 9 9 9 8 9 8 7

GFSGL_500_spd_135.txt.gz
Wind_Speed
38 32 36 35 34 35 38 41 44 46 49 48 50 52 54 55 56 58 56 58 60 62 61 57 50 56 54 54 61 56 59 55 55 55 56 58 57 51 51 52 51 51 48
33 33 36 39 41 43 44 44 46 48 50 51 53 56 57 58 57 60 60 58 57 59 60 54 54 61 64 67 69 68 62 61 61 62 63 64 66 63 61 60 59 58 57
34 38 39 39 41 43 45 46 48 49 50 51 52 54 54 56 55 58 60 61 63 64 65 65 69 70 71 72 72 71 71 69 69 69 66 67 67 66 64 63 61 60 60
35 37 40 41 41 41 43 45 48 49 51 53 55 57 59 61 62 65 66 67 67 68 70 70 71 72 71 72 72 71 71 71 73 74 71 68 67 64 62 60 59 60 59
33 34 35 36 38 39 41 44 47 49 52 55 57 59 62 63 65 66 68 69 69 70 71 72 75 75 76 77 76 75 74 75 76 76 73 69 62 60 57 56 55 52 50
29 31 33 36 40 42 42 45 47 50 53 56 59 62 64 67 69 70 70 71 73 74 75 77 78 79 80 80 79 77 76 76 78 75 71 65 58 51 46 48 49 51 52
29 31 33 34 36 40 44 46 50 54 57 60 63 65 66 68 70 71 72 72 72 71 69 66 64 63 64 65 64 64 61 60 59 56 53 51 50 47 45 45 47 48 46
26 28 32 37 42 45 49 51 53 56 60 62 63 63 62 59 59 58 58 58 57 57 57 56 56 56 57 58 57 57 58 59 58 55 51 47 43 40 38 39 38 40 40
30 33 37 41 43 46 49 53 55 55 53 50 49 50 52 55 59 61 62 63 62 61 60 58 56 56 56 56 56 56 55 52 53 50 48 45 41 39 38 35 34 36 31
32 36 41 44 46 49 50 48 46 44 46 48 52 55 58 59 60 61 60 58 57 58 59 60 60 60 59 60 60 59 57 57 59 57 54 50 46 44 42 38 35 33 31
39 41 45 46 48 44 43 41 43 44 49 51 52 52 52 54 57 58 57 52 48 43 42 44 46 47 48 49 49 50 52 57 59 57 54 53 51 46 45 43 38 33 29
42 46 47 48 40 40 39 41 44 47 46 46 50 55 59 58 55 53 53 49 39 34 35 37 39 42 43 43 45 47 49 49 52 57 55 52 52 50 49 48 45 35 28
47 48 46 37 35 37 39 42 43 40 45 51 53 49 47 49 50 48 42 37 32 31 35 33 32 34 35 35 35 37 38 39 40 38 43 49 49 46 44 45 46 36 29
49 41 32 30 33 36 40 36 36 44 48 47 43 43 42 41 41 34 25 24 21 27 29 28 28 27 24 23 25 26 27 27 28 29 32 34 35 36 35 36 39 37 33
32 28 26 28 32 37 32 32 43 42 41 39 37 33 32 35 31 24 17 13 13 14 15 13 13 13 15 17 19 21 21 20 16 14 17 21 26 28 28 25 26 36 35
24 24 25 28 32 28 28 38 39 41 38 35 33 27 26 27 23 19 16 15 16 15 15 16 20 19 20 16 15 19 21 16 11 12 9 10 13 17 21 22 23 27 32
22 22 25 27 26 23 31 37 40 36 33 32 22 20 22 22 21 22 23 24 25 23 21 18 23 25 23 22 25 19 17 23 18 13 17 13 11 12 15 16 19 23 26
20 21 24 27 18 22 30 32 35 30 30 29 24 24 24 24 25 25 26 27 29 32 33 31 31 27 22 24 25 23 22 16 13 11 7 7 6 7 13 16 18 20 21
17 19 22 21 15 19 24 28 27 29 29 27 26 27 28 28 28 29 26 25 26 25 21 26 27 21 17 27 30 27 27 26 29 26 16 14 13 11 10 12 13 15 17
15 16 20 16 10 16 18 20 24 27 30 27 26 26 26 26 27 28 26 24 21 19 21 26 29 27 27 32 36 32 29 28 30 31 31 29 21 15 12 11 11 12 14
13 13 16 13 6 12 13 15 19 22 23 26 25 24 21 21 22 21 23 21 26 30 26 21 25 30 28 27 36 35 34 34 35 33 29 27 26 24 21 21 17 16 16
10 10 12 12 5 9 10 11 14 14 18 18 19 19 22 19 25 27 20 20 24 28 24 25 27 28 26 27 28 29 31 33 34 31 26 23 23 21 16 13 13 15 12
7 7 9 13 7 6 10 13 14 11 10 13 16 16 17 18 14 26 19 17 13 17 16 17 19 21 22 23 24 27 26 23 28 33 32 26 27 30 26 17 16 12 13
6 3 6 11 11 7 7 10 13 14 15 12 11 12 13 15 15 13 20 19 15 16 13 12 15 15 16 18 19 21 23 24 23 25 24 25 25 20 20 21 20 20 20
3 2 4 7 9 9 7 7 9 12 13 14 14 14 11 10 12 8 7 13 14 10 9 11 9 14 12 11 12 14 15 17 17 18 20 20 21 20 19 18 18 17 15
2 2 3 6 6 7 8 8 7 9 11 13 14 12 12 13 14 15 11 9 8 2 7 9 11 16 16 15 11 10 10 10 12 13 13 13 14 13 13 13 13 12 11

GFSGL_500_spd_138.txt.gz
Wind_Speed
41 40 36 34 43 48 46 43 43 49 50 44 44 45 48 50 51 54 56 57 58 58 59 60 62 63 57 60 59 57 61 60 52 47 52 64 64 62 61 59 58 61 61
32 41 35 47 47 52 49 44 44 42 45 47 49 49 50 51 54 56 58 59 59 60 59 60 60 62 62 61 67 57 59 58 64 67 70 68 66 65 65 65 64 65 66
39 48 56 54 47 47 41 42 44 45 47 50 51 53 53 54 54 56 57 59 61 63 64 64 64 65 65 64 61 74 69 71 78 74 70 69 68 69 67 66 65 66 68
31 28 26 31 33 35 38 42 43 44 45 48 50 52 54 56 58 60 62 63 64 65 65 65 66 67 68 69 69 71 73 75 76 76 74 72 72 70 69 68 66 65 64
18 22 25 27 29 33 37 39 43 45 47 50 51 54 56 58 61 63 65 66 68 70 72 73 73 74 74 73 73 74 75 76 76 76 75 73 71 68 66 64 63 64 60
19 22 24 28 31 36 37 38 41 45 48 52 55 57 61 63 64 67 69 70 70 71 71 71 71 70 68 66 64 62 59 56 54 53 52 51 50 49 46 49 48 44 46
22 25 25 27 29 32 35 39 43 47 50 53 56 58 61 63 61 58 55 54 53 54 55 56 57 59 60 60 60 60 59 58 57 55 51 51 49 50 49 48 44 42 40
20 23 26 29 32 36 41 45 48 51 54 56 56 54 51 51 53 55 57 59 60 60 59 59 58 59 62 64 63 63 62 62 62 61 58 55 52 50 42 39 36 33 31
22 25 27 31 37 40 44 48 52 55 53 51 48 50 51 55 57 57 56 56 58 58 58 59 57 55 55 56 57 59 62 61 63 62 60 58 57 54 49 41 35 33 28
27 30 33 38 43 46 49 52 52 47 44 45 49 52 52 52 54 59 61 61 61 60 60 58 53 49 47 46 46 46 46 50 54 56 56 57 56 54 53 51 42 38 33
30 34 38 44 47 50 52 44 38 39 43 46 46 48 53 56 55 51 51 52 53 52 52 48 42 36 33 37 39 40 42 45 46 49 51 51 49 49 53 52 46 38 34
35 40 45 48 52 49 34 34 37 41 40 43 50 48 42 41 39 41 44 45 43 38 34 30 27 26 30 32 33 35 35 35 37 40 42 44 46 46 48 51 46 39 33
39 43 47 45 34 29 30 36 37 36 42 43 40 40 38 34 33 36 37 36 31 26 17 16 16 19 22 23 23 20 20 23 26 30 34 37 38 39 39 40 40 36 33
42 40 32 28 26 28 32 33 32 39 37 36 37 35 28 26 27 29 26 23 20 14 12 11 12 14 13 13 14 18 24 21 23 23 22 19 22 25 27 30 32 31 31
32 30 23 23 26 29 27 29 33 32 33 31 26 23 23 23 23 21 22 23 23 23 24 20 21 21 20 20 24 22 21 26 25 20 20 14 8 10 18 22 23 24 25
26 21 23 23 26 28 21 26 28 29 26 26 24 23 20 19 22 24 25 29 30 27 28 28 28 29 32 23 22 20 24 26 17 21 10 7 11 5 6 11 16 16 19
20 24 21 24 26 19 20 22 26 21 20 21 22 22 21 21 22 27 28 29 30 30 29 29 27 28 31 28 29 25 25 27 15 13 8 6 8 3 1 8 11 12 18
20 20 21 23 20 14 16 20 23 21 18 18 21 21 24 24 24 23 24 26 27 33 31 29 31 34 35 30 30 30 34 36 27 18 10 7 8 7 6 6 10 12 16
20 16 19 21 15 11 12 16 19 19 16 16 20 23 24 24 22 28 25 20 25 29 31 28 30 39 38 36 34 35 36 40 42 32 22 15 16 17 13 11 11 12 14
17 15 16 19 12 9 9 11 14 13 16 17 17 20 23 30 22 20 23 23 29 29 24 29 31 37 37 36 41 38 38 40 40 37 34 31 23 18 18 16 14 12 11
13 13 14 17 11 9 7 9 13 11 12 13 14 17 21 22 26 19 18 21 22 22 25 25 24 25 29 30 32 37 40 40 36 36 32 27 27 29 27 26 21 22 16
11 11 12 14 11 10 11 9 10 11 11 14 16 17 17 20 20 20 15 18 16 16 22 20 26 26 29 30 30 30 32 38 34 35 41 37 23 26 24 22 17 12 8
12 10 10 11 9 10 12 12 10 11 13 14 14 16 15 14 15 15 19 13 14 16 18 19 24 25 26 27 28 29 27 27 32 33 33 33 32 29 27 19 18 18 18
13 10 9 8 8 8 10 11 12 11 11 12 13 15 15 15 12 10 12 12 14 14 15 18 18 23 23 24 25 25 25 24 24 26 28 28 28 28 28 28 26 21 14
13 10 9 8 7 6 9 11 11 11 12 12 13 13 13 15 15 18 15 10 9 12 14 16 20 20 19 18 18 20 21 21 21 19 19 19 20 22 22 22 22 21 20
11 11 9 7 7 6 5 7 10 12 13 12 13 14 14 15 15 16 16 15 12 9 11 14 18 18 18 17 12 8 12 16 19 19 16 13 11 12 13 14 14 13 14